<?xml version="1.0" encoding="UTF-8" standalone="no" ?>
<gpx xmlns="http://www.topografix.com/GPX/1/1" creator="www.cicloide.com" version="1.1" xmlns:xsi="http://www.w3.org/2001/XMLSchema-instance" xsi:schemaLocation="http://www.topografix.com/GPX/1/1 http://www.topografix.com/GPX/1/1/gpx.xsd">
  <trk>
    <name>www.cicloide.com 16515</name>
    <desc>www.cicloide.com 16515</desc>
    <trkseg>
      <trkpt lat="41.606099934" lon="2.540608466">
        <ele>120.30</ele>
        <time>2013-12-24T08:24:52Z</time>
      </trkpt>
      <trkpt lat="41.606105634" lon="2.540640065">
        <ele>120.30</ele>
        <time>2013-12-24T08:25:09Z</time>
      </trkpt>
      <trkpt lat="41.606094402" lon="2.540637802">
        <ele>120.30</ele>
        <time>2013-12-24T08:25:23Z</time>
      </trkpt>
      <trkpt lat="41.606088954" lon="2.540630762">
        <ele>120.30</ele>
        <time>2013-12-24T08:25:25Z</time>
      </trkpt>
      <trkpt lat="41.606067161" lon="2.540580638">
        <ele>120.30</ele>
        <time>2013-12-24T08:25:33Z</time>
      </trkpt>
      <trkpt lat="41.606066490" lon="2.540575106">
        <ele>120.30</ele>
        <time>2013-12-24T08:25:34Z</time>
      </trkpt>
      <trkpt lat="41.606060288" lon="2.540543506">
        <ele>120.30</ele>
        <time>2013-12-24T08:25:36Z</time>
      </trkpt>
      <trkpt lat="41.605928105" lon="2.540446779">
        <ele>120.30</ele>
        <time>2013-12-24T08:25:41Z</time>
      </trkpt>
      <trkpt lat="41.605898433" lon="2.540430266">
        <ele>119.34</ele>
        <time>2013-12-24T08:25:42Z</time>
      </trkpt>
      <trkpt lat="41.605916790" lon="2.540358434">
        <ele>119.34</ele>
        <time>2013-12-24T08:25:46Z</time>
      </trkpt>
      <trkpt lat="41.606033885" lon="2.540331276">
        <ele>118.86</ele>
        <time>2013-12-24T08:25:50Z</time>
      </trkpt>
      <trkpt lat="41.606068921" lon="2.540335467">
        <ele>118.86</ele>
        <time>2013-12-24T08:25:51Z</time>
      </trkpt>
      <trkpt lat="41.606360444" lon="2.540475780">
        <ele>118.86</ele>
        <time>2013-12-24T08:26:02Z</time>
      </trkpt>
      <trkpt lat="41.606615254" lon="2.540608047">
        <ele>120.30</ele>
        <time>2013-12-24T08:26:12Z</time>
      </trkpt>
      <trkpt lat="41.606639142" lon="2.540617434">
        <ele>120.30</ele>
        <time>2013-12-24T08:26:13Z</time>
      </trkpt>
      <trkpt lat="41.606844415" lon="2.540714665">
        <ele>120.78</ele>
        <time>2013-12-24T08:26:21Z</time>
      </trkpt>
      <trkpt lat="41.607087239" lon="2.540816169">
        <ele>121.26</ele>
        <time>2013-12-24T08:26:30Z</time>
      </trkpt>
      <trkpt lat="41.607323189" lon="2.540856654">
        <ele>122.22</ele>
        <time>2013-12-24T08:26:39Z</time>
      </trkpt>
      <trkpt lat="41.607541286" lon="2.540837543">
        <ele>123.19</ele>
        <time>2013-12-24T08:26:47Z</time>
      </trkpt>
      <trkpt lat="41.607749158" lon="2.540819690">
        <ele>123.67</ele>
        <time>2013-12-24T08:26:55Z</time>
      </trkpt>
      <trkpt lat="41.607969769" lon="2.540799825">
        <ele>124.15</ele>
        <time>2013-12-24T08:27:03Z</time>
      </trkpt>
      <trkpt lat="41.608143945" lon="2.540796975">
        <ele>125.11</ele>
        <time>2013-12-24T08:27:09Z</time>
      </trkpt>
      <trkpt lat="41.608334969" lon="2.540744420">
        <ele>126.07</ele>
        <time>2013-12-24T08:27:16Z</time>
      </trkpt>
      <trkpt lat="41.608608051" lon="2.540679880">
        <ele>126.55</ele>
        <time>2013-12-24T08:27:26Z</time>
      </trkpt>
      <trkpt lat="41.608859257" lon="2.540593797">
        <ele>127.51</ele>
        <time>2013-12-24T08:27:35Z</time>
      </trkpt>
      <trkpt lat="41.609087412" lon="2.540558510">
        <ele>127.99</ele>
        <time>2013-12-24T08:27:43Z</time>
      </trkpt>
      <trkpt lat="41.609310874" lon="2.540539064">
        <ele>128.95</ele>
        <time>2013-12-24T08:27:51Z</time>
      </trkpt>
      <trkpt lat="41.609538107" lon="2.540517857">
        <ele>129.43</ele>
        <time>2013-12-24T08:27:59Z</time>
      </trkpt>
      <trkpt lat="41.609734914" lon="2.540491790">
        <ele>130.40</ele>
        <time>2013-12-24T08:28:06Z</time>
      </trkpt>
      <trkpt lat="41.609935242" lon="2.540433955">
        <ele>131.36</ele>
        <time>2013-12-24T08:28:13Z</time>
      </trkpt>
      <trkpt lat="41.610125427" lon="2.540326163">
        <ele>131.84</ele>
        <time>2013-12-24T08:28:20Z</time>
      </trkpt>
      <trkpt lat="41.610332209" lon="2.540203201">
        <ele>132.32</ele>
        <time>2013-12-24T08:28:28Z</time>
      </trkpt>
      <trkpt lat="41.610531195" lon="2.540089877">
        <ele>133.76</ele>
        <time>2013-12-24T08:28:36Z</time>
      </trkpt>
      <trkpt lat="41.610708053" lon="2.539981499">
        <ele>134.24</ele>
        <time>2013-12-24T08:28:43Z</time>
      </trkpt>
      <trkpt lat="41.610896897" lon="2.539884186">
        <ele>134.72</ele>
        <time>2013-12-24T08:28:50Z</time>
      </trkpt>
      <trkpt lat="41.611117761" lon="2.539776310">
        <ele>136.16</ele>
        <time>2013-12-24T08:28:58Z</time>
      </trkpt>
      <trkpt lat="41.611322111" lon="2.539649995">
        <ele>136.64</ele>
        <time>2013-12-24T08:29:06Z</time>
      </trkpt>
      <trkpt lat="41.611523780" lon="2.539514627">
        <ele>137.61</ele>
        <time>2013-12-24T08:29:14Z</time>
      </trkpt>
      <trkpt lat="41.611756965" lon="2.539279180">
        <ele>138.57</ele>
        <time>2013-12-24T08:29:24Z</time>
      </trkpt>
      <trkpt lat="41.611900547" lon="2.539095448">
        <ele>139.53</ele>
        <time>2013-12-24T08:29:31Z</time>
      </trkpt>
      <trkpt lat="41.612115207" lon="2.538806273">
        <ele>140.49</ele>
        <time>2013-12-24T08:29:42Z</time>
      </trkpt>
      <trkpt lat="41.612180334" lon="2.538658081">
        <ele>140.97</ele>
        <time>2013-12-24T08:29:48Z</time>
      </trkpt>
      <trkpt lat="41.612320983" lon="2.538432524">
        <ele>142.41</ele>
        <time>2013-12-24T08:29:56Z</time>
      </trkpt>
      <trkpt lat="41.612473450" lon="2.538223228">
        <ele>143.37</ele>
        <time>2013-12-24T08:30:04Z</time>
      </trkpt>
      <trkpt lat="41.612656762" lon="2.537993647">
        <ele>144.34</ele>
        <time>2013-12-24T08:30:13Z</time>
      </trkpt>
      <trkpt lat="41.612833285" lon="2.537801702">
        <ele>144.82</ele>
        <time>2013-12-24T08:30:21Z</time>
      </trkpt>
      <trkpt lat="41.613021878" lon="2.537591400">
        <ele>145.78</ele>
        <time>2013-12-24T08:30:30Z</time>
      </trkpt>
      <trkpt lat="41.613171159" lon="2.537418900">
        <ele>146.26</ele>
        <time>2013-12-24T08:30:37Z</time>
      </trkpt>
      <trkpt lat="41.613349442" lon="2.537210107">
        <ele>147.22</ele>
        <time>2013-12-24T08:30:45Z</time>
      </trkpt>
      <trkpt lat="41.613514817" lon="2.536980527">
        <ele>148.18</ele>
        <time>2013-12-24T08:30:53Z</time>
      </trkpt>
      <trkpt lat="41.613629230" lon="2.536826886">
        <ele>148.66</ele>
        <time>2013-12-24T08:30:59Z</time>
      </trkpt>
      <trkpt lat="41.613621603" lon="2.536668301">
        <ele>149.14</ele>
        <time>2013-12-24T08:31:05Z</time>
      </trkpt>
      <trkpt lat="41.613626967" lon="2.536638713">
        <ele>149.14</ele>
        <time>2013-12-24T08:31:06Z</time>
      </trkpt>
      <trkpt lat="41.613767029" lon="2.536260437">
        <ele>150.58</ele>
        <time>2013-12-24T08:31:18Z</time>
      </trkpt>
      <trkpt lat="41.613872138" lon="2.535978973">
        <ele>151.06</ele>
        <time>2013-12-24T08:31:27Z</time>
      </trkpt>
      <trkpt lat="41.613967692" lon="2.535695078">
        <ele>152.51</ele>
        <time>2013-12-24T08:31:36Z</time>
      </trkpt>
      <trkpt lat="41.614059976" lon="2.535384109">
        <ele>153.47</ele>
        <time>2013-12-24T08:31:45Z</time>
      </trkpt>
      <trkpt lat="41.614145723" lon="2.535085714">
        <ele>154.43</ele>
        <time>2013-12-24T08:31:54Z</time>
      </trkpt>
      <trkpt lat="41.614238008" lon="2.534820175">
        <ele>155.39</ele>
        <time>2013-12-24T08:32:02Z</time>
      </trkpt>
      <trkpt lat="41.614328449" lon="2.534556229">
        <ele>156.83</ele>
        <time>2013-12-24T08:32:10Z</time>
      </trkpt>
      <trkpt lat="41.614431043" lon="2.534253726">
        <ele>158.27</ele>
        <time>2013-12-24T08:32:19Z</time>
      </trkpt>
      <trkpt lat="41.614509917" lon="2.533956336">
        <ele>158.75</ele>
        <time>2013-12-24T08:32:28Z</time>
      </trkpt>
      <trkpt lat="41.614592562" lon="2.533646708">
        <ele>159.72</ele>
        <time>2013-12-24T08:32:37Z</time>
      </trkpt>
      <trkpt lat="41.614692139" lon="2.533380751">
        <ele>160.68</ele>
        <time>2013-12-24T08:32:45Z</time>
      </trkpt>
      <trkpt lat="41.614778892" lon="2.533064837">
        <ele>161.64</ele>
        <time>2013-12-24T08:32:54Z</time>
      </trkpt>
      <trkpt lat="41.614867070" lon="2.532787228">
        <ele>162.60</ele>
        <time>2013-12-24T08:33:02Z</time>
      </trkpt>
      <trkpt lat="41.614937897" lon="2.532542309">
        <ele>163.56</ele>
        <time>2013-12-24T08:33:09Z</time>
      </trkpt>
      <trkpt lat="41.615015932" lon="2.532244584">
        <ele>164.04</ele>
        <time>2013-12-24T08:33:17Z</time>
      </trkpt>
      <trkpt lat="41.615058093" lon="2.531953899">
        <ele>164.52</ele>
        <time>2013-12-24T08:33:25Z</time>
      </trkpt>
      <trkpt lat="41.615077036" lon="2.531672854">
        <ele>165.00</ele>
        <time>2013-12-24T08:33:33Z</time>
      </trkpt>
      <trkpt lat="41.615099332" lon="2.531235235">
        <ele>166.93</ele>
        <time>2013-12-24T08:33:45Z</time>
      </trkpt>
      <trkpt lat="41.615135039" lon="2.530910436">
        <ele>167.41</ele>
        <time>2013-12-24T08:33:53Z</time>
      </trkpt>
      <trkpt lat="41.615174434" lon="2.530521097">
        <ele>168.85</ele>
        <time>2013-12-24T08:34:03Z</time>
      </trkpt>
      <trkpt lat="41.615178206" lon="2.530148186">
        <ele>169.81</ele>
        <time>2013-12-24T08:34:13Z</time>
      </trkpt>
      <trkpt lat="41.615178793" lon="2.529841073">
        <ele>170.77</ele>
        <time>2013-12-24T08:34:21Z</time>
      </trkpt>
      <trkpt lat="41.615172842" lon="2.529543599">
        <ele>171.73</ele>
        <time>2013-12-24T08:34:29Z</time>
      </trkpt>
      <trkpt lat="41.615181307" lon="2.529166833">
        <ele>173.17</ele>
        <time>2013-12-24T08:34:39Z</time>
      </trkpt>
      <trkpt lat="41.615211734" lon="2.528920572">
        <ele>173.66</ele>
        <time>2013-12-24T08:34:46Z</time>
      </trkpt>
      <trkpt lat="41.615291194" lon="2.528544225">
        <ele>174.62</ele>
        <time>2013-12-24T08:34:56Z</time>
      </trkpt>
      <trkpt lat="41.615363195" lon="2.528182881">
        <ele>175.10</ele>
        <time>2013-12-24T08:35:06Z</time>
      </trkpt>
      <trkpt lat="41.615412145" lon="2.527919103">
        <ele>176.06</ele>
        <time>2013-12-24T08:35:13Z</time>
      </trkpt>
      <trkpt lat="41.615473500" lon="2.527608385">
        <ele>177.02</ele>
        <time>2013-12-24T08:35:22Z</time>
      </trkpt>
      <trkpt lat="41.615513566" lon="2.527372351">
        <ele>177.50</ele>
        <time>2013-12-24T08:35:29Z</time>
      </trkpt>
      <trkpt lat="41.615554721" lon="2.527140591">
        <ele>178.46</ele>
        <time>2013-12-24T08:35:36Z</time>
      </trkpt>
      <trkpt lat="41.615587159" lon="2.526798107">
        <ele>179.90</ele>
        <time>2013-12-24T08:35:46Z</time>
      </trkpt>
      <trkpt lat="41.615564109" lon="2.526532149">
        <ele>181.35</ele>
        <time>2013-12-24T08:35:54Z</time>
      </trkpt>
      <trkpt lat="41.615529743" lon="2.526261162">
        <ele>182.31</ele>
        <time>2013-12-24T08:36:02Z</time>
      </trkpt>
      <trkpt lat="41.615511890" lon="2.525973747">
        <ele>182.79</ele>
        <time>2013-12-24T08:36:10Z</time>
      </trkpt>
      <trkpt lat="41.615511135" lon="2.525604691">
        <ele>183.75</ele>
        <time>2013-12-24T08:36:20Z</time>
      </trkpt>
      <trkpt lat="41.615509375" lon="2.525330017">
        <ele>184.23</ele>
        <time>2013-12-24T08:36:28Z</time>
      </trkpt>
      <trkpt lat="41.615524043" lon="2.525086355">
        <ele>185.19</ele>
        <time>2013-12-24T08:36:35Z</time>
      </trkpt>
      <trkpt lat="41.615545501" lon="2.524842441">
        <ele>185.67</ele>
        <time>2013-12-24T08:36:42Z</time>
      </trkpt>
      <trkpt lat="41.615557739" lon="2.524584782">
        <ele>186.63</ele>
        <time>2013-12-24T08:36:50Z</time>
      </trkpt>
      <trkpt lat="41.615569054" lon="2.524387472">
        <ele>187.59</ele>
        <time>2013-12-24T08:36:56Z</time>
      </trkpt>
      <trkpt lat="41.615601241" lon="2.524095697">
        <ele>189.52</ele>
        <time>2013-12-24T08:37:05Z</time>
      </trkpt>
      <trkpt lat="41.615619010" lon="2.523912721">
        <ele>190.48</ele>
        <time>2013-12-24T08:37:11Z</time>
      </trkpt>
      <trkpt lat="41.615625045" lon="2.523707364">
        <ele>191.44</ele>
        <time>2013-12-24T08:37:17Z</time>
      </trkpt>
      <trkpt lat="41.615653963" lon="2.523450794">
        <ele>191.44</ele>
        <time>2013-12-24T08:37:24Z</time>
      </trkpt>
      <trkpt lat="41.615692939" lon="2.523163378">
        <ele>192.40</ele>
        <time>2013-12-24T08:37:32Z</time>
      </trkpt>
      <trkpt lat="41.615730154" lon="2.522918040">
        <ele>192.88</ele>
        <time>2013-12-24T08:37:39Z</time>
      </trkpt>
      <trkpt lat="41.615773992" lon="2.522619225">
        <ele>194.32</ele>
        <time>2013-12-24T08:37:48Z</time>
      </trkpt>
      <trkpt lat="41.615814225" lon="2.522344634">
        <ele>194.80</ele>
        <time>2013-12-24T08:37:56Z</time>
      </trkpt>
      <trkpt lat="41.615859403" lon="2.522066271">
        <ele>196.25</ele>
        <time>2013-12-24T08:38:04Z</time>
      </trkpt>
      <trkpt lat="41.615892763" lon="2.521796961">
        <ele>197.21</ele>
        <time>2013-12-24T08:38:12Z</time>
      </trkpt>
      <trkpt lat="41.615928470" lon="2.521495883">
        <ele>197.21</ele>
        <time>2013-12-24T08:38:19Z</time>
      </trkpt>
      <trkpt lat="41.615966943" lon="2.521225650">
        <ele>198.17</ele>
        <time>2013-12-24T08:38:27Z</time>
      </trkpt>
      <trkpt lat="41.616006757" lon="2.520967571">
        <ele>198.17</ele>
        <time>2013-12-24T08:38:34Z</time>
      </trkpt>
      <trkpt lat="41.616070292" lon="2.520695076">
        <ele>199.13</ele>
        <time>2013-12-24T08:38:42Z</time>
      </trkpt>
      <trkpt lat="41.616155368" lon="2.520442613">
        <ele>199.61</ele>
        <time>2013-12-24T08:38:49Z</time>
      </trkpt>
      <trkpt lat="41.616249329" lon="2.520155532">
        <ele>200.57</ele>
        <time>2013-12-24T08:38:58Z</time>
      </trkpt>
      <trkpt lat="41.616362569" lon="2.519995187">
        <ele>200.57</ele>
        <time>2013-12-24T08:39:04Z</time>
      </trkpt>
      <trkpt lat="41.616444041" lon="2.519923354">
        <ele>199.13</ele>
        <time>2013-12-24T08:39:06Z</time>
      </trkpt>
      <trkpt lat="41.616634897" lon="2.519814557">
        <ele>198.65</ele>
        <time>2013-12-24T08:39:12Z</time>
      </trkpt>
      <trkpt lat="41.616678818" lon="2.519784717">
        <ele>200.09</ele>
        <time>2013-12-24T08:39:14Z</time>
      </trkpt>
      <trkpt lat="41.616816533" lon="2.519723948">
        <ele>201.05</ele>
        <time>2013-12-24T08:39:21Z</time>
      </trkpt>
      <trkpt lat="41.616973693" lon="2.519684889">
        <ele>201.05</ele>
        <time>2013-12-24T08:39:28Z</time>
      </trkpt>
      <trkpt lat="41.617118533" lon="2.519667287">
        <ele>202.01</ele>
        <time>2013-12-24T08:39:35Z</time>
      </trkpt>
      <trkpt lat="41.617283740" lon="2.519637447">
        <ele>202.98</ele>
        <time>2013-12-24T08:39:42Z</time>
      </trkpt>
      <trkpt lat="41.617498568" lon="2.519617163">
        <ele>204.42</ele>
        <time>2013-12-24T08:39:50Z</time>
      </trkpt>
      <trkpt lat="41.617699985" lon="2.519601405">
        <ele>204.90</ele>
        <time>2013-12-24T08:39:58Z</time>
      </trkpt>
      <trkpt lat="41.617783134" lon="2.519595035">
        <ele>204.90</ele>
        <time>2013-12-24T08:40:03Z</time>
      </trkpt>
      <trkpt lat="41.617786151" lon="2.519625712">
        <ele>205.38</ele>
        <time>2013-12-24T08:40:10Z</time>
      </trkpt>
      <trkpt lat="41.617799059" lon="2.519642560">
        <ele>206.34</ele>
        <time>2013-12-24T08:40:19Z</time>
      </trkpt>
      <trkpt lat="41.617818757" lon="2.519685308">
        <ele>206.34</ele>
        <time>2013-12-24T08:40:26Z</time>
      </trkpt>
      <trkpt lat="41.617823283" lon="2.519701736">
        <ele>206.82</ele>
        <time>2013-12-24T08:40:32Z</time>
      </trkpt>
      <trkpt lat="41.617834766" lon="2.519719590">
        <ele>206.82</ele>
        <time>2013-12-24T08:40:37Z</time>
      </trkpt>
      <trkpt lat="41.617902073" lon="2.519841127">
        <ele>207.30</ele>
        <time>2013-12-24T08:40:45Z</time>
      </trkpt>
      <trkpt lat="41.617889835" lon="2.519951936">
        <ele>208.26</ele>
        <time>2013-12-24T08:40:50Z</time>
      </trkpt>
      <trkpt lat="41.617776261" lon="2.520099793">
        <ele>210.19</ele>
        <time>2013-12-24T08:40:58Z</time>
      </trkpt>
      <trkpt lat="41.617762514" lon="2.520105660">
        <ele>210.19</ele>
        <time>2013-12-24T08:40:59Z</time>
      </trkpt>
      <trkpt lat="41.617666374" lon="2.520263324">
        <ele>212.59</ele>
        <time>2013-12-24T08:41:08Z</time>
      </trkpt>
      <trkpt lat="41.617691520" lon="2.520443618">
        <ele>214.51</ele>
        <time>2013-12-24T08:41:16Z</time>
      </trkpt>
      <trkpt lat="41.617684311" lon="2.520506902">
        <ele>214.51</ele>
        <time>2013-12-24T08:41:19Z</time>
      </trkpt>
      <trkpt lat="41.617643324" lon="2.520664565">
        <ele>214.99</ele>
        <time>2013-12-24T08:41:26Z</time>
      </trkpt>
      <trkpt lat="41.617685149" lon="2.520889787">
        <ele>216.43</ele>
        <time>2013-12-24T08:41:35Z</time>
      </trkpt>
      <trkpt lat="41.617745248" lon="2.521097658">
        <ele>217.40</ele>
        <time>2013-12-24T08:41:44Z</time>
      </trkpt>
      <trkpt lat="41.617777853" lon="2.521232523">
        <ele>217.88</ele>
        <time>2013-12-24T08:41:50Z</time>
      </trkpt>
      <trkpt lat="41.617832503" lon="2.521429330">
        <ele>218.84</ele>
        <time>2013-12-24T08:41:58Z</time>
      </trkpt>
      <trkpt lat="41.617886315" lon="2.521596130">
        <ele>220.76</ele>
        <time>2013-12-24T08:42:06Z</time>
      </trkpt>
      <trkpt lat="41.617909114" lon="2.521643656">
        <ele>221.24</ele>
        <time>2013-12-24T08:42:09Z</time>
      </trkpt>
      <trkpt lat="41.617981450" lon="2.521613313">
        <ele>222.68</ele>
        <time>2013-12-24T08:42:14Z</time>
      </trkpt>
      <trkpt lat="41.618046912" lon="2.521449279">
        <ele>224.12</ele>
        <time>2013-12-24T08:42:23Z</time>
      </trkpt>
      <trkpt lat="41.618054540" lon="2.521433018">
        <ele>224.12</ele>
        <time>2013-12-24T08:42:24Z</time>
      </trkpt>
      <trkpt lat="41.618085050" lon="2.521369316">
        <ele>225.57</ele>
        <time>2013-12-24T08:42:28Z</time>
      </trkpt>
      <trkpt lat="41.618177670" lon="2.521202348">
        <ele>227.01</ele>
        <time>2013-12-24T08:42:39Z</time>
      </trkpt>
      <trkpt lat="41.618249754" lon="2.521066478">
        <ele>228.45</ele>
        <time>2013-12-24T08:42:48Z</time>
      </trkpt>
      <trkpt lat="41.618294514" lon="2.520927590">
        <ele>230.85</ele>
        <time>2013-12-24T08:42:56Z</time>
      </trkpt>
      <trkpt lat="41.618315636" lon="2.520832371">
        <ele>231.81</ele>
        <time>2013-12-24T08:43:02Z</time>
      </trkpt>
      <trkpt lat="41.618366682" lon="2.520683508">
        <ele>233.26</ele>
        <time>2013-12-24T08:43:10Z</time>
      </trkpt>
      <trkpt lat="41.618395935" lon="2.520639001">
        <ele>233.74</ele>
        <time>2013-12-24T08:43:13Z</time>
      </trkpt>
      <trkpt lat="41.618527279" lon="2.520585273">
        <ele>235.18</ele>
        <time>2013-12-24T08:43:24Z</time>
      </trkpt>
      <trkpt lat="41.618637585" lon="2.520569850">
        <ele>236.14</ele>
        <time>2013-12-24T08:43:32Z</time>
      </trkpt>
      <trkpt lat="41.618755518" lon="2.520538334">
        <ele>237.58</ele>
        <time>2013-12-24T08:43:40Z</time>
      </trkpt>
      <trkpt lat="41.618874374" lon="2.520466250">
        <ele>239.02</ele>
        <time>2013-12-24T08:43:49Z</time>
      </trkpt>
      <trkpt lat="41.618989374" lon="2.520408498">
        <ele>240.95</ele>
        <time>2013-12-24T08:43:58Z</time>
      </trkpt>
      <trkpt lat="41.619117281" lon="2.520327278">
        <ele>242.87</ele>
        <time>2013-12-24T08:44:08Z</time>
      </trkpt>
      <trkpt lat="41.619225911" lon="2.520273633">
        <ele>244.79</ele>
        <time>2013-12-24T08:44:17Z</time>
      </trkpt>
      <trkpt lat="41.619334876" lon="2.520285955">
        <ele>246.23</ele>
        <time>2013-12-24T08:44:25Z</time>
      </trkpt>
      <trkpt lat="41.619428501" lon="2.520326439">
        <ele>247.20</ele>
        <time>2013-12-24T08:44:32Z</time>
      </trkpt>
      <trkpt lat="41.619534030" lon="2.520330463">
        <ele>249.60</ele>
        <time>2013-12-24T08:44:40Z</time>
      </trkpt>
      <trkpt lat="41.619579627" lon="2.520315459">
        <ele>250.56</ele>
        <time>2013-12-24T08:44:44Z</time>
      </trkpt>
      <trkpt lat="41.619623381" lon="2.520294756">
        <ele>251.04</ele>
        <time>2013-12-24T08:44:48Z</time>
      </trkpt>
      <trkpt lat="41.619731088" lon="2.520255026">
        <ele>252.96</ele>
        <time>2013-12-24T08:44:56Z</time>
      </trkpt>
      <trkpt lat="41.619826977" lon="2.520210685">
        <ele>254.41</ele>
        <time>2013-12-24T08:45:04Z</time>
      </trkpt>
      <trkpt lat="41.619949940" lon="2.520133153">
        <ele>256.33</ele>
        <time>2013-12-24T08:45:14Z</time>
      </trkpt>
      <trkpt lat="41.620053037" lon="2.520076156">
        <ele>257.29</ele>
        <time>2013-12-24T08:45:22Z</time>
      </trkpt>
      <trkpt lat="41.620208102" lon="2.520074312">
        <ele>259.21</ele>
        <time>2013-12-24T08:45:34Z</time>
      </trkpt>
      <trkpt lat="41.620350175" lon="2.520099206">
        <ele>260.65</ele>
        <time>2013-12-24T08:45:44Z</time>
      </trkpt>
      <trkpt lat="41.620491075" lon="2.520144552">
        <ele>261.62</ele>
        <time>2013-12-24T08:45:54Z</time>
      </trkpt>
      <trkpt lat="41.620574475" lon="2.520147318">
        <ele>263.54</ele>
        <time>2013-12-24T08:46:01Z</time>
      </trkpt>
      <trkpt lat="41.620712441" lon="2.520168943">
        <ele>265.46</ele>
        <time>2013-12-24T08:46:11Z</time>
      </trkpt>
      <trkpt lat="41.620823837" lon="2.520186126">
        <ele>266.90</ele>
        <time>2013-12-24T08:46:19Z</time>
      </trkpt>
      <trkpt lat="41.620956690" lon="2.520220827">
        <ele>267.86</ele>
        <time>2013-12-24T08:46:28Z</time>
      </trkpt>
      <trkpt lat="41.621086861" lon="2.520252930">
        <ele>269.31</ele>
        <time>2013-12-24T08:46:37Z</time>
      </trkpt>
      <trkpt lat="41.621223151" lon="2.520274304">
        <ele>270.75</ele>
        <time>2013-12-24T08:46:46Z</time>
      </trkpt>
      <trkpt lat="41.621336809" lon="2.520290230">
        <ele>272.67</ele>
        <time>2013-12-24T08:46:54Z</time>
      </trkpt>
      <trkpt lat="41.621485085" lon="2.520321075">
        <ele>274.59</ele>
        <time>2013-12-24T08:47:05Z</time>
      </trkpt>
      <trkpt lat="41.621641072" lon="2.520363571">
        <ele>277.00</ele>
        <time>2013-12-24T08:47:16Z</time>
      </trkpt>
      <trkpt lat="41.621751043" lon="2.520377066">
        <ele>279.88</ele>
        <time>2013-12-24T08:47:25Z</time>
      </trkpt>
      <trkpt lat="41.621871156" lon="2.520401290">
        <ele>282.77</ele>
        <time>2013-12-24T08:47:35Z</time>
      </trkpt>
      <trkpt lat="41.621933349" lon="2.520411851">
        <ele>283.73</ele>
        <time>2013-12-24T08:47:40Z</time>
      </trkpt>
      <trkpt lat="41.622025718" lon="2.520401457">
        <ele>285.65</ele>
        <time>2013-12-24T08:47:47Z</time>
      </trkpt>
      <trkpt lat="41.622181370" lon="2.520367259">
        <ele>288.05</ele>
        <time>2013-12-24T08:47:58Z</time>
      </trkpt>
      <trkpt lat="41.622324700" lon="2.520339515">
        <ele>289.49</ele>
        <time>2013-12-24T08:48:07Z</time>
      </trkpt>
      <trkpt lat="41.622446573" lon="2.520369606">
        <ele>290.46</ele>
        <time>2013-12-24T08:48:16Z</time>
      </trkpt>
      <trkpt lat="41.622473228" lon="2.520409839">
        <ele>291.42</ele>
        <time>2013-12-24T08:48:19Z</time>
      </trkpt>
      <trkpt lat="41.622440455" lon="2.520497430">
        <ele>292.38</ele>
        <time>2013-12-24T08:48:25Z</time>
      </trkpt>
      <trkpt lat="41.622356049" lon="2.520517966">
        <ele>293.34</ele>
        <time>2013-12-24T08:48:31Z</time>
      </trkpt>
      <trkpt lat="41.622230572" lon="2.520598516">
        <ele>295.26</ele>
        <time>2013-12-24T08:48:41Z</time>
      </trkpt>
      <trkpt lat="41.622184890" lon="2.520637240">
        <ele>295.74</ele>
        <time>2013-12-24T08:48:45Z</time>
      </trkpt>
      <trkpt lat="41.622137113" lon="2.520671522">
        <ele>296.22</ele>
        <time>2013-12-24T08:48:49Z</time>
      </trkpt>
      <trkpt lat="41.622033345" lon="2.520760873">
        <ele>298.15</ele>
        <time>2013-12-24T08:48:59Z</time>
      </trkpt>
      <trkpt lat="41.621941899" lon="2.520842094">
        <ele>299.59</ele>
        <time>2013-12-24T08:49:07Z</time>
      </trkpt>
      <trkpt lat="41.621890853" lon="2.520873862">
        <ele>300.55</ele>
        <time>2013-12-24T08:49:11Z</time>
      </trkpt>
      <trkpt lat="41.621761437" lon="2.520997578">
        <ele>301.99</ele>
        <time>2013-12-24T08:49:22Z</time>
      </trkpt>
      <trkpt lat="41.621683066" lon="2.521056671">
        <ele>301.99</ele>
        <time>2013-12-24T08:49:28Z</time>
      </trkpt>
      <trkpt lat="41.621567312" lon="2.521037141">
        <ele>302.95</ele>
        <time>2013-12-24T08:49:36Z</time>
      </trkpt>
      <trkpt lat="41.621425657" lon="2.520986011">
        <ele>304.39</ele>
        <time>2013-12-24T08:49:46Z</time>
      </trkpt>
      <trkpt lat="41.621290206" lon="2.521003278">
        <ele>304.88</ele>
        <time>2013-12-24T08:49:55Z</time>
      </trkpt>
      <trkpt lat="41.621154587" lon="2.521038566">
        <ele>306.32</ele>
        <time>2013-12-24T08:50:05Z</time>
      </trkpt>
      <trkpt lat="41.621076300" lon="2.521089779">
        <ele>307.76</ele>
        <time>2013-12-24T08:50:12Z</time>
      </trkpt>
      <trkpt lat="41.621131117" lon="2.521137640">
        <ele>308.24</ele>
        <time>2013-12-24T08:50:18Z</time>
      </trkpt>
      <trkpt lat="41.621167243" lon="2.521132527">
        <ele>308.72</ele>
        <time>2013-12-24T08:50:21Z</time>
      </trkpt>
      <trkpt lat="41.621287272" lon="2.521177538">
        <ele>311.12</ele>
        <time>2013-12-24T08:50:32Z</time>
      </trkpt>
      <trkpt lat="41.621376037" lon="2.521289101">
        <ele>313.05</ele>
        <time>2013-12-24T08:50:41Z</time>
      </trkpt>
      <trkpt lat="41.621438566" lon="2.521384236">
        <ele>314.49</ele>
        <time>2013-12-24T08:50:48Z</time>
      </trkpt>
      <trkpt lat="41.621515176" lon="2.521509880">
        <ele>316.89</ele>
        <time>2013-12-24T08:50:57Z</time>
      </trkpt>
      <trkpt lat="41.621596397" lon="2.521640051">
        <ele>317.37</ele>
        <time>2013-12-24T08:51:05Z</time>
      </trkpt>
      <trkpt lat="41.621660016" lon="2.521760918">
        <ele>318.81</ele>
        <time>2013-12-24T08:51:13Z</time>
      </trkpt>
      <trkpt lat="41.621715839" lon="2.521894694">
        <ele>320.26</ele>
        <time>2013-12-24T08:51:22Z</time>
      </trkpt>
      <trkpt lat="41.621761604" lon="2.522011286">
        <ele>321.70</ele>
        <time>2013-12-24T08:51:30Z</time>
      </trkpt>
      <trkpt lat="41.621805106" lon="2.522120670">
        <ele>323.14</ele>
        <time>2013-12-24T08:51:37Z</time>
      </trkpt>
      <trkpt lat="41.621834778" lon="2.522181019">
        <ele>323.62</ele>
        <time>2013-12-24T08:51:41Z</time>
      </trkpt>
      <trkpt lat="41.621920022" lon="2.522247320">
        <ele>325.06</ele>
        <time>2013-12-24T08:51:50Z</time>
      </trkpt>
      <trkpt lat="41.621931924" lon="2.522222007">
        <ele>326.02</ele>
        <time>2013-12-24T08:51:52Z</time>
      </trkpt>
      <trkpt lat="41.621945252" lon="2.522182947">
        <ele>326.50</ele>
        <time>2013-12-24T08:51:55Z</time>
      </trkpt>
      <trkpt lat="41.621940977" lon="2.522058811">
        <ele>327.95</ele>
        <time>2013-12-24T08:52:03Z</time>
      </trkpt>
      <trkpt lat="41.621954136" lon="2.521932244">
        <ele>329.39</ele>
        <time>2013-12-24T08:52:11Z</time>
      </trkpt>
      <trkpt lat="41.621973918" lon="2.521766534">
        <ele>330.35</ele>
        <time>2013-12-24T08:52:19Z</time>
      </trkpt>
      <trkpt lat="41.622025299" lon="2.521586826">
        <ele>331.31</ele>
        <time>2013-12-24T08:52:29Z</time>
      </trkpt>
      <trkpt lat="41.622119931" lon="2.521487584">
        <ele>331.79</ele>
        <time>2013-12-24T08:52:38Z</time>
      </trkpt>
      <trkpt lat="41.622235936" lon="2.521527063">
        <ele>332.75</ele>
        <time>2013-12-24T08:52:46Z</time>
      </trkpt>
      <trkpt lat="41.622339453" lon="2.521626137">
        <ele>333.71</ele>
        <time>2013-12-24T08:52:55Z</time>
      </trkpt>
      <trkpt lat="41.622472473" lon="2.521749519">
        <ele>335.16</ele>
        <time>2013-12-24T08:53:05Z</time>
      </trkpt>
      <trkpt lat="41.622484459" lon="2.521756141">
        <ele>335.64</ele>
        <time>2013-12-24T08:53:06Z</time>
      </trkpt>
      <trkpt lat="41.622605410" lon="2.521836942">
        <ele>337.08</ele>
        <time>2013-12-24T08:53:16Z</time>
      </trkpt>
      <trkpt lat="41.622702305" lon="2.521861920">
        <ele>338.04</ele>
        <time>2013-12-24T08:53:23Z</time>
      </trkpt>
      <trkpt lat="41.622866674" lon="2.521860747">
        <ele>339.48</ele>
        <time>2013-12-24T08:53:34Z</time>
      </trkpt>
      <trkpt lat="41.623000701" lon="2.521827554">
        <ele>340.92</ele>
        <time>2013-12-24T08:53:44Z</time>
      </trkpt>
      <trkpt lat="41.623118215" lon="2.521796458">
        <ele>342.37</ele>
        <time>2013-12-24T08:53:52Z</time>
      </trkpt>
      <trkpt lat="41.623243441" lon="2.521873236">
        <ele>343.33</ele>
        <time>2013-12-24T08:54:00Z</time>
      </trkpt>
      <trkpt lat="41.623283842" lon="2.521925707">
        <ele>344.77</ele>
        <time>2013-12-24T08:54:03Z</time>
      </trkpt>
      <trkpt lat="41.623398590" lon="2.522069959">
        <ele>345.25</ele>
        <time>2013-12-24T08:54:12Z</time>
      </trkpt>
      <trkpt lat="41.623479810" lon="2.522159478">
        <ele>346.21</ele>
        <time>2013-12-24T08:54:18Z</time>
      </trkpt>
      <trkpt lat="41.623597325" lon="2.522288308">
        <ele>346.69</ele>
        <time>2013-12-24T08:54:27Z</time>
      </trkpt>
      <trkpt lat="41.623721880" lon="2.522385789">
        <ele>347.65</ele>
        <time>2013-12-24T08:54:35Z</time>
      </trkpt>
      <trkpt lat="41.623824977" lon="2.522468686">
        <ele>348.13</ele>
        <time>2013-12-24T08:54:42Z</time>
      </trkpt>
      <trkpt lat="41.623842412" lon="2.522480337">
        <ele>348.13</ele>
        <time>2013-12-24T08:54:43Z</time>
      </trkpt>
      <trkpt lat="41.623971577" lon="2.522628026">
        <ele>348.13</ele>
        <time>2013-12-24T08:54:52Z</time>
      </trkpt>
      <trkpt lat="41.624056402" lon="2.522796000">
        <ele>349.10</ele>
        <time>2013-12-24T08:55:00Z</time>
      </trkpt>
      <trkpt lat="41.624151033" lon="2.523012672">
        <ele>349.58</ele>
        <time>2013-12-24T08:55:09Z</time>
      </trkpt>
      <trkpt lat="41.624213646" lon="2.523244767">
        <ele>350.06</ele>
        <time>2013-12-24T08:55:18Z</time>
      </trkpt>
      <trkpt lat="41.624274163" lon="2.523488596">
        <ele>350.54</ele>
        <time>2013-12-24T08:55:27Z</time>
      </trkpt>
      <trkpt lat="41.624362676" lon="2.523718679">
        <ele>351.98</ele>
        <time>2013-12-24T08:55:37Z</time>
      </trkpt>
      <trkpt lat="41.624427385" lon="2.523860501">
        <ele>352.94</ele>
        <time>2013-12-24T08:55:44Z</time>
      </trkpt>
      <trkpt lat="41.624499637" lon="2.524015818">
        <ele>352.94</ele>
        <time>2013-12-24T08:55:51Z</time>
      </trkpt>
      <trkpt lat="41.624556298" lon="2.524188904">
        <ele>354.38</ele>
        <time>2013-12-24T08:55:59Z</time>
      </trkpt>
      <trkpt lat="41.624582534" lon="2.524252607">
        <ele>355.34</ele>
        <time>2013-12-24T08:56:02Z</time>
      </trkpt>
      <trkpt lat="41.624662329" lon="2.524445558">
        <ele>356.31</ele>
        <time>2013-12-24T08:56:10Z</time>
      </trkpt>
      <trkpt lat="41.624746484" lon="2.524656531">
        <ele>357.27</ele>
        <time>2013-12-24T08:56:19Z</time>
      </trkpt>
      <trkpt lat="41.624808594" lon="2.524827521">
        <ele>358.23</ele>
        <time>2013-12-24T08:56:26Z</time>
      </trkpt>
      <trkpt lat="41.624880427" lon="2.525023239">
        <ele>358.71</ele>
        <time>2013-12-24T08:56:34Z</time>
      </trkpt>
      <trkpt lat="41.624992493" lon="2.525204791">
        <ele>359.19</ele>
        <time>2013-12-24T08:56:42Z</time>
      </trkpt>
      <trkpt lat="41.625177565" lon="2.525410315">
        <ele>359.67</ele>
        <time>2013-12-24T08:56:52Z</time>
      </trkpt>
      <trkpt lat="41.625309915" lon="2.525581138">
        <ele>360.15</ele>
        <time>2013-12-24T08:57:00Z</time>
      </trkpt>
      <trkpt lat="41.625443523" lon="2.525800577">
        <ele>360.63</ele>
        <time>2013-12-24T08:57:10Z</time>
      </trkpt>
      <trkpt lat="41.625564390" lon="2.525989253">
        <ele>360.63</ele>
        <time>2013-12-24T08:57:18Z</time>
      </trkpt>
      <trkpt lat="41.625732028" lon="2.526145995">
        <ele>360.63</ele>
        <time>2013-12-24T08:57:26Z</time>
      </trkpt>
      <trkpt lat="41.625929422" lon="2.526286308">
        <ele>360.15</ele>
        <time>2013-12-24T08:57:34Z</time>
      </trkpt>
      <trkpt lat="41.626099071" lon="2.526473308">
        <ele>360.15</ele>
        <time>2013-12-24T08:57:43Z</time>
      </trkpt>
      <trkpt lat="41.626246090" lon="2.526695596">
        <ele>361.11</ele>
        <time>2013-12-24T08:57:52Z</time>
      </trkpt>
      <trkpt lat="41.626314067" lon="2.526891649">
        <ele>361.59</ele>
        <time>2013-12-24T08:58:00Z</time>
      </trkpt>
      <trkpt lat="41.626314403" lon="2.526916711">
        <ele>361.59</ele>
        <time>2013-12-24T08:58:01Z</time>
      </trkpt>
      <trkpt lat="41.626368717" lon="2.526992986">
        <ele>361.59</ele>
        <time>2013-12-24T08:58:06Z</time>
      </trkpt>
      <trkpt lat="41.626437952" lon="2.527116787">
        <ele>362.55</ele>
        <time>2013-12-24T08:58:13Z</time>
      </trkpt>
      <trkpt lat="41.626493524" lon="2.527192392">
        <ele>363.04</ele>
        <time>2013-12-24T08:58:17Z</time>
      </trkpt>
      <trkpt lat="41.626629394" lon="2.527320467">
        <ele>364.00</ele>
        <time>2013-12-24T08:58:25Z</time>
      </trkpt>
      <trkpt lat="41.626766774" lon="2.527290627">
        <ele>366.40</ele>
        <time>2013-12-24T08:58:34Z</time>
      </trkpt>
      <trkpt lat="41.626884875" lon="2.527329017">
        <ele>368.32</ele>
        <time>2013-12-24T08:58:42Z</time>
      </trkpt>
      <trkpt lat="41.626898956" lon="2.527330609">
        <ele>368.32</ele>
        <time>2013-12-24T08:58:43Z</time>
      </trkpt>
      <trkpt lat="41.626939944" lon="2.527346786">
        <ele>369.28</ele>
        <time>2013-12-24T08:58:46Z</time>
      </trkpt>
      <trkpt lat="41.627052094" lon="2.527379727">
        <ele>370.73</ele>
        <time>2013-12-24T08:58:54Z</time>
      </trkpt>
      <trkpt lat="41.627164914" lon="2.527419625">
        <ele>371.69</ele>
        <time>2013-12-24T08:59:01Z</time>
      </trkpt>
      <trkpt lat="41.627250493" lon="2.527471844">
        <ele>372.65</ele>
        <time>2013-12-24T08:59:06Z</time>
      </trkpt>
      <trkpt lat="41.627378401" lon="2.527541749">
        <ele>374.09</ele>
        <time>2013-12-24T08:59:14Z</time>
      </trkpt>
      <trkpt lat="41.627524079" lon="2.527631100">
        <ele>375.53</ele>
        <time>2013-12-24T08:59:22Z</time>
      </trkpt>
      <trkpt lat="41.627688029" lon="2.527744927">
        <ele>376.97</ele>
        <time>2013-12-24T08:59:30Z</time>
      </trkpt>
      <trkpt lat="41.627700685" lon="2.527753979">
        <ele>376.97</ele>
        <time>2013-12-24T08:59:31Z</time>
      </trkpt>
      <trkpt lat="41.627748965" lon="2.527786417">
        <ele>377.94</ele>
        <time>2013-12-24T08:59:35Z</time>
      </trkpt>
      <trkpt lat="41.627883746" lon="2.527857663">
        <ele>378.90</ele>
        <time>2013-12-24T08:59:43Z</time>
      </trkpt>
      <trkpt lat="41.628021796" lon="2.527961766">
        <ele>379.86</ele>
        <time>2013-12-24T08:59:51Z</time>
      </trkpt>
      <trkpt lat="41.628147357" lon="2.528084142">
        <ele>380.82</ele>
        <time>2013-12-24T08:59:59Z</time>
      </trkpt>
      <trkpt lat="41.628267554" lon="2.528192185">
        <ele>382.26</ele>
        <time>2013-12-24T09:00:06Z</time>
      </trkpt>
      <trkpt lat="41.628443909" lon="2.528377593">
        <ele>384.18</ele>
        <time>2013-12-24T09:00:16Z</time>
      </trkpt>
      <trkpt lat="41.628590173" lon="2.528572220">
        <ele>385.15</ele>
        <time>2013-12-24T09:00:25Z</time>
      </trkpt>
      <trkpt lat="41.628724870" lon="2.528844381">
        <ele>385.15</ele>
        <time>2013-12-24T09:00:34Z</time>
      </trkpt>
      <trkpt lat="41.628902902" lon="2.529214274">
        <ele>385.15</ele>
        <time>2013-12-24T09:00:44Z</time>
      </trkpt>
      <trkpt lat="41.628977249" lon="2.529376380">
        <ele>383.70</ele>
        <time>2013-12-24T09:00:48Z</time>
      </trkpt>
      <trkpt lat="41.629171626" lon="2.529739736">
        <ele>383.70</ele>
        <time>2013-12-24T09:00:57Z</time>
      </trkpt>
      <trkpt lat="41.629211440" lon="2.529848030">
        <ele>385.15</ele>
        <time>2013-12-24T09:01:00Z</time>
      </trkpt>
      <trkpt lat="41.629293918" lon="2.530117424">
        <ele>387.55</ele>
        <time>2013-12-24T09:01:09Z</time>
      </trkpt>
      <trkpt lat="41.629337336" lon="2.530348430">
        <ele>388.99</ele>
        <time>2013-12-24T09:01:17Z</time>
      </trkpt>
      <trkpt lat="41.629369355" lon="2.530613130">
        <ele>389.95</ele>
        <time>2013-12-24T09:01:26Z</time>
      </trkpt>
      <trkpt lat="41.629367595" lon="2.530845476">
        <ele>391.87</ele>
        <time>2013-12-24T09:01:34Z</time>
      </trkpt>
      <trkpt lat="41.629419562" lon="2.531134149">
        <ele>393.32</ele>
        <time>2013-12-24T09:01:44Z</time>
      </trkpt>
      <trkpt lat="41.629585943" lon="2.531317378">
        <ele>393.32</ele>
        <time>2013-12-24T09:01:51Z</time>
      </trkpt>
      <trkpt lat="41.629699099" lon="2.531389713">
        <ele>391.87</ele>
        <time>2013-12-24T09:01:54Z</time>
      </trkpt>
      <trkpt lat="41.629985425" lon="2.531530194">
        <ele>389.47</ele>
        <time>2013-12-24T09:02:00Z</time>
      </trkpt>
      <trkpt lat="41.630209473" lon="2.531623149">
        <ele>388.03</ele>
        <time>2013-12-24T09:02:04Z</time>
      </trkpt>
      <trkpt lat="41.630361437" lon="2.531627257">
        <ele>387.55</ele>
        <time>2013-12-24T09:02:07Z</time>
      </trkpt>
      <trkpt lat="41.630733258" lon="2.531471772">
        <ele>386.59</ele>
        <time>2013-12-24T09:02:15Z</time>
      </trkpt>
      <trkpt lat="41.630776425" lon="2.531449644">
        <ele>386.59</ele>
        <time>2013-12-24T09:02:16Z</time>
      </trkpt>
      <trkpt lat="41.631006173" lon="2.531420475">
        <ele>386.11</ele>
        <time>2013-12-24T09:02:21Z</time>
      </trkpt>
      <trkpt lat="41.631164339" lon="2.531474203">
        <ele>386.11</ele>
        <time>2013-12-24T09:02:25Z</time>
      </trkpt>
      <trkpt lat="41.631376737" lon="2.531443609">
        <ele>385.63</ele>
        <time>2013-12-24T09:02:31Z</time>
      </trkpt>
      <trkpt lat="41.631606066" lon="2.531108836">
        <ele>384.18</ele>
        <time>2013-12-24T09:02:39Z</time>
      </trkpt>
      <trkpt lat="41.631807902" lon="2.530771045">
        <ele>383.70</ele>
        <time>2013-12-24T09:02:47Z</time>
      </trkpt>
      <trkpt lat="41.631974031" lon="2.530515397">
        <ele>381.30</ele>
        <time>2013-12-24T09:02:54Z</time>
      </trkpt>
      <trkpt lat="41.632090623" lon="2.530578597">
        <ele>380.34</ele>
        <time>2013-12-24T09:02:59Z</time>
      </trkpt>
      <trkpt lat="41.632229512" lon="2.530717904">
        <ele>378.42</ele>
        <time>2013-12-24T09:03:03Z</time>
      </trkpt>
      <trkpt lat="41.632525393" lon="2.531015294">
        <ele>377.94</ele>
        <time>2013-12-24T09:03:11Z</time>
      </trkpt>
      <trkpt lat="41.632655061" lon="2.531156277">
        <ele>377.45</ele>
        <time>2013-12-24T09:03:15Z</time>
      </trkpt>
      <trkpt lat="41.632800990" lon="2.531323413">
        <ele>376.49</ele>
        <time>2013-12-24T09:03:19Z</time>
      </trkpt>
      <trkpt lat="41.633051944" lon="2.531712752">
        <ele>375.53</ele>
        <time>2013-12-24T09:03:28Z</time>
      </trkpt>
      <trkpt lat="41.633084801" lon="2.531768743">
        <ele>376.97</ele>
        <time>2013-12-24T09:03:30Z</time>
      </trkpt>
      <trkpt lat="41.633176080" lon="2.531977201">
        <ele>378.42</ele>
        <time>2013-12-24T09:03:38Z</time>
      </trkpt>
      <trkpt lat="41.633204159" lon="2.532240309">
        <ele>379.86</ele>
        <time>2013-12-24T09:03:48Z</time>
      </trkpt>
      <trkpt lat="41.633217654" lon="2.532468464">
        <ele>382.26</ele>
        <time>2013-12-24T09:03:57Z</time>
      </trkpt>
      <trkpt lat="41.633212709" lon="2.532644987">
        <ele>384.66</ele>
        <time>2013-12-24T09:04:04Z</time>
      </trkpt>
      <trkpt lat="41.633216900" lon="2.532688573">
        <ele>385.15</ele>
        <time>2013-12-24T09:04:06Z</time>
      </trkpt>
      <trkpt lat="41.633267191" lon="2.532773901">
        <ele>385.63</ele>
        <time>2013-12-24T09:04:11Z</time>
      </trkpt>
      <trkpt lat="41.633374815" lon="2.532908095">
        <ele>384.66</ele>
        <time>2013-12-24T09:04:17Z</time>
      </trkpt>
      <trkpt lat="41.633494928" lon="2.533090485">
        <ele>381.30</ele>
        <time>2013-12-24T09:04:23Z</time>
      </trkpt>
      <trkpt lat="41.633592074" lon="2.533269020">
        <ele>377.94</ele>
        <time>2013-12-24T09:04:28Z</time>
      </trkpt>
      <trkpt lat="41.633667427" lon="2.533398185">
        <ele>376.97</ele>
        <time>2013-12-24T09:04:31Z</time>
      </trkpt>
      <trkpt lat="41.633829198" lon="2.533548724">
        <ele>376.01</ele>
        <time>2013-12-24T09:04:37Z</time>
      </trkpt>
      <trkpt lat="41.633845375" lon="2.533556938">
        <ele>376.01</ele>
        <time>2013-12-24T09:04:38Z</time>
      </trkpt>
      <trkpt lat="41.633876556" lon="2.533571690">
        <ele>377.45</ele>
        <time>2013-12-24T09:04:40Z</time>
      </trkpt>
      <trkpt lat="41.633907066" lon="2.533585437">
        <ele>377.94</ele>
        <time>2013-12-24T09:04:42Z</time>
      </trkpt>
      <trkpt lat="41.633982838" lon="2.533550903">
        <ele>378.42</ele>
        <time>2013-12-24T09:04:46Z</time>
      </trkpt>
      <trkpt lat="41.634100604" lon="2.533506479">
        <ele>376.97</ele>
        <time>2013-12-24T09:04:52Z</time>
      </trkpt>
      <trkpt lat="41.634244102" lon="2.533467000">
        <ele>375.05</ele>
        <time>2013-12-24T09:04:57Z</time>
      </trkpt>
      <trkpt lat="41.634443424" lon="2.533516621">
        <ele>373.61</ele>
        <time>2013-12-24T09:05:03Z</time>
      </trkpt>
      <trkpt lat="41.634590610" lon="2.533412937">
        <ele>372.65</ele>
        <time>2013-12-24T09:05:07Z</time>
      </trkpt>
      <trkpt lat="41.634629753" lon="2.533106495">
        <ele>370.73</ele>
        <time>2013-12-24T09:05:14Z</time>
      </trkpt>
      <trkpt lat="41.634592957" lon="2.532806842">
        <ele>368.80</ele>
        <time>2013-12-24T09:05:20Z</time>
      </trkpt>
      <trkpt lat="41.634591532" lon="2.532654207">
        <ele>367.36</ele>
        <time>2013-12-24T09:05:23Z</time>
      </trkpt>
      <trkpt lat="41.634591280" lon="2.532318009">
        <ele>365.44</ele>
        <time>2013-12-24T09:05:29Z</time>
      </trkpt>
      <trkpt lat="41.634689265" lon="2.532083148">
        <ele>365.44</ele>
        <time>2013-12-24T09:05:35Z</time>
      </trkpt>
      <trkpt lat="41.634780795" lon="2.531920204">
        <ele>366.88</ele>
        <time>2013-12-24T09:05:41Z</time>
      </trkpt>
      <trkpt lat="41.634896046" lon="2.531797409">
        <ele>368.80</ele>
        <time>2013-12-24T09:05:48Z</time>
      </trkpt>
      <trkpt lat="41.634951535" lon="2.531778047">
        <ele>369.76</ele>
        <time>2013-12-24T09:05:51Z</time>
      </trkpt>
      <trkpt lat="41.635105594" lon="2.531885503">
        <ele>372.17</ele>
        <time>2013-12-24T09:05:59Z</time>
      </trkpt>
      <trkpt lat="41.635211038" lon="2.532007124">
        <ele>372.65</ele>
        <time>2013-12-24T09:06:06Z</time>
      </trkpt>
      <trkpt lat="41.635340623" lon="2.532151628">
        <ele>373.13</ele>
        <time>2013-12-24T09:06:14Z</time>
      </trkpt>
      <trkpt lat="41.635507758" lon="2.532096895">
        <ele>373.13</ele>
        <time>2013-12-24T09:06:21Z</time>
      </trkpt>
      <trkpt lat="41.635538603" lon="2.531919031">
        <ele>373.13</ele>
        <time>2013-12-24T09:06:26Z</time>
      </trkpt>
      <trkpt lat="41.635577998" lon="2.531665646">
        <ele>373.13</ele>
        <time>2013-12-24T09:06:33Z</time>
      </trkpt>
      <trkpt lat="41.635613370" lon="2.531442939">
        <ele>375.05</ele>
        <time>2013-12-24T09:06:41Z</time>
      </trkpt>
      <trkpt lat="41.635651172" lon="2.531271529">
        <ele>376.97</ele>
        <time>2013-12-24T09:06:48Z</time>
      </trkpt>
      <trkpt lat="41.635703224" lon="2.531106321">
        <ele>378.90</ele>
        <time>2013-12-24T09:06:55Z</time>
      </trkpt>
      <trkpt lat="41.635818726" lon="2.530948155">
        <ele>379.86</ele>
        <time>2013-12-24T09:07:03Z</time>
      </trkpt>
      <trkpt lat="41.635993908" lon="2.530897780">
        <ele>381.30</ele>
        <time>2013-12-24T09:07:12Z</time>
      </trkpt>
      <trkpt lat="41.636175795" lon="2.530867353">
        <ele>382.26</ele>
        <time>2013-12-24T09:07:21Z</time>
      </trkpt>
      <trkpt lat="41.636268080" lon="2.530984197">
        <ele>382.26</ele>
        <time>2013-12-24T09:07:27Z</time>
      </trkpt>
      <trkpt lat="41.636293645" lon="2.531041613">
        <ele>382.26</ele>
        <time>2013-12-24T09:07:29Z</time>
      </trkpt>
      <trkpt lat="41.636301775" lon="2.531313270">
        <ele>382.26</ele>
        <time>2013-12-24T09:07:38Z</time>
      </trkpt>
      <trkpt lat="41.636304206" lon="2.531582078">
        <ele>382.26</ele>
        <time>2013-12-24T09:07:47Z</time>
      </trkpt>
      <trkpt lat="41.636343936" lon="2.531788189">
        <ele>380.82</ele>
        <time>2013-12-24T09:07:53Z</time>
      </trkpt>
      <trkpt lat="41.636415434" lon="2.531999497">
        <ele>380.82</ele>
        <time>2013-12-24T09:08:01Z</time>
      </trkpt>
      <trkpt lat="41.636496990" lon="2.532219019">
        <ele>380.82</ele>
        <time>2013-12-24T09:08:09Z</time>
      </trkpt>
      <trkpt lat="41.636462205" lon="2.532430494">
        <ele>382.26</ele>
        <time>2013-12-24T09:08:16Z</time>
      </trkpt>
      <trkpt lat="41.636385511" lon="2.532699386">
        <ele>382.26</ele>
        <time>2013-12-24T09:08:24Z</time>
      </trkpt>
      <trkpt lat="41.636413003" lon="2.532862749">
        <ele>382.26</ele>
        <time>2013-12-24T09:08:29Z</time>
      </trkpt>
      <trkpt lat="41.636562956" lon="2.533022760">
        <ele>382.26</ele>
        <time>2013-12-24T09:08:37Z</time>
      </trkpt>
      <trkpt lat="41.636686253" lon="2.533227613">
        <ele>382.26</ele>
        <time>2013-12-24T09:08:44Z</time>
      </trkpt>
      <trkpt lat="41.636694635" lon="2.533452081">
        <ele>382.26</ele>
        <time>2013-12-24T09:08:51Z</time>
      </trkpt>
      <trkpt lat="41.636633280" lon="2.533704041">
        <ele>382.26</ele>
        <time>2013-12-24T09:08:59Z</time>
      </trkpt>
      <trkpt lat="41.636558094" lon="2.533882156">
        <ele>382.26</ele>
        <time>2013-12-24T09:09:06Z</time>
      </trkpt>
      <trkpt lat="41.636543258" lon="2.533907134">
        <ele>382.26</ele>
        <time>2013-12-24T09:09:07Z</time>
      </trkpt>
      <trkpt lat="41.636565805" lon="2.534066977">
        <ele>381.78</ele>
        <time>2013-12-24T09:09:13Z</time>
      </trkpt>
      <trkpt lat="41.636599082" lon="2.534094889">
        <ele>381.78</ele>
        <time>2013-12-24T09:09:15Z</time>
      </trkpt>
      <trkpt lat="41.636831093" lon="2.534196478">
        <ele>380.34</ele>
        <time>2013-12-24T09:09:24Z</time>
      </trkpt>
      <trkpt lat="41.637046005" lon="2.534348777">
        <ele>378.90</ele>
        <time>2013-12-24T09:09:31Z</time>
      </trkpt>
      <trkpt lat="41.637277597" lon="2.534519013">
        <ele>377.94</ele>
        <time>2013-12-24T09:09:38Z</time>
      </trkpt>
      <trkpt lat="41.637553361" lon="2.534629068">
        <ele>376.97</ele>
        <time>2013-12-24T09:09:46Z</time>
      </trkpt>
      <trkpt lat="41.637717395" lon="2.534824701">
        <ele>376.01</ele>
        <time>2013-12-24T09:09:52Z</time>
      </trkpt>
      <trkpt lat="41.637814541" lon="2.534943557">
        <ele>375.05</ele>
        <time>2013-12-24T09:09:57Z</time>
      </trkpt>
      <trkpt lat="41.637912023" lon="2.534919500">
        <ele>374.57</ele>
        <time>2013-12-24T09:10:01Z</time>
      </trkpt>
      <trkpt lat="41.638061724" lon="2.534786647">
        <ele>373.13</ele>
        <time>2013-12-24T09:10:07Z</time>
      </trkpt>
      <trkpt lat="41.638199354" lon="2.534657482">
        <ele>373.13</ele>
        <time>2013-12-24T09:10:13Z</time>
      </trkpt>
      <trkpt lat="41.638422145" lon="2.534607945">
        <ele>372.65</ele>
        <time>2013-12-24T09:10:20Z</time>
      </trkpt>
      <trkpt lat="41.638603530" lon="2.534694363">
        <ele>372.17</ele>
        <time>2013-12-24T09:10:26Z</time>
      </trkpt>
      <trkpt lat="41.638850545" lon="2.534830149">
        <ele>371.69</ele>
        <time>2013-12-24T09:10:34Z</time>
      </trkpt>
      <trkpt lat="41.639066798" lon="2.534940958">
        <ele>371.69</ele>
        <time>2013-12-24T09:10:42Z</time>
      </trkpt>
      <trkpt lat="41.639225467" lon="2.534848338">
        <ele>371.69</ele>
        <time>2013-12-24T09:10:49Z</time>
      </trkpt>
      <trkpt lat="41.639350274" lon="2.534622278">
        <ele>373.13</ele>
        <time>2013-12-24T09:10:57Z</time>
      </trkpt>
      <trkpt lat="41.639457981" lon="2.534418095">
        <ele>374.57</ele>
        <time>2013-12-24T09:11:04Z</time>
      </trkpt>
      <trkpt lat="41.639584380" lon="2.534301838">
        <ele>376.01</ele>
        <time>2013-12-24T09:11:11Z</time>
      </trkpt>
      <trkpt lat="41.639651603" lon="2.534291947">
        <ele>376.49</ele>
        <time>2013-12-24T09:11:14Z</time>
      </trkpt>
      <trkpt lat="41.639763166" lon="2.534363780">
        <ele>376.49</ele>
        <time>2013-12-24T09:11:18Z</time>
      </trkpt>
      <trkpt lat="41.639913621" lon="2.534475427">
        <ele>375.05</ele>
        <time>2013-12-24T09:11:22Z</time>
      </trkpt>
      <trkpt lat="41.639991322" lon="2.534485653">
        <ele>374.57</ele>
        <time>2013-12-24T09:11:24Z</time>
      </trkpt>
      <trkpt lat="41.640261806" lon="2.534528066">
        <ele>374.57</ele>
        <time>2013-12-24T09:11:33Z</time>
      </trkpt>
      <trkpt lat="41.640364484" lon="2.534557738">
        <ele>375.53</ele>
        <time>2013-12-24T09:11:37Z</time>
      </trkpt>
      <trkpt lat="41.640606805" lon="2.534653459">
        <ele>376.97</ele>
        <time>2013-12-24T09:11:47Z</time>
      </trkpt>
      <trkpt lat="41.640801181" lon="2.534642898">
        <ele>377.94</ele>
        <time>2013-12-24T09:11:55Z</time>
      </trkpt>
      <trkpt lat="41.641033695" lon="2.534609789">
        <ele>379.38</ele>
        <time>2013-12-24T09:12:04Z</time>
      </trkpt>
      <trkpt lat="41.641175182" lon="2.534625799">
        <ele>381.30</ele>
        <time>2013-12-24T09:12:11Z</time>
      </trkpt>
      <trkpt lat="41.641335108" lon="2.534599982">
        <ele>382.74</ele>
        <time>2013-12-24T09:12:18Z</time>
      </trkpt>
      <trkpt lat="41.641445582" lon="2.534534687">
        <ele>385.15</ele>
        <time>2013-12-24T09:12:23Z</time>
      </trkpt>
      <trkpt lat="41.641513391" lon="2.534426393">
        <ele>385.15</ele>
        <time>2013-12-24T09:12:28Z</time>
      </trkpt>
      <trkpt lat="41.641562761" lon="2.534259593">
        <ele>385.15</ele>
        <time>2013-12-24T09:12:36Z</time>
      </trkpt>
      <trkpt lat="41.641615064" lon="2.534149790">
        <ele>386.59</ele>
        <time>2013-12-24T09:12:43Z</time>
      </trkpt>
      <trkpt lat="41.641704415" lon="2.534044346">
        <ele>387.55</ele>
        <time>2013-12-24T09:12:50Z</time>
      </trkpt>
      <trkpt lat="41.641813380" lon="2.533977710">
        <ele>388.51</ele>
        <time>2013-12-24T09:12:57Z</time>
      </trkpt>
      <trkpt lat="41.641918908" lon="2.533899255">
        <ele>389.95</ele>
        <time>2013-12-24T09:13:05Z</time>
      </trkpt>
      <trkpt lat="41.642001805" lon="2.533794817">
        <ele>390.91</ele>
        <time>2013-12-24T09:13:12Z</time>
      </trkpt>
      <trkpt lat="41.642077661" lon="2.533562387">
        <ele>390.91</ele>
        <time>2013-12-24T09:13:20Z</time>
      </trkpt>
      <trkpt lat="41.642093335" lon="2.533445543">
        <ele>389.47</ele>
        <time>2013-12-24T09:13:23Z</time>
      </trkpt>
      <trkpt lat="41.642090318" lon="2.533194840">
        <ele>387.07</ele>
        <time>2013-12-24T09:13:28Z</time>
      </trkpt>
      <trkpt lat="41.642082271" lon="2.533069447">
        <ele>386.11</ele>
        <time>2013-12-24T09:13:30Z</time>
      </trkpt>
      <trkpt lat="41.642095431" lon="2.532890828">
        <ele>384.18</ele>
        <time>2013-12-24T09:13:33Z</time>
      </trkpt>
      <trkpt lat="41.642200707" lon="2.532703074">
        <ele>382.26</ele>
        <time>2013-12-24T09:13:37Z</time>
      </trkpt>
      <trkpt lat="41.642273295" lon="2.532638282">
        <ele>381.78</ele>
        <time>2013-12-24T09:13:39Z</time>
      </trkpt>
      <trkpt lat="41.642366837" lon="2.532427561">
        <ele>379.86</ele>
        <time>2013-12-24T09:13:44Z</time>
      </trkpt>
      <trkpt lat="41.642379829" lon="2.532129752">
        <ele>378.42</ele>
        <time>2013-12-24T09:13:50Z</time>
      </trkpt>
      <trkpt lat="41.642415955" lon="2.531948870">
        <ele>377.45</ele>
        <time>2013-12-24T09:13:56Z</time>
      </trkpt>
      <trkpt lat="41.642544030" lon="2.531826913">
        <ele>375.53</ele>
        <time>2013-12-24T09:14:01Z</time>
      </trkpt>
      <trkpt lat="41.642612343" lon="2.531792632">
        <ele>375.05</ele>
        <time>2013-12-24T09:14:06Z</time>
      </trkpt>
      <trkpt lat="41.642615025" lon="2.531795733">
        <ele>374.57</ele>
        <time>2013-12-24T09:14:14Z</time>
      </trkpt>
      <trkpt lat="41.642626173" lon="2.531798583">
        <ele>374.57</ele>
        <time>2013-12-24T09:14:29Z</time>
      </trkpt>
      <trkpt lat="41.642631286" lon="2.531803947">
        <ele>374.57</ele>
        <time>2013-12-24T09:14:45Z</time>
      </trkpt>
      <trkpt lat="41.642623407" lon="2.531809982">
        <ele>374.57</ele>
        <time>2013-12-24T09:15:00Z</time>
      </trkpt>
      <trkpt lat="41.642602284" lon="2.531810988">
        <ele>374.09</ele>
        <time>2013-12-24T09:15:19Z</time>
      </trkpt>
      <trkpt lat="41.642622820" lon="2.531807467">
        <ele>374.09</ele>
        <time>2013-12-24T09:15:31Z</time>
      </trkpt>
      <trkpt lat="41.642632878" lon="2.531808138">
        <ele>374.09</ele>
        <time>2013-12-24T09:15:47Z</time>
      </trkpt>
      <trkpt lat="41.642642015" lon="2.531774946">
        <ele>374.09</ele>
        <time>2013-12-24T09:16:06Z</time>
      </trkpt>
      <trkpt lat="41.642639081" lon="2.531780142">
        <ele>374.09</ele>
        <time>2013-12-24T09:16:18Z</time>
      </trkpt>
      <trkpt lat="41.642656683" lon="2.531777963">
        <ele>374.09</ele>
        <time>2013-12-24T09:16:27Z</time>
      </trkpt>
      <trkpt lat="41.642659784" lon="2.531775616">
        <ele>373.61</ele>
        <time>2013-12-24T09:16:37Z</time>
      </trkpt>
      <trkpt lat="41.642654252" lon="2.531793637">
        <ele>373.61</ele>
        <time>2013-12-24T09:17:00Z</time>
      </trkpt>
      <trkpt lat="41.642643859" lon="2.531790117">
        <ele>373.61</ele>
        <time>2013-12-24T09:17:22Z</time>
      </trkpt>
      <trkpt lat="41.642635812" lon="2.531790620">
        <ele>373.61</ele>
        <time>2013-12-24T09:17:41Z</time>
      </trkpt>
      <trkpt lat="41.642647630" lon="2.531786429">
        <ele>373.61</ele>
        <time>2013-12-24T09:18:04Z</time>
      </trkpt>
      <trkpt lat="41.642653498" lon="2.531775113">
        <ele>373.61</ele>
        <time>2013-12-24T09:18:22Z</time>
      </trkpt>
      <trkpt lat="41.642657437" lon="2.531771425">
        <ele>373.61</ele>
        <time>2013-12-24T09:18:39Z</time>
      </trkpt>
      <trkpt lat="41.642650061" lon="2.531773856">
        <ele>373.61</ele>
        <time>2013-12-24T09:18:54Z</time>
      </trkpt>
      <trkpt lat="41.642639668" lon="2.531798080">
        <ele>373.61</ele>
        <time>2013-12-24T09:19:10Z</time>
      </trkpt>
      <trkpt lat="41.642648133" lon="2.531789363">
        <ele>373.61</ele>
        <time>2013-12-24T09:19:26Z</time>
      </trkpt>
      <trkpt lat="41.642664813" lon="2.531790787">
        <ele>373.61</ele>
        <time>2013-12-24T09:19:43Z</time>
      </trkpt>
      <trkpt lat="41.642688618" lon="2.531792464">
        <ele>373.61</ele>
        <time>2013-12-24T09:19:53Z</time>
      </trkpt>
      <trkpt lat="41.642703873" lon="2.531785172">
        <ele>373.13</ele>
        <time>2013-12-24T09:20:01Z</time>
      </trkpt>
      <trkpt lat="41.642831110" lon="2.531683918">
        <ele>370.73</ele>
        <time>2013-12-24T09:20:07Z</time>
      </trkpt>
      <trkpt lat="41.642985002" lon="2.531576546">
        <ele>369.28</ele>
        <time>2013-12-24T09:20:14Z</time>
      </trkpt>
      <trkpt lat="41.643136295" lon="2.531585431">
        <ele>365.92</ele>
        <time>2013-12-24T09:20:21Z</time>
      </trkpt>
      <trkpt lat="41.643291025" lon="2.531606134">
        <ele>363.52</ele>
        <time>2013-12-24T09:20:27Z</time>
      </trkpt>
      <trkpt lat="41.643314830" lon="2.531610409">
        <ele>363.04</ele>
        <time>2013-12-24T09:20:32Z</time>
      </trkpt>
      <trkpt lat="41.643313154" lon="2.531602195">
        <ele>363.04</ele>
        <time>2013-12-24T09:20:43Z</time>
      </trkpt>
      <trkpt lat="41.643341568" lon="2.531615857">
        <ele>363.04</ele>
        <time>2013-12-24T09:20:56Z</time>
      </trkpt>
      <trkpt lat="41.643339557" lon="2.531625832">
        <ele>363.04</ele>
        <time>2013-12-24T09:21:08Z</time>
      </trkpt>
      <trkpt lat="41.643391105" lon="2.531631783">
        <ele>363.04</ele>
        <time>2013-12-24T09:21:19Z</time>
      </trkpt>
      <trkpt lat="41.643491604" lon="2.531661455">
        <ele>362.55</ele>
        <time>2013-12-24T09:21:23Z</time>
      </trkpt>
      <trkpt lat="41.643741050" lon="2.531663299">
        <ele>361.11</ele>
        <time>2013-12-24T09:21:30Z</time>
      </trkpt>
      <trkpt lat="41.644075152" lon="2.531732701">
        <ele>356.79</ele>
        <time>2013-12-24T09:21:38Z</time>
      </trkpt>
      <trkpt lat="41.644173724" lon="2.531723481">
        <ele>355.34</ele>
        <time>2013-12-24T09:21:41Z</time>
      </trkpt>
      <trkpt lat="41.644324179" lon="2.531669501">
        <ele>353.42</ele>
        <time>2013-12-24T09:21:46Z</time>
      </trkpt>
      <trkpt lat="41.644340943" lon="2.531594819">
        <ele>351.98</ele>
        <time>2013-12-24T09:21:52Z</time>
      </trkpt>
      <trkpt lat="41.644250753" lon="2.531577133">
        <ele>351.02</ele>
        <time>2013-12-24T09:21:56Z</time>
      </trkpt>
      <trkpt lat="41.643975408" lon="2.531488788">
        <ele>349.10</ele>
        <time>2013-12-24T09:22:04Z</time>
      </trkpt>
      <trkpt lat="41.643734260" lon="2.531388875">
        <ele>349.10</ele>
        <time>2013-12-24T09:22:11Z</time>
      </trkpt>
      <trkpt lat="41.643572238" lon="2.531295836">
        <ele>348.13</ele>
        <time>2013-12-24T09:22:17Z</time>
      </trkpt>
      <trkpt lat="41.643464615" lon="2.531039937">
        <ele>347.17</ele>
        <time>2013-12-24T09:22:24Z</time>
      </trkpt>
      <trkpt lat="41.643397643" lon="2.530772470">
        <ele>346.21</ele>
        <time>2013-12-24T09:22:30Z</time>
      </trkpt>
      <trkpt lat="41.643400744" lon="2.530560995">
        <ele>346.21</ele>
        <time>2013-12-24T09:22:36Z</time>
      </trkpt>
      <trkpt lat="41.643395212" lon="2.530503662">
        <ele>347.17</ele>
        <time>2013-12-24T09:22:38Z</time>
      </trkpt>
      <trkpt lat="41.643352632" lon="2.530404421">
        <ele>349.58</ele>
        <time>2013-12-24T09:22:43Z</time>
      </trkpt>
      <trkpt lat="41.643270909" lon="2.530298222">
        <ele>351.98</ele>
        <time>2013-12-24T09:22:51Z</time>
      </trkpt>
      <trkpt lat="41.643207877" lon="2.530161346">
        <ele>354.38</ele>
        <time>2013-12-24T09:23:00Z</time>
      </trkpt>
      <trkpt lat="41.643156244" lon="2.529985326">
        <ele>355.83</ele>
        <time>2013-12-24T09:23:09Z</time>
      </trkpt>
      <trkpt lat="41.643086507" lon="2.529900920">
        <ele>357.75</ele>
        <time>2013-12-24T09:23:17Z</time>
      </trkpt>
      <trkpt lat="41.643005873" lon="2.529826991">
        <ele>360.15</ele>
        <time>2013-12-24T09:23:25Z</time>
      </trkpt>
      <trkpt lat="41.642964634" lon="2.529748202">
        <ele>361.59</ele>
        <time>2013-12-24T09:23:32Z</time>
      </trkpt>
      <trkpt lat="41.642899758" lon="2.529654240">
        <ele>362.55</ele>
        <time>2013-12-24T09:23:40Z</time>
      </trkpt>
      <trkpt lat="41.642817029" lon="2.529568829">
        <ele>364.96</ele>
        <time>2013-12-24T09:23:49Z</time>
      </trkpt>
      <trkpt lat="41.642762127" lon="2.529480316">
        <ele>366.40</ele>
        <time>2013-12-24T09:23:56Z</time>
      </trkpt>
      <trkpt lat="41.642707142" lon="2.529367495">
        <ele>368.32</ele>
        <time>2013-12-24T09:24:05Z</time>
      </trkpt>
      <trkpt lat="41.642666574" lon="2.529245958">
        <ele>371.21</ele>
        <time>2013-12-24T09:24:14Z</time>
      </trkpt>
      <trkpt lat="41.642628436" lon="2.529162390">
        <ele>372.17</ele>
        <time>2013-12-24T09:24:20Z</time>
      </trkpt>
      <trkpt lat="41.642616534" lon="2.529076643">
        <ele>372.65</ele>
        <time>2013-12-24T09:24:25Z</time>
      </trkpt>
      <trkpt lat="41.642614354" lon="2.529009588">
        <ele>372.65</ele>
        <time>2013-12-24T09:24:29Z</time>
      </trkpt>
      <trkpt lat="41.642622233" lon="2.528864330">
        <ele>372.65</ele>
        <time>2013-12-24T09:24:39Z</time>
      </trkpt>
      <trkpt lat="41.642619803" lon="2.528786294">
        <ele>373.13</ele>
        <time>2013-12-24T09:24:44Z</time>
      </trkpt>
      <trkpt lat="41.642622652" lon="2.528739607">
        <ele>373.13</ele>
        <time>2013-12-24T09:24:47Z</time>
      </trkpt>
      <trkpt lat="41.642644697" lon="2.528648999">
        <ele>373.61</ele>
        <time>2013-12-24T09:24:53Z</time>
      </trkpt>
      <trkpt lat="41.642679733" lon="2.528558055">
        <ele>373.61</ele>
        <time>2013-12-24T09:24:58Z</time>
      </trkpt>
      <trkpt lat="41.642733629" lon="2.528339874">
        <ele>370.24</ele>
        <time>2013-12-24T09:25:05Z</time>
      </trkpt>
      <trkpt lat="41.642776796" lon="2.528231077">
        <ele>368.80</ele>
        <time>2013-12-24T09:25:08Z</time>
      </trkpt>
      <trkpt lat="41.642886096" lon="2.528078107">
        <ele>367.36</ele>
        <time>2013-12-24T09:25:12Z</time>
      </trkpt>
      <trkpt lat="41.642921132" lon="2.528007532">
        <ele>366.88</ele>
        <time>2013-12-24T09:25:14Z</time>
      </trkpt>
      <trkpt lat="41.642933789" lon="2.527780801">
        <ele>364.48</ele>
        <time>2013-12-24T09:25:21Z</time>
      </trkpt>
      <trkpt lat="41.642937644" lon="2.527745765">
        <ele>364.00</ele>
        <time>2013-12-24T09:25:22Z</time>
      </trkpt>
      <trkpt lat="41.643007382" lon="2.527498163">
        <ele>363.04</ele>
        <time>2013-12-24T09:25:30Z</time>
      </trkpt>
      <trkpt lat="41.643063876" lon="2.527330525">
        <ele>359.67</ele>
        <time>2013-12-24T09:25:36Z</time>
      </trkpt>
      <trkpt lat="41.643065887" lon="2.527307140">
        <ele>359.67</ele>
        <time>2013-12-24T09:25:37Z</time>
      </trkpt>
      <trkpt lat="41.643049291" lon="2.527164899">
        <ele>356.79</ele>
        <time>2013-12-24T09:25:42Z</time>
      </trkpt>
      <trkpt lat="41.643106121" lon="2.527023915">
        <ele>353.42</ele>
        <time>2013-12-24T09:25:48Z</time>
      </trkpt>
      <trkpt lat="41.643163285" lon="2.526969517">
        <ele>351.50</ele>
        <time>2013-12-24T09:25:52Z</time>
      </trkpt>
      <trkpt lat="41.643210308" lon="2.526865078">
        <ele>348.13</ele>
        <time>2013-12-24T09:25:58Z</time>
      </trkpt>
      <trkpt lat="41.643216175" lon="2.526847476">
        <ele>347.17</ele>
        <time>2013-12-24T09:25:59Z</time>
      </trkpt>
      <trkpt lat="41.643245093" lon="2.526734823">
        <ele>345.25</ele>
        <time>2013-12-24T09:26:05Z</time>
      </trkpt>
      <trkpt lat="41.643277279" lon="2.526662236">
        <ele>343.33</ele>
        <time>2013-12-24T09:26:09Z</time>
      </trkpt>
      <trkpt lat="41.643278453" lon="2.526649160">
        <ele>343.33</ele>
        <time>2013-12-24T09:26:10Z</time>
      </trkpt>
      <trkpt lat="41.643303682" lon="2.526472386">
        <ele>340.92</ele>
        <time>2013-12-24T09:26:18Z</time>
      </trkpt>
      <trkpt lat="41.643392530" lon="2.526318243">
        <ele>337.08</ele>
        <time>2013-12-24T09:26:24Z</time>
      </trkpt>
      <trkpt lat="41.643489593" lon="2.526119257">
        <ele>335.16</ele>
        <time>2013-12-24T09:26:30Z</time>
      </trkpt>
      <trkpt lat="41.643524964" lon="2.526052956">
        <ele>335.16</ele>
        <time>2013-12-24T09:26:33Z</time>
      </trkpt>
      <trkpt lat="41.643568466" lon="2.526005179">
        <ele>333.71</ele>
        <time>2013-12-24T09:26:36Z</time>
      </trkpt>
      <trkpt lat="41.643640215" lon="2.525909206">
        <ele>331.79</ele>
        <time>2013-12-24T09:26:40Z</time>
      </trkpt>
      <trkpt lat="41.643693692" lon="2.525787417">
        <ele>329.87</ele>
        <time>2013-12-24T09:26:44Z</time>
      </trkpt>
      <trkpt lat="41.643782959" lon="2.525641069">
        <ele>327.47</ele>
        <time>2013-12-24T09:26:50Z</time>
      </trkpt>
      <trkpt lat="41.643865772" lon="2.525529338">
        <ele>324.58</ele>
        <time>2013-12-24T09:26:55Z</time>
      </trkpt>
      <trkpt lat="41.643929307" lon="2.525480053">
        <ele>322.66</ele>
        <time>2013-12-24T09:26:59Z</time>
      </trkpt>
      <trkpt lat="41.643968535" lon="2.525327083">
        <ele>320.26</ele>
        <time>2013-12-24T09:27:07Z</time>
      </trkpt>
      <trkpt lat="41.643973396" lon="2.525287856">
        <ele>319.30</ele>
        <time>2013-12-24T09:27:09Z</time>
      </trkpt>
      <trkpt lat="41.643974989" lon="2.525272014">
        <ele>318.81</ele>
        <time>2013-12-24T09:27:10Z</time>
      </trkpt>
      <trkpt lat="41.643948837" lon="2.525183752">
        <ele>317.85</ele>
        <time>2013-12-24T09:27:18Z</time>
      </trkpt>
      <trkpt lat="41.643923105" lon="2.525136981">
        <ele>316.41</ele>
        <time>2013-12-24T09:27:26Z</time>
      </trkpt>
      <trkpt lat="41.643896031" lon="2.525113093">
        <ele>315.45</ele>
        <time>2013-12-24T09:27:35Z</time>
      </trkpt>
      <trkpt lat="41.643892259" lon="2.525086438">
        <ele>314.97</ele>
        <time>2013-12-24T09:27:44Z</time>
      </trkpt>
      <trkpt lat="41.643858396" lon="2.525043858">
        <ele>313.53</ele>
        <time>2013-12-24T09:27:53Z</time>
      </trkpt>
      <trkpt lat="41.643858145" lon="2.525002452">
        <ele>313.05</ele>
        <time>2013-12-24T09:27:59Z</time>
      </trkpt>
      <trkpt lat="41.643861833" lon="2.524967667">
        <ele>312.57</ele>
        <time>2013-12-24T09:28:06Z</time>
      </trkpt>
      <trkpt lat="41.643846410" lon="2.524977138">
        <ele>312.57</ele>
        <time>2013-12-24T09:28:23Z</time>
      </trkpt>
      <trkpt lat="41.643847919" lon="2.524969595">
        <ele>312.57</ele>
        <time>2013-12-24T09:28:37Z</time>
      </trkpt>
      <trkpt lat="41.643851104" lon="2.524972612">
        <ele>312.57</ele>
        <time>2013-12-24T09:28:44Z</time>
      </trkpt>
      <trkpt lat="41.643846494" lon="2.524965068">
        <ele>312.57</ele>
        <time>2013-12-24T09:28:55Z</time>
      </trkpt>
      <trkpt lat="41.643844399" lon="2.524965152">
        <ele>312.57</ele>
        <time>2013-12-24T09:29:14Z</time>
      </trkpt>
      <trkpt lat="41.643843728" lon="2.524958950">
        <ele>312.57</ele>
        <time>2013-12-24T09:29:23Z</time>
      </trkpt>
      <trkpt lat="41.643857055" lon="2.524942521">
        <ele>312.57</ele>
        <time>2013-12-24T09:29:32Z</time>
      </trkpt>
      <trkpt lat="41.643937019" lon="2.524904719">
        <ele>311.12</ele>
        <time>2013-12-24T09:29:38Z</time>
      </trkpt>
      <trkpt lat="41.644072889" lon="2.524807908">
        <ele>309.68</ele>
        <time>2013-12-24T09:29:45Z</time>
      </trkpt>
      <trkpt lat="41.644126282" lon="2.524768932">
        <ele>308.72</ele>
        <time>2013-12-24T09:29:47Z</time>
      </trkpt>
      <trkpt lat="41.644209179" lon="2.524604898">
        <ele>308.72</ele>
        <time>2013-12-24T09:29:55Z</time>
      </trkpt>
      <trkpt lat="41.644238516" lon="2.524553014">
        <ele>310.16</ele>
        <time>2013-12-24T09:29:58Z</time>
      </trkpt>
      <trkpt lat="41.644294339" lon="2.524377413">
        <ele>310.64</ele>
        <time>2013-12-24T09:30:06Z</time>
      </trkpt>
      <trkpt lat="41.644377907" lon="2.524202231">
        <ele>311.60</ele>
        <time>2013-12-24T09:30:14Z</time>
      </trkpt>
      <trkpt lat="41.644460217" lon="2.523959408">
        <ele>312.09</ele>
        <time>2013-12-24T09:30:24Z</time>
      </trkpt>
      <trkpt lat="41.644459966" lon="2.523766540">
        <ele>312.57</ele>
        <time>2013-12-24T09:30:32Z</time>
      </trkpt>
      <trkpt lat="41.644440603" lon="2.523588173">
        <ele>313.05</ele>
        <time>2013-12-24T09:30:39Z</time>
      </trkpt>
      <trkpt lat="41.644408501" lon="2.523449704">
        <ele>311.60</ele>
        <time>2013-12-24T09:30:43Z</time>
      </trkpt>
      <trkpt lat="41.644368268" lon="2.523161115">
        <ele>309.68</ele>
        <time>2013-12-24T09:30:49Z</time>
      </trkpt>
      <trkpt lat="41.644403304" lon="2.522939414">
        <ele>308.24</ele>
        <time>2013-12-24T09:30:55Z</time>
      </trkpt>
      <trkpt lat="41.644468180" lon="2.522746546">
        <ele>305.84</ele>
        <time>2013-12-24T09:30:59Z</time>
      </trkpt>
      <trkpt lat="41.644540097" lon="2.522401128">
        <ele>304.39</ele>
        <time>2013-12-24T09:31:05Z</time>
      </trkpt>
      <trkpt lat="41.644590807" lon="2.522172135">
        <ele>305.84</ele>
        <time>2013-12-24T09:31:12Z</time>
      </trkpt>
      <trkpt lat="41.644599357" lon="2.522123268">
        <ele>307.28</ele>
        <time>2013-12-24T09:31:14Z</time>
      </trkpt>
      <trkpt lat="41.644614025" lon="2.521866949">
        <ele>307.76</ele>
        <time>2013-12-24T09:31:21Z</time>
      </trkpt>
      <trkpt lat="41.644616037" lon="2.521632340">
        <ele>307.76</ele>
        <time>2013-12-24T09:31:27Z</time>
      </trkpt>
      <trkpt lat="41.644621820" lon="2.521452213">
        <ele>307.76</ele>
        <time>2013-12-24T09:31:33Z</time>
      </trkpt>
      <trkpt lat="41.644693988" lon="2.521206288">
        <ele>307.76</ele>
        <time>2013-12-24T09:31:41Z</time>
      </trkpt>
      <trkpt lat="41.644761966" lon="2.521065220">
        <ele>305.84</ele>
        <time>2013-12-24T09:31:44Z</time>
      </trkpt>
      <trkpt lat="41.644964556" lon="2.520813093">
        <ele>303.43</ele>
        <time>2013-12-24T09:31:49Z</time>
      </trkpt>
      <trkpt lat="41.645109647" lon="2.520582758">
        <ele>302.95</ele>
        <time>2013-12-24T09:31:55Z</time>
      </trkpt>
      <trkpt lat="41.645167231" lon="2.520360386">
        <ele>304.39</ele>
        <time>2013-12-24T09:32:02Z</time>
      </trkpt>
      <trkpt lat="41.645154239" lon="2.520042041">
        <ele>302.47</ele>
        <time>2013-12-24T09:32:09Z</time>
      </trkpt>
      <trkpt lat="41.645076371" lon="2.519839702">
        <ele>301.51</ele>
        <time>2013-12-24T09:32:14Z</time>
      </trkpt>
      <trkpt lat="41.645123729" lon="2.519666616">
        <ele>300.07</ele>
        <time>2013-12-24T09:32:19Z</time>
      </trkpt>
      <trkpt lat="41.645364373" lon="2.519646835">
        <ele>298.63</ele>
        <time>2013-12-24T09:32:27Z</time>
      </trkpt>
      <trkpt lat="41.645569394" lon="2.519706262">
        <ele>297.67</ele>
        <time>2013-12-24T09:32:34Z</time>
      </trkpt>
      <trkpt lat="41.645763184" lon="2.519717578">
        <ele>295.74</ele>
        <time>2013-12-24T09:32:40Z</time>
      </trkpt>
      <trkpt lat="41.645976503" lon="2.519716405">
        <ele>294.78</ele>
        <time>2013-12-24T09:32:46Z</time>
      </trkpt>
      <trkpt lat="41.646053198" lon="2.519626383">
        <ele>292.86</ele>
        <time>2013-12-24T09:32:51Z</time>
      </trkpt>
      <trkpt lat="41.645964350" lon="2.519435527">
        <ele>291.42</ele>
        <time>2013-12-24T09:32:56Z</time>
      </trkpt>
      <trkpt lat="41.645952531" lon="2.519330753">
        <ele>289.97</ele>
        <time>2013-12-24T09:32:58Z</time>
      </trkpt>
      <trkpt lat="41.645898049" lon="2.518962117">
        <ele>288.53</ele>
        <time>2013-12-24T09:33:06Z</time>
      </trkpt>
      <trkpt lat="41.645830323" lon="2.518702194">
        <ele>286.13</ele>
        <time>2013-12-24T09:33:12Z</time>
      </trkpt>
      <trkpt lat="41.645800567" lon="2.518446295">
        <ele>282.77</ele>
        <time>2013-12-24T09:33:17Z</time>
      </trkpt>
      <trkpt lat="41.645807021" lon="2.518404553">
        <ele>281.80</ele>
        <time>2013-12-24T09:33:18Z</time>
      </trkpt>
      <trkpt lat="41.645757484" lon="2.518340599">
        <ele>279.40</ele>
        <time>2013-12-24T09:33:22Z</time>
      </trkpt>
      <trkpt lat="41.645723621" lon="2.518443948">
        <ele>278.44</ele>
        <time>2013-12-24T09:33:26Z</time>
      </trkpt>
      <trkpt lat="41.645701242" lon="2.518787187">
        <ele>277.00</ele>
        <time>2013-12-24T09:33:34Z</time>
      </trkpt>
      <trkpt lat="41.645675342" lon="2.519048283">
        <ele>277.00</ele>
        <time>2013-12-24T09:33:41Z</time>
      </trkpt>
      <trkpt lat="41.645568388" lon="2.519138137">
        <ele>277.48</ele>
        <time>2013-12-24T09:33:46Z</time>
      </trkpt>
      <trkpt lat="41.645415083" lon="2.519083403">
        <ele>277.00</ele>
        <time>2013-12-24T09:33:53Z</time>
      </trkpt>
      <trkpt lat="41.645314501" lon="2.518882908">
        <ele>277.48</ele>
        <time>2013-12-24T09:34:00Z</time>
      </trkpt>
      <trkpt lat="41.645184246" lon="2.518686688">
        <ele>277.00</ele>
        <time>2013-12-24T09:34:08Z</time>
      </trkpt>
      <trkpt lat="41.645058266" lon="2.518774614">
        <ele>276.52</ele>
        <time>2013-12-24T09:34:14Z</time>
      </trkpt>
      <trkpt lat="41.644927173" lon="2.519051552">
        <ele>275.07</ele>
        <time>2013-12-24T09:34:22Z</time>
      </trkpt>
      <trkpt lat="41.644765067" lon="2.519070244">
        <ele>274.11</ele>
        <time>2013-12-24T09:34:27Z</time>
      </trkpt>
      <trkpt lat="41.644550071" lon="2.518997908">
        <ele>273.15</ele>
        <time>2013-12-24T09:34:34Z</time>
      </trkpt>
      <trkpt lat="41.644436664" lon="2.519132521">
        <ele>272.67</ele>
        <time>2013-12-24T09:34:41Z</time>
      </trkpt>
      <trkpt lat="41.644449069" lon="2.519370902">
        <ele>272.19</ele>
        <time>2013-12-24T09:34:49Z</time>
      </trkpt>
      <trkpt lat="41.644459379" lon="2.519432258">
        <ele>272.19</ele>
        <time>2013-12-24T09:34:51Z</time>
      </trkpt>
      <trkpt lat="41.644527524" lon="2.519678015">
        <ele>270.27</ele>
        <time>2013-12-24T09:34:57Z</time>
      </trkpt>
      <trkpt lat="41.644586784" lon="2.519947996">
        <ele>269.31</ele>
        <time>2013-12-24T09:35:04Z</time>
      </trkpt>
      <trkpt lat="41.644504138" lon="2.520060565">
        <ele>268.83</ele>
        <time>2013-12-24T09:35:09Z</time>
      </trkpt>
      <trkpt lat="41.644275731" lon="2.520086214">
        <ele>267.38</ele>
        <time>2013-12-24T09:35:17Z</time>
      </trkpt>
      <trkpt lat="41.644179256" lon="2.519963838">
        <ele>265.46</ele>
        <time>2013-12-24T09:35:23Z</time>
      </trkpt>
      <trkpt lat="41.644098873" lon="2.519867698">
        <ele>263.54</ele>
        <time>2013-12-24T09:35:26Z</time>
      </trkpt>
      <trkpt lat="41.643971636" lon="2.519702826">
        <ele>261.14</ele>
        <time>2013-12-24T09:35:30Z</time>
      </trkpt>
      <trkpt lat="41.643912711" lon="2.519615822">
        <ele>260.17</ele>
        <time>2013-12-24T09:35:32Z</time>
      </trkpt>
      <trkpt lat="41.643756053" lon="2.519480873">
        <ele>259.21</ele>
        <time>2013-12-24T09:35:37Z</time>
      </trkpt>
      <trkpt lat="41.643594534" lon="2.519560501">
        <ele>258.25</ele>
        <time>2013-12-24T09:35:42Z</time>
      </trkpt>
      <trkpt lat="41.643442319" lon="2.519779688">
        <ele>255.37</ele>
        <time>2013-12-24T09:35:48Z</time>
      </trkpt>
      <trkpt lat="41.643359338" lon="2.519945482">
        <ele>254.89</ele>
        <time>2013-12-24T09:35:54Z</time>
      </trkpt>
      <trkpt lat="41.643235453" lon="2.519854287">
        <ele>253.44</ele>
        <time>2013-12-24T09:35:59Z</time>
      </trkpt>
      <trkpt lat="41.643215924" lon="2.519738449">
        <ele>252.00</ele>
        <time>2013-12-24T09:36:01Z</time>
      </trkpt>
      <trkpt lat="41.643204189" lon="2.519488333">
        <ele>250.08</ele>
        <time>2013-12-24T09:36:05Z</time>
      </trkpt>
      <trkpt lat="41.643186168" lon="2.519074686">
        <ele>246.23</ele>
        <time>2013-12-24T09:36:13Z</time>
      </trkpt>
      <trkpt lat="41.643151634" lon="2.518753827">
        <ele>243.83</ele>
        <time>2013-12-24T09:36:19Z</time>
      </trkpt>
      <trkpt lat="41.643137553" lon="2.518628182">
        <ele>241.91</ele>
        <time>2013-12-24T09:36:21Z</time>
      </trkpt>
      <trkpt lat="41.643015428" lon="2.518349819">
        <ele>239.51</ele>
        <time>2013-12-24T09:36:27Z</time>
      </trkpt>
      <trkpt lat="41.643022134" lon="2.518119149">
        <ele>237.10</ele>
        <time>2013-12-24T09:36:32Z</time>
      </trkpt>
      <trkpt lat="41.643078209" lon="2.518067349">
        <ele>236.62</ele>
        <time>2013-12-24T09:36:34Z</time>
      </trkpt>
      <trkpt lat="41.643320446" lon="2.517938100">
        <ele>236.62</ele>
        <time>2013-12-24T09:36:42Z</time>
      </trkpt>
      <trkpt lat="41.643542734" lon="2.517786890">
        <ele>236.14</ele>
        <time>2013-12-24T09:36:49Z</time>
      </trkpt>
      <trkpt lat="41.643770386" lon="2.517571392">
        <ele>235.66</ele>
        <time>2013-12-24T09:36:56Z</time>
      </trkpt>
      <trkpt lat="41.644181686" lon="2.517271822">
        <ele>234.22</ele>
        <time>2013-12-24T09:37:06Z</time>
      </trkpt>
      <trkpt lat="41.644413111" lon="2.517135114">
        <ele>234.22</ele>
        <time>2013-12-24T09:37:11Z</time>
      </trkpt>
      <trkpt lat="41.644890628" lon="2.516884830">
        <ele>232.78</ele>
        <time>2013-12-24T09:37:21Z</time>
      </trkpt>
      <trkpt lat="41.645360433" lon="2.516630272">
        <ele>231.81</ele>
        <time>2013-12-24T09:37:31Z</time>
      </trkpt>
      <trkpt lat="41.645493538" lon="2.516542765">
        <ele>231.33</ele>
        <time>2013-12-24T09:37:34Z</time>
      </trkpt>
      <trkpt lat="41.645709288" lon="2.516314358">
        <ele>229.89</ele>
        <time>2013-12-24T09:37:40Z</time>
      </trkpt>
      <trkpt lat="41.645970636" lon="2.515936250">
        <ele>229.89</ele>
        <time>2013-12-24T09:37:48Z</time>
      </trkpt>
      <trkpt lat="41.646236007" lon="2.515520340">
        <ele>228.93</ele>
        <time>2013-12-24T09:37:56Z</time>
      </trkpt>
      <trkpt lat="41.646538175" lon="2.515058413">
        <ele>228.45</ele>
        <time>2013-12-24T09:38:05Z</time>
      </trkpt>
      <trkpt lat="41.646811257" lon="2.514662787">
        <ele>227.49</ele>
        <time>2013-12-24T09:38:14Z</time>
      </trkpt>
      <trkpt lat="41.646909661" lon="2.514401859">
        <ele>227.01</ele>
        <time>2013-12-24T09:38:19Z</time>
      </trkpt>
      <trkpt lat="41.646971016" lon="2.513961474">
        <ele>228.45</ele>
        <time>2013-12-24T09:38:27Z</time>
      </trkpt>
      <trkpt lat="41.646978225" lon="2.513898023">
        <ele>228.45</ele>
        <time>2013-12-24T09:38:28Z</time>
      </trkpt>
      <trkpt lat="41.646985601" lon="2.513771959">
        <ele>228.45</ele>
        <time>2013-12-24T09:38:30Z</time>
      </trkpt>
      <trkpt lat="41.646983924" lon="2.513528632">
        <ele>228.45</ele>
        <time>2013-12-24T09:38:34Z</time>
      </trkpt>
      <trkpt lat="41.646924161" lon="2.513111716">
        <ele>226.05</ele>
        <time>2013-12-24T09:38:41Z</time>
      </trkpt>
      <trkpt lat="41.646890047" lon="2.512717012">
        <ele>224.12</ele>
        <time>2013-12-24T09:38:47Z</time>
      </trkpt>
      <trkpt lat="41.646860207" lon="2.512411492">
        <ele>222.20</ele>
        <time>2013-12-24T09:38:53Z</time>
      </trkpt>
      <trkpt lat="41.646835984" lon="2.512263300">
        <ele>221.72</ele>
        <time>2013-12-24T09:38:55Z</time>
      </trkpt>
      <trkpt lat="41.646834810" lon="2.511780586">
        <ele>220.76</ele>
        <time>2013-12-24T09:39:02Z</time>
      </trkpt>
      <trkpt lat="41.646863728" lon="2.511492333">
        <ele>220.76</ele>
        <time>2013-12-24T09:39:07Z</time>
      </trkpt>
      <trkpt lat="41.646907230" lon="2.510945749">
        <ele>220.76</ele>
        <time>2013-12-24T09:39:17Z</time>
      </trkpt>
      <trkpt lat="41.646978979" lon="2.510488432">
        <ele>220.28</ele>
        <time>2013-12-24T09:39:25Z</time>
      </trkpt>
      <trkpt lat="41.647132955" lon="2.510133207">
        <ele>220.28</ele>
        <time>2013-12-24T09:39:33Z</time>
      </trkpt>
      <trkpt lat="41.647224904" lon="2.509911757">
        <ele>219.80</ele>
        <time>2013-12-24T09:39:40Z</time>
      </trkpt>
      <trkpt lat="41.647296485" lon="2.509760631">
        <ele>219.80</ele>
        <time>2013-12-24T09:39:45Z</time>
      </trkpt>
      <trkpt lat="41.647249882" lon="2.509683937">
        <ele>219.80</ele>
        <time>2013-12-24T09:39:49Z</time>
      </trkpt>
      <trkpt lat="41.647016278" lon="2.509508336">
        <ele>219.80</ele>
        <time>2013-12-24T09:39:58Z</time>
      </trkpt>
      <trkpt lat="41.646816538" lon="2.509367101">
        <ele>219.80</ele>
        <time>2013-12-24T09:40:06Z</time>
      </trkpt>
      <trkpt lat="41.646617300" lon="2.509219328">
        <ele>219.80</ele>
        <time>2013-12-24T09:40:14Z</time>
      </trkpt>
      <trkpt lat="41.646395263" lon="2.509054456">
        <ele>222.20</ele>
        <time>2013-12-24T09:40:22Z</time>
      </trkpt>
      <trkpt lat="41.646223350" lon="2.508942139">
        <ele>223.16</ele>
        <time>2013-12-24T09:40:29Z</time>
      </trkpt>
      <trkpt lat="41.646057473" lon="2.508808280">
        <ele>223.64</ele>
        <time>2013-12-24T09:40:36Z</time>
      </trkpt>
      <trkpt lat="41.645810374" lon="2.508605437">
        <ele>223.64</ele>
        <time>2013-12-24T09:40:45Z</time>
      </trkpt>
      <trkpt lat="41.645507871" lon="2.508365799">
        <ele>222.68</ele>
        <time>2013-12-24T09:40:54Z</time>
      </trkpt>
      <trkpt lat="41.645292037" lon="2.508168740">
        <ele>222.20</ele>
        <time>2013-12-24T09:41:00Z</time>
      </trkpt>
      <trkpt lat="41.645286086" lon="2.507870512">
        <ele>221.72</ele>
        <time>2013-12-24T09:41:06Z</time>
      </trkpt>
      <trkpt lat="41.645331684" lon="2.507620061">
        <ele>221.72</ele>
        <time>2013-12-24T09:41:13Z</time>
      </trkpt>
      <trkpt lat="41.645318189" lon="2.507414537">
        <ele>224.12</ele>
        <time>2013-12-24T09:41:20Z</time>
      </trkpt>
      <trkpt lat="41.645304023" lon="2.507193757">
        <ele>225.57</ele>
        <time>2013-12-24T09:41:28Z</time>
      </trkpt>
      <trkpt lat="41.645294971" lon="2.507094348">
        <ele>227.01</ele>
        <time>2013-12-24T09:41:32Z</time>
      </trkpt>
      <trkpt lat="41.645263539" lon="2.506909611">
        <ele>228.45</ele>
        <time>2013-12-24T09:41:39Z</time>
      </trkpt>
      <trkpt lat="41.645239063" lon="2.506682294">
        <ele>230.85</ele>
        <time>2013-12-24T09:41:48Z</time>
      </trkpt>
      <trkpt lat="41.645229173" lon="2.506516667">
        <ele>232.30</ele>
        <time>2013-12-24T09:41:55Z</time>
      </trkpt>
      <trkpt lat="41.645209559" lon="2.506349113">
        <ele>233.74</ele>
        <time>2013-12-24T09:42:02Z</time>
      </trkpt>
      <trkpt lat="41.645194220" lon="2.506090783">
        <ele>236.14</ele>
        <time>2013-12-24T09:42:13Z</time>
      </trkpt>
      <trkpt lat="41.645231939" lon="2.505894814">
        <ele>238.06</ele>
        <time>2013-12-24T09:42:22Z</time>
      </trkpt>
      <trkpt lat="41.645266724" lon="2.505742263">
        <ele>239.99</ele>
        <time>2013-12-24T09:42:30Z</time>
      </trkpt>
      <trkpt lat="41.645242919" lon="2.505625168">
        <ele>241.43</ele>
        <time>2013-12-24T09:42:38Z</time>
      </trkpt>
      <trkpt lat="41.645177708" lon="2.505473288">
        <ele>243.35</ele>
        <time>2013-12-24T09:42:47Z</time>
      </trkpt>
      <trkpt lat="41.645147785" lon="2.505322246">
        <ele>245.27</ele>
        <time>2013-12-24T09:42:55Z</time>
      </trkpt>
      <trkpt lat="41.645114173" lon="2.505169192">
        <ele>246.72</ele>
        <time>2013-12-24T09:43:03Z</time>
      </trkpt>
      <trkpt lat="41.645091542" lon="2.505007673">
        <ele>248.64</ele>
        <time>2013-12-24T09:43:12Z</time>
      </trkpt>
      <trkpt lat="41.645064971" lon="2.504834755">
        <ele>250.08</ele>
        <time>2013-12-24T09:43:21Z</time>
      </trkpt>
      <trkpt lat="41.645061367" lon="2.504660746">
        <ele>251.52</ele>
        <time>2013-12-24T09:43:29Z</time>
      </trkpt>
      <trkpt lat="41.645111994" lon="2.504506100">
        <ele>253.44</ele>
        <time>2013-12-24T09:43:38Z</time>
      </trkpt>
      <trkpt lat="41.645140157" lon="2.504381294">
        <ele>254.89</ele>
        <time>2013-12-24T09:43:45Z</time>
      </trkpt>
      <trkpt lat="41.645122136" lon="2.504263863">
        <ele>255.85</ele>
        <time>2013-12-24T09:43:52Z</time>
      </trkpt>
      <trkpt lat="41.645049800" lon="2.504142409">
        <ele>257.29</ele>
        <time>2013-12-24T09:44:00Z</time>
      </trkpt>
      <trkpt lat="41.644994647" lon="2.504039563">
        <ele>258.73</ele>
        <time>2013-12-24T09:44:07Z</time>
      </trkpt>
      <trkpt lat="41.644938824" lon="2.503909895">
        <ele>260.17</ele>
        <time>2013-12-24T09:44:15Z</time>
      </trkpt>
      <trkpt lat="41.644894986" lon="2.503802356">
        <ele>261.14</ele>
        <time>2013-12-24T09:44:21Z</time>
      </trkpt>
      <trkpt lat="41.644840504" lon="2.503656594">
        <ele>262.58</ele>
        <time>2013-12-24T09:44:29Z</time>
      </trkpt>
      <trkpt lat="41.644810832" lon="2.503541846">
        <ele>263.54</ele>
        <time>2013-12-24T09:44:35Z</time>
      </trkpt>
      <trkpt lat="41.644796750" lon="2.503438078">
        <ele>264.50</ele>
        <time>2013-12-24T09:44:40Z</time>
      </trkpt>
      <trkpt lat="41.644769258" lon="2.503209671">
        <ele>265.46</ele>
        <time>2013-12-24T09:44:49Z</time>
      </trkpt>
      <trkpt lat="41.644748974" lon="2.503077069">
        <ele>265.94</ele>
        <time>2013-12-24T09:44:55Z</time>
      </trkpt>
      <trkpt lat="41.644682840" lon="2.502895517">
        <ele>267.86</ele>
        <time>2013-12-24T09:45:04Z</time>
      </trkpt>
      <trkpt lat="41.644643110" lon="2.502820835">
        <ele>267.86</ele>
        <time>2013-12-24T09:45:08Z</time>
      </trkpt>
      <trkpt lat="41.644554933" lon="2.502705583">
        <ele>269.79</ele>
        <time>2013-12-24T09:45:16Z</time>
      </trkpt>
      <trkpt lat="41.644466001" lon="2.502601816">
        <ele>270.75</ele>
        <time>2013-12-24T09:45:24Z</time>
      </trkpt>
      <trkpt lat="41.644451835" lon="2.502591925">
        <ele>270.75</ele>
        <time>2013-12-24T09:45:25Z</time>
      </trkpt>
      <trkpt lat="41.644386624" lon="2.502504166">
        <ele>271.23</ele>
        <time>2013-12-24T09:45:30Z</time>
      </trkpt>
      <trkpt lat="41.644303895" lon="2.502336025">
        <ele>272.19</ele>
        <time>2013-12-24T09:45:39Z</time>
      </trkpt>
      <trkpt lat="41.644241617" lon="2.502190851">
        <ele>273.15</ele>
        <time>2013-12-24T09:45:46Z</time>
      </trkpt>
      <trkpt lat="41.644168778" lon="2.502005024">
        <ele>274.11</ele>
        <time>2013-12-24T09:45:54Z</time>
      </trkpt>
      <trkpt lat="41.644081104" lon="2.501824645">
        <ele>275.07</ele>
        <time>2013-12-24T09:46:03Z</time>
      </trkpt>
      <trkpt lat="41.644012791" lon="2.501722638">
        <ele>275.56</ele>
        <time>2013-12-24T09:46:09Z</time>
      </trkpt>
      <trkpt lat="41.643936600" lon="2.501590287">
        <ele>276.52</ele>
        <time>2013-12-24T09:46:17Z</time>
      </trkpt>
      <trkpt lat="41.643875160" lon="2.501451315">
        <ele>278.44</ele>
        <time>2013-12-24T09:46:25Z</time>
      </trkpt>
      <trkpt lat="41.643817912" lon="2.501296921">
        <ele>279.40</ele>
        <time>2013-12-24T09:46:33Z</time>
      </trkpt>
      <trkpt lat="41.643776589" lon="2.501143113">
        <ele>280.84</ele>
        <time>2013-12-24T09:46:40Z</time>
      </trkpt>
      <trkpt lat="41.643771476" lon="2.500976062">
        <ele>282.28</ele>
        <time>2013-12-24T09:46:48Z</time>
      </trkpt>
      <trkpt lat="41.643761502" lon="2.500817392">
        <ele>283.25</ele>
        <time>2013-12-24T09:46:56Z</time>
      </trkpt>
      <trkpt lat="41.643771225" lon="2.500654448">
        <ele>284.69</ele>
        <time>2013-12-24T09:47:04Z</time>
      </trkpt>
      <trkpt lat="41.643795951" lon="2.500483373">
        <ele>286.13</ele>
        <time>2013-12-24T09:47:13Z</time>
      </trkpt>
      <trkpt lat="41.643801316" lon="2.500268294">
        <ele>288.05</ele>
        <time>2013-12-24T09:47:23Z</time>
      </trkpt>
      <trkpt lat="41.643748426" lon="2.500136446">
        <ele>289.49</ele>
        <time>2013-12-24T09:47:30Z</time>
      </trkpt>
      <trkpt lat="41.643637030" lon="2.500072157">
        <ele>290.46</ele>
        <time>2013-12-24T09:47:38Z</time>
      </trkpt>
      <trkpt lat="41.643516750" lon="2.499992781">
        <ele>292.86</ele>
        <time>2013-12-24T09:47:47Z</time>
      </trkpt>
      <trkpt lat="41.643432512" lon="2.499902507">
        <ele>293.34</ele>
        <time>2013-12-24T09:47:55Z</time>
      </trkpt>
      <trkpt lat="41.643366295" lon="2.499795890">
        <ele>294.30</ele>
        <time>2013-12-24T09:48:02Z</time>
      </trkpt>
      <trkpt lat="41.643336958" lon="2.499742162">
        <ele>295.26</ele>
        <time>2013-12-24T09:48:06Z</time>
      </trkpt>
      <trkpt lat="41.643310136" lon="2.499573937">
        <ele>296.70</ele>
        <time>2013-12-24T09:48:15Z</time>
      </trkpt>
      <trkpt lat="41.643338215" lon="2.499408730">
        <ele>298.15</ele>
        <time>2013-12-24T09:48:23Z</time>
      </trkpt>
      <trkpt lat="41.643383562" lon="2.499157692">
        <ele>300.07</ele>
        <time>2013-12-24T09:48:35Z</time>
      </trkpt>
      <trkpt lat="41.643400158" lon="2.498958370">
        <ele>301.51</ele>
        <time>2013-12-24T09:48:44Z</time>
      </trkpt>
      <trkpt lat="41.643434272" lon="2.498763239">
        <ele>302.47</ele>
        <time>2013-12-24T09:48:53Z</time>
      </trkpt>
      <trkpt lat="41.643436284" lon="2.498584705">
        <ele>303.91</ele>
        <time>2013-12-24T09:49:01Z</time>
      </trkpt>
      <trkpt lat="41.643380712" lon="2.498453779">
        <ele>304.39</ele>
        <time>2013-12-24T09:49:08Z</time>
      </trkpt>
      <trkpt lat="41.643242075" lon="2.498354035">
        <ele>305.84</ele>
        <time>2013-12-24T09:49:17Z</time>
      </trkpt>
      <trkpt lat="41.643093296" lon="2.498299804">
        <ele>307.28</ele>
        <time>2013-12-24T09:49:26Z</time>
      </trkpt>
      <trkpt lat="41.642982488" lon="2.498218835">
        <ele>308.24</ele>
        <time>2013-12-24T09:49:34Z</time>
      </trkpt>
      <trkpt lat="41.642882659" lon="2.498084556">
        <ele>308.24</ele>
        <time>2013-12-24T09:49:42Z</time>
      </trkpt>
      <trkpt lat="41.642853406" lon="2.497915577">
        <ele>309.20</ele>
        <time>2013-12-24T09:49:49Z</time>
      </trkpt>
      <trkpt lat="41.642781825" lon="2.497721285">
        <ele>310.16</ele>
        <time>2013-12-24T09:49:58Z</time>
      </trkpt>
      <trkpt lat="41.642749052" lon="2.497611901">
        <ele>310.16</ele>
        <time>2013-12-24T09:50:03Z</time>
      </trkpt>
      <trkpt lat="41.642792554" lon="2.497505451">
        <ele>311.12</ele>
        <time>2013-12-24T09:50:10Z</time>
      </trkpt>
      <trkpt lat="41.642823567" lon="2.497522550">
        <ele>311.12</ele>
        <time>2013-12-24T09:50:12Z</time>
      </trkpt>
      <trkpt lat="41.642887772" lon="2.497643836">
        <ele>312.57</ele>
        <time>2013-12-24T09:50:19Z</time>
      </trkpt>
      <trkpt lat="41.642916187" lon="2.497704605">
        <ele>313.05</ele>
        <time>2013-12-24T09:50:23Z</time>
      </trkpt>
      <trkpt lat="41.643001095" lon="2.497856401">
        <ele>314.97</ele>
        <time>2013-12-24T09:50:32Z</time>
      </trkpt>
      <trkpt lat="41.643032360" lon="2.497876601">
        <ele>314.97</ele>
        <time>2013-12-24T09:50:34Z</time>
      </trkpt>
      <trkpt lat="41.643197064" lon="2.497855814">
        <ele>315.93</ele>
        <time>2013-12-24T09:50:43Z</time>
      </trkpt>
      <trkpt lat="41.643261689" lon="2.497843996">
        <ele>316.41</ele>
        <time>2013-12-24T09:50:47Z</time>
      </trkpt>
      <trkpt lat="41.643317093" lon="2.497854389">
        <ele>316.89</ele>
        <time>2013-12-24T09:50:51Z</time>
      </trkpt>
      <trkpt lat="41.643447599" lon="2.497870902">
        <ele>318.33</ele>
        <time>2013-12-24T09:51:00Z</time>
      </trkpt>
      <trkpt lat="41.643569472" lon="2.497925636">
        <ele>318.81</ele>
        <time>2013-12-24T09:51:07Z</time>
      </trkpt>
      <trkpt lat="41.643718502" lon="2.498029320">
        <ele>318.81</ele>
        <time>2013-12-24T09:51:16Z</time>
      </trkpt>
      <trkpt lat="41.643808356" lon="2.498048430">
        <ele>319.30</ele>
        <time>2013-12-24T09:51:22Z</time>
      </trkpt>
      <trkpt lat="41.643820175" lon="2.498033930">
        <ele>319.30</ele>
        <time>2013-12-24T09:51:23Z</time>
      </trkpt>
      <trkpt lat="41.643796957" lon="2.497924714">
        <ele>319.78</ele>
        <time>2013-12-24T09:51:29Z</time>
      </trkpt>
      <trkpt lat="41.643651531" lon="2.497778114">
        <ele>320.74</ele>
        <time>2013-12-24T09:51:39Z</time>
      </trkpt>
      <trkpt lat="41.643608113" lon="2.497690356">
        <ele>321.70</ele>
        <time>2013-12-24T09:51:43Z</time>
      </trkpt>
      <trkpt lat="41.643584392" lon="2.497579882">
        <ele>322.66</ele>
        <time>2013-12-24T09:51:48Z</time>
      </trkpt>
      <trkpt lat="41.643526808" lon="2.497441078">
        <ele>324.58</ele>
        <time>2013-12-24T09:51:56Z</time>
      </trkpt>
      <trkpt lat="41.643443073" lon="2.497284085">
        <ele>326.99</ele>
        <time>2013-12-24T09:52:05Z</time>
      </trkpt>
      <trkpt lat="41.643310471" lon="2.497178137">
        <ele>329.87</ele>
        <time>2013-12-24T09:52:14Z</time>
      </trkpt>
      <trkpt lat="41.643195136" lon="2.497111334">
        <ele>331.79</ele>
        <time>2013-12-24T09:52:22Z</time>
      </trkpt>
      <trkpt lat="41.643111234" lon="2.497042351">
        <ele>333.23</ele>
        <time>2013-12-24T09:52:29Z</time>
      </trkpt>
      <trkpt lat="41.643045268" lon="2.496925675">
        <ele>334.68</ele>
        <time>2013-12-24T09:52:37Z</time>
      </trkpt>
      <trkpt lat="41.642949966" lon="2.496793743">
        <ele>334.68</ele>
        <time>2013-12-24T09:52:44Z</time>
      </trkpt>
      <trkpt lat="41.642845611" lon="2.496672457">
        <ele>335.16</ele>
        <time>2013-12-24T09:52:53Z</time>
      </trkpt>
      <trkpt lat="41.642772102" lon="2.496594338">
        <ele>336.12</ele>
        <time>2013-12-24T09:52:59Z</time>
      </trkpt>
      <trkpt lat="41.642662047" lon="2.496489061">
        <ele>338.04</ele>
        <time>2013-12-24T09:53:08Z</time>
      </trkpt>
      <trkpt lat="41.642562973" lon="2.496378336">
        <ele>338.04</ele>
        <time>2013-12-24T09:53:16Z</time>
      </trkpt>
      <trkpt lat="41.642483680" lon="2.496210698">
        <ele>338.52</ele>
        <time>2013-12-24T09:53:24Z</time>
      </trkpt>
      <trkpt lat="41.642441184" lon="2.496076588">
        <ele>338.52</ele>
        <time>2013-12-24T09:53:30Z</time>
      </trkpt>
      <trkpt lat="41.642390725" lon="2.495843990">
        <ele>340.92</ele>
        <time>2013-12-24T09:53:41Z</time>
      </trkpt>
      <trkpt lat="41.642358706" lon="2.495638130">
        <ele>342.37</ele>
        <time>2013-12-24T09:53:51Z</time>
      </trkpt>
      <trkpt lat="41.642344122" lon="2.495477114">
        <ele>343.33</ele>
        <time>2013-12-24T09:53:59Z</time>
      </trkpt>
      <trkpt lat="41.642397012" lon="2.495162122">
        <ele>343.33</ele>
        <time>2013-12-24T09:54:10Z</time>
      </trkpt>
      <trkpt lat="41.642438083" lon="2.494952155">
        <ele>343.33</ele>
        <time>2013-12-24T09:54:17Z</time>
      </trkpt>
      <trkpt lat="41.642489967" lon="2.494770687">
        <ele>343.33</ele>
        <time>2013-12-24T09:54:21Z</time>
      </trkpt>
      <trkpt lat="41.642535229" lon="2.494665830">
        <ele>341.89</ele>
        <time>2013-12-24T09:54:23Z</time>
      </trkpt>
      <trkpt lat="41.642648050" lon="2.494480087">
        <ele>340.44</ele>
        <time>2013-12-24T09:54:27Z</time>
      </trkpt>
      <trkpt lat="41.642723738" lon="2.494265845">
        <ele>340.44</ele>
        <time>2013-12-24T09:54:31Z</time>
      </trkpt>
      <trkpt lat="41.642811078" lon="2.493982621">
        <ele>340.44</ele>
        <time>2013-12-24T09:54:38Z</time>
      </trkpt>
      <trkpt lat="41.642930855" lon="2.493861502">
        <ele>340.44</ele>
        <time>2013-12-24T09:54:44Z</time>
      </trkpt>
      <trkpt lat="41.643009142" lon="2.493793357">
        <ele>341.41</ele>
        <time>2013-12-24T09:54:48Z</time>
      </trkpt>
      <trkpt lat="41.643113245" lon="2.493606692">
        <ele>342.37</ele>
        <time>2013-12-24T09:54:55Z</time>
      </trkpt>
      <trkpt lat="41.643144594" lon="2.493531507">
        <ele>342.85</ele>
        <time>2013-12-24T09:54:58Z</time>
      </trkpt>
      <trkpt lat="41.643077790" lon="2.493408796">
        <ele>342.85</ele>
        <time>2013-12-24T09:55:04Z</time>
      </trkpt>
      <trkpt lat="41.642835720" lon="2.493223975">
        <ele>340.92</ele>
        <time>2013-12-24T09:55:12Z</time>
      </trkpt>
      <trkpt lat="41.642675961" lon="2.492953239">
        <ele>339.00</ele>
        <time>2013-12-24T09:55:18Z</time>
      </trkpt>
      <trkpt lat="41.642639165" lon="2.492713349">
        <ele>337.56</ele>
        <time>2013-12-24T09:55:22Z</time>
      </trkpt>
      <trkpt lat="41.642678392" lon="2.492305067">
        <ele>336.12</ele>
        <time>2013-12-24T09:55:28Z</time>
      </trkpt>
      <trkpt lat="41.642635225" lon="2.492011532">
        <ele>334.68</ele>
        <time>2013-12-24T09:55:32Z</time>
      </trkpt>
      <trkpt lat="41.642589292" lon="2.491877338">
        <ele>334.20</ele>
        <time>2013-12-24T09:55:34Z</time>
      </trkpt>
      <trkpt lat="41.642447471" lon="2.491600400">
        <ele>334.20</ele>
        <time>2013-12-24T09:55:41Z</time>
      </trkpt>
      <trkpt lat="41.642364993" lon="2.491527142">
        <ele>335.16</ele>
        <time>2013-12-24T09:55:45Z</time>
      </trkpt>
      <trkpt lat="41.642317048" lon="2.491355229">
        <ele>337.08</ele>
        <time>2013-12-24T09:55:51Z</time>
      </trkpt>
      <trkpt lat="41.642293495" lon="2.491212905">
        <ele>338.52</ele>
        <time>2013-12-24T09:55:57Z</time>
      </trkpt>
      <trkpt lat="41.642244126" lon="2.491075693">
        <ele>339.96</ele>
        <time>2013-12-24T09:56:04Z</time>
      </trkpt>
      <trkpt lat="41.642193750" lon="2.490946109">
        <ele>341.41</ele>
        <time>2013-12-24T09:56:10Z</time>
      </trkpt>
      <trkpt lat="41.642121750" lon="2.490805712">
        <ele>342.37</ele>
        <time>2013-12-24T09:56:17Z</time>
      </trkpt>
      <trkpt lat="41.642069531" lon="2.490719294">
        <ele>343.33</ele>
        <time>2013-12-24T09:56:22Z</time>
      </trkpt>
      <trkpt lat="41.642100376" lon="2.490625752">
        <ele>343.33</ele>
        <time>2013-12-24T09:56:26Z</time>
      </trkpt>
      <trkpt lat="41.642260303" lon="2.490507819">
        <ele>343.33</ele>
        <time>2013-12-24T09:56:33Z</time>
      </trkpt>
      <trkpt lat="41.642485944" lon="2.490488289">
        <ele>342.37</ele>
        <time>2013-12-24T09:56:40Z</time>
      </trkpt>
      <trkpt lat="41.642645451" lon="2.490463060">
        <ele>342.37</ele>
        <time>2013-12-24T09:56:47Z</time>
      </trkpt>
      <trkpt lat="41.642761708" lon="2.490438920">
        <ele>343.81</ele>
        <time>2013-12-24T09:56:53Z</time>
      </trkpt>
      <trkpt lat="41.642851059" lon="2.490327021">
        <ele>344.77</ele>
        <time>2013-12-24T09:57:00Z</time>
      </trkpt>
      <trkpt lat="41.642913085" lon="2.490116300">
        <ele>345.25</ele>
        <time>2013-12-24T09:57:08Z</time>
      </trkpt>
      <trkpt lat="41.642977626" lon="2.489916392">
        <ele>345.73</ele>
        <time>2013-12-24T09:57:16Z</time>
      </trkpt>
      <trkpt lat="41.643037389" lon="2.489807008">
        <ele>345.73</ele>
        <time>2013-12-24T09:57:20Z</time>
      </trkpt>
      <trkpt lat="41.643177954" lon="2.489790663">
        <ele>345.73</ele>
        <time>2013-12-24T09:57:25Z</time>
      </trkpt>
      <trkpt lat="41.643372330" lon="2.489901304">
        <ele>344.29</ele>
        <time>2013-12-24T09:57:31Z</time>
      </trkpt>
      <trkpt lat="41.643524964" lon="2.490000630">
        <ele>344.29</ele>
        <time>2013-12-24T09:57:38Z</time>
      </trkpt>
      <trkpt lat="41.643706097" lon="2.490094172">
        <ele>342.85</ele>
        <time>2013-12-24T09:57:44Z</time>
      </trkpt>
      <trkpt lat="41.643750521" lon="2.490118647">
        <ele>342.85</ele>
        <time>2013-12-24T09:57:45Z</time>
      </trkpt>
      <trkpt lat="41.644125863" lon="2.490244627">
        <ele>339.48</ele>
        <time>2013-12-24T09:57:52Z</time>
      </trkpt>
      <trkpt lat="41.644295596" lon="2.490281508">
        <ele>338.04</ele>
        <time>2013-12-24T09:57:55Z</time>
      </trkpt>
      <trkpt lat="41.644500115" lon="2.490308413">
        <ele>337.08</ele>
        <time>2013-12-24T09:57:59Z</time>
      </trkpt>
      <trkpt lat="41.644680242" lon="2.490360214">
        <ele>335.16</ele>
        <time>2013-12-24T09:58:03Z</time>
      </trkpt>
      <trkpt lat="41.644744280" lon="2.490337247">
        <ele>333.71</ele>
        <time>2013-12-24T09:58:05Z</time>
      </trkpt>
      <trkpt lat="41.644764648" lon="2.490258457">
        <ele>332.27</ele>
        <time>2013-12-24T09:58:10Z</time>
      </trkpt>
      <trkpt lat="41.644699017" lon="2.490239933">
        <ele>333.71</ele>
        <time>2013-12-24T09:58:14Z</time>
      </trkpt>
      <trkpt lat="41.644521070" lon="2.490211267">
        <ele>335.16</ele>
        <time>2013-12-24T09:58:23Z</time>
      </trkpt>
      <trkpt lat="41.644326442" lon="2.490180086">
        <ele>335.64</ele>
        <time>2013-12-24T09:58:32Z</time>
      </trkpt>
      <trkpt lat="41.644168527" lon="2.490064165">
        <ele>335.64</ele>
        <time>2013-12-24T09:58:39Z</time>
      </trkpt>
      <trkpt lat="41.643986388" lon="2.489843050">
        <ele>334.20</ele>
        <time>2013-12-24T09:58:46Z</time>
      </trkpt>
      <trkpt lat="41.643832077" lon="2.489640711">
        <ele>333.71</ele>
        <time>2013-12-24T09:58:51Z</time>
      </trkpt>
      <trkpt lat="41.643628397" lon="2.489299568">
        <ele>329.87</ele>
        <time>2013-12-24T09:58:58Z</time>
      </trkpt>
      <trkpt lat="41.643556061" lon="2.489176773">
        <ele>328.91</ele>
        <time>2013-12-24T09:59:00Z</time>
      </trkpt>
      <trkpt lat="41.643483306" lon="2.489039812">
        <ele>328.43</ele>
        <time>2013-12-24T09:59:02Z</time>
      </trkpt>
      <trkpt lat="41.643472326" lon="2.488764551">
        <ele>328.43</ele>
        <time>2013-12-24T09:59:06Z</time>
      </trkpt>
      <trkpt lat="41.643613142" lon="2.488694478">
        <ele>328.43</ele>
        <time>2013-12-24T09:59:10Z</time>
      </trkpt>
      <trkpt lat="41.643703750" lon="2.488674613">
        <ele>328.43</ele>
        <time>2013-12-24T09:59:13Z</time>
      </trkpt>
      <trkpt lat="41.643848590" lon="2.488623735">
        <ele>331.31</ele>
        <time>2013-12-24T09:59:20Z</time>
      </trkpt>
      <trkpt lat="41.643965182" lon="2.488508400">
        <ele>333.23</ele>
        <time>2013-12-24T09:59:28Z</time>
      </trkpt>
      <trkpt lat="41.644058137" lon="2.488400525">
        <ele>335.16</ele>
        <time>2013-12-24T09:59:35Z</time>
      </trkpt>
      <trkpt lat="41.644094179" lon="2.488231126">
        <ele>336.12</ele>
        <time>2013-12-24T09:59:43Z</time>
      </trkpt>
      <trkpt lat="41.644063250" lon="2.488153929">
        <ele>336.12</ele>
        <time>2013-12-24T09:59:47Z</time>
      </trkpt>
      <trkpt lat="41.643965349" lon="2.488026356">
        <ele>338.52</ele>
        <time>2013-12-24T09:59:55Z</time>
      </trkpt>
      <trkpt lat="41.643937354" lon="2.487987884">
        <ele>339.00</ele>
        <time>2013-12-24T09:59:58Z</time>
      </trkpt>
      <trkpt lat="41.643853283" lon="2.487857126">
        <ele>341.41</ele>
        <time>2013-12-24T10:00:07Z</time>
      </trkpt>
      <trkpt lat="41.643836436" lon="2.487823682">
        <ele>341.89</ele>
        <time>2013-12-24T10:00:09Z</time>
      </trkpt>
      <trkpt lat="41.643768039" lon="2.487702144">
        <ele>343.81</ele>
        <time>2013-12-24T10:00:17Z</time>
      </trkpt>
      <trkpt lat="41.643734177" lon="2.487643303">
        <ele>344.29</ele>
        <time>2013-12-24T10:00:21Z</time>
      </trkpt>
      <trkpt lat="41.643691010" lon="2.487572644">
        <ele>345.73</ele>
        <time>2013-12-24T10:00:27Z</time>
      </trkpt>
      <trkpt lat="41.643631834" lon="2.487516737">
        <ele>346.69</ele>
        <time>2013-12-24T10:00:32Z</time>
      </trkpt>
      <trkpt lat="41.643548601" lon="2.487423949">
        <ele>348.13</ele>
        <time>2013-12-24T10:00:40Z</time>
      </trkpt>
      <trkpt lat="41.643492359" lon="2.487319343">
        <ele>349.58</ele>
        <time>2013-12-24T10:00:47Z</time>
      </trkpt>
      <trkpt lat="41.643412312" lon="2.487168133">
        <ele>351.50</ele>
        <time>2013-12-24T10:00:57Z</time>
      </trkpt>
      <trkpt lat="41.643375264" lon="2.487042572">
        <ele>352.46</ele>
        <time>2013-12-24T10:01:04Z</time>
      </trkpt>
      <trkpt lat="41.643370402" lon="2.487024887">
        <ele>352.94</ele>
        <time>2013-12-24T10:01:05Z</time>
      </trkpt>
      <trkpt lat="41.643378868" lon="2.486940984">
        <ele>354.38</ele>
        <time>2013-12-24T10:01:10Z</time>
      </trkpt>
      <trkpt lat="41.643496131" lon="2.486834198">
        <ele>356.31</ele>
        <time>2013-12-24T10:01:20Z</time>
      </trkpt>
      <trkpt lat="41.643611717" lon="2.486771753">
        <ele>357.75</ele>
        <time>2013-12-24T10:01:29Z</time>
      </trkpt>
      <trkpt lat="41.643661673" lon="2.486644348">
        <ele>359.19</ele>
        <time>2013-12-24T10:01:37Z</time>
      </trkpt>
      <trkpt lat="41.643663014" lon="2.486537814">
        <ele>360.63</ele>
        <time>2013-12-24T10:01:43Z</time>
      </trkpt>
      <trkpt lat="41.643649100" lon="2.486351987">
        <ele>363.04</ele>
        <time>2013-12-24T10:01:54Z</time>
      </trkpt>
      <trkpt lat="41.643623535" lon="2.486213351">
        <ele>364.00</ele>
        <time>2013-12-24T10:02:02Z</time>
      </trkpt>
      <trkpt lat="41.643603335" lon="2.486070858">
        <ele>365.44</ele>
        <time>2013-12-24T10:02:10Z</time>
      </trkpt>
      <trkpt lat="41.643583302" lon="2.485901125">
        <ele>366.88</ele>
        <time>2013-12-24T10:02:19Z</time>
      </trkpt>
      <trkpt lat="41.643575842" lon="2.485847648">
        <ele>367.36</ele>
        <time>2013-12-24T10:02:22Z</time>
      </trkpt>
      <trkpt lat="41.643508368" lon="2.485714376">
        <ele>369.28</ele>
        <time>2013-12-24T10:02:31Z</time>
      </trkpt>
      <trkpt lat="41.643444498" lon="2.485631647">
        <ele>370.73</ele>
        <time>2013-12-24T10:02:38Z</time>
      </trkpt>
      <trkpt lat="41.643330253" lon="2.485562496">
        <ele>372.65</ele>
        <time>2013-12-24T10:02:47Z</time>
      </trkpt>
      <trkpt lat="41.643201088" lon="2.485434253">
        <ele>374.57</ele>
        <time>2013-12-24T10:02:59Z</time>
      </trkpt>
      <trkpt lat="41.643120370" lon="2.485298131">
        <ele>376.49</ele>
        <time>2013-12-24T10:03:09Z</time>
      </trkpt>
      <trkpt lat="41.643089273" lon="2.485242140">
        <ele>376.49</ele>
        <time>2013-12-24T10:03:13Z</time>
      </trkpt>
      <trkpt lat="41.643001095" lon="2.485115321">
        <ele>378.90</ele>
        <time>2013-12-24T10:03:23Z</time>
      </trkpt>
      <trkpt lat="41.642935297" lon="2.485012811">
        <ele>380.82</ele>
        <time>2013-12-24T10:03:31Z</time>
      </trkpt>
      <trkpt lat="41.642844354" lon="2.484920358">
        <ele>381.78</ele>
        <time>2013-12-24T10:03:40Z</time>
      </trkpt>
      <trkpt lat="41.642733461" lon="2.484874090">
        <ele>383.22</ele>
        <time>2013-12-24T10:03:48Z</time>
      </trkpt>
      <trkpt lat="41.642603039" lon="2.484893369">
        <ele>384.18</ele>
        <time>2013-12-24T10:03:57Z</time>
      </trkpt>
      <trkpt lat="41.642452416" lon="2.484864451">
        <ele>385.63</ele>
        <time>2013-12-24T10:04:06Z</time>
      </trkpt>
      <trkpt lat="41.642350660" lon="2.484763030">
        <ele>386.59</ele>
        <time>2013-12-24T10:04:14Z</time>
      </trkpt>
      <trkpt lat="41.642286622" lon="2.484634619">
        <ele>386.59</ele>
        <time>2013-12-24T10:04:20Z</time>
      </trkpt>
      <trkpt lat="41.642302045" lon="2.484417360">
        <ele>387.55</ele>
        <time>2013-12-24T10:04:29Z</time>
      </trkpt>
      <trkpt lat="41.642317635" lon="2.484345527">
        <ele>388.03</ele>
        <time>2013-12-24T10:04:36Z</time>
      </trkpt>
      <trkpt lat="41.642308247" lon="2.484341504">
        <ele>388.03</ele>
        <time>2013-12-24T10:04:46Z</time>
      </trkpt>
      <trkpt lat="41.642311097" lon="2.484286938">
        <ele>388.03</ele>
        <time>2013-12-24T10:04:57Z</time>
      </trkpt>
      <trkpt lat="41.642325849" lon="2.484271348">
        <ele>388.51</ele>
        <time>2013-12-24T10:04:59Z</time>
      </trkpt>
      <trkpt lat="41.642407321" lon="2.484137237">
        <ele>389.47</ele>
        <time>2013-12-24T10:05:08Z</time>
      </trkpt>
      <trkpt lat="41.642429785" lon="2.484080911">
        <ele>389.95</ele>
        <time>2013-12-24T10:05:11Z</time>
      </trkpt>
      <trkpt lat="41.642407321" lon="2.483842446">
        <ele>390.43</ele>
        <time>2013-12-24T10:05:21Z</time>
      </trkpt>
      <trkpt lat="41.642357700" lon="2.483625941">
        <ele>391.39</ele>
        <time>2013-12-24T10:05:31Z</time>
      </trkpt>
      <trkpt lat="41.642431210" lon="2.483417316">
        <ele>392.36</ele>
        <time>2013-12-24T10:05:40Z</time>
      </trkpt>
      <trkpt lat="41.642530703" lon="2.483183041">
        <ele>393.32</ele>
        <time>2013-12-24T10:05:51Z</time>
      </trkpt>
      <trkpt lat="41.642556268" lon="2.483128643">
        <ele>393.32</ele>
        <time>2013-12-24T10:05:54Z</time>
      </trkpt>
      <trkpt lat="41.642633381" lon="2.483063599">
        <ele>394.28</ele>
        <time>2013-12-24T10:06:00Z</time>
      </trkpt>
      <trkpt lat="41.642802025" lon="2.483028395">
        <ele>394.76</ele>
        <time>2013-12-24T10:06:10Z</time>
      </trkpt>
      <trkpt lat="41.642943344" lon="2.483044069">
        <ele>394.76</ele>
        <time>2013-12-24T10:06:17Z</time>
      </trkpt>
      <trkpt lat="41.642992630" lon="2.482910713">
        <ele>394.76</ele>
        <time>2013-12-24T10:06:22Z</time>
      </trkpt>
      <trkpt lat="41.643001514" lon="2.482695382">
        <ele>393.80</ele>
        <time>2013-12-24T10:06:26Z</time>
      </trkpt>
      <trkpt lat="41.643022302" lon="2.482588932">
        <ele>392.84</ele>
        <time>2013-12-24T10:06:28Z</time>
      </trkpt>
      <trkpt lat="41.643075527" lon="2.482427161">
        <ele>391.87</ele>
        <time>2013-12-24T10:06:31Z</time>
      </trkpt>
      <trkpt lat="41.643092458" lon="2.482364549">
        <ele>390.91</ele>
        <time>2013-12-24T10:06:32Z</time>
      </trkpt>
      <trkpt lat="41.643222378" lon="2.481983507">
        <ele>388.99</ele>
        <time>2013-12-24T10:06:38Z</time>
      </trkpt>
      <trkpt lat="41.643270657" lon="2.481959870">
        <ele>388.99</ele>
        <time>2013-12-24T10:06:39Z</time>
      </trkpt>
      <trkpt lat="41.643469225" lon="2.481847301">
        <ele>388.99</ele>
        <time>2013-12-24T10:06:45Z</time>
      </trkpt>
      <trkpt lat="41.643503842" lon="2.481684273">
        <ele>388.99</ele>
        <time>2013-12-24T10:06:51Z</time>
      </trkpt>
      <trkpt lat="41.643494370" lon="2.481467769">
        <ele>391.87</ele>
        <time>2013-12-24T10:06:59Z</time>
      </trkpt>
      <trkpt lat="41.643466794" lon="2.481269788">
        <ele>394.28</ele>
        <time>2013-12-24T10:07:07Z</time>
      </trkpt>
      <trkpt lat="41.643433434" lon="2.481083291">
        <ele>396.20</ele>
        <time>2013-12-24T10:07:14Z</time>
      </trkpt>
      <trkpt lat="41.643377191" lon="2.480924957">
        <ele>397.16</ele>
        <time>2013-12-24T10:07:21Z</time>
      </trkpt>
      <trkpt lat="41.643269232" lon="2.480782716">
        <ele>399.08</ele>
        <time>2013-12-24T10:07:30Z</time>
      </trkpt>
      <trkpt lat="41.643201339" lon="2.480651204">
        <ele>400.53</ele>
        <time>2013-12-24T10:07:37Z</time>
      </trkpt>
      <trkpt lat="41.643196645" lon="2.480572246">
        <ele>401.49</ele>
        <time>2013-12-24T10:07:41Z</time>
      </trkpt>
      <trkpt lat="41.643230005" lon="2.480336379">
        <ele>403.41</ele>
        <time>2013-12-24T10:07:52Z</time>
      </trkpt>
      <trkpt lat="41.643201339" lon="2.480151139">
        <ele>405.33</ele>
        <time>2013-12-24T10:08:01Z</time>
      </trkpt>
      <trkpt lat="41.643145683" lon="2.479958775">
        <ele>406.77</ele>
        <time>2013-12-24T10:08:11Z</time>
      </trkpt>
      <trkpt lat="41.643118526" lon="2.479788622">
        <ele>408.22</ele>
        <time>2013-12-24T10:08:19Z</time>
      </trkpt>
      <trkpt lat="41.643079969" lon="2.479653254">
        <ele>409.18</ele>
        <time>2013-12-24T10:08:27Z</time>
      </trkpt>
      <trkpt lat="41.643000173" lon="2.479552420">
        <ele>411.58</ele>
        <time>2013-12-24T10:08:36Z</time>
      </trkpt>
      <trkpt lat="41.642895316" lon="2.479468098">
        <ele>413.50</ele>
        <time>2013-12-24T10:08:46Z</time>
      </trkpt>
      <trkpt lat="41.642829685" lon="2.479507744">
        <ele>414.95</ele>
        <time>2013-12-24T10:08:52Z</time>
      </trkpt>
      <trkpt lat="41.642826836" lon="2.479568010">
        <ele>415.43</ele>
        <time>2013-12-24T10:08:57Z</time>
      </trkpt>
      <trkpt lat="41.642893556" lon="2.479687788">
        <ele>417.35</ele>
        <time>2013-12-24T10:09:06Z</time>
      </trkpt>
      <trkpt lat="41.642901183" lon="2.479704887">
        <ele>417.83</ele>
        <time>2013-12-24T10:09:07Z</time>
      </trkpt>
      <trkpt lat="41.642955246" lon="2.479869424">
        <ele>418.79</ele>
        <time>2013-12-24T10:09:16Z</time>
      </trkpt>
      <trkpt lat="41.642960443" lon="2.480105542">
        <ele>419.27</ele>
        <time>2013-12-24T10:09:25Z</time>
      </trkpt>
      <trkpt lat="41.642945523" lon="2.480260942">
        <ele>419.75</ele>
        <time>2013-12-24T10:09:31Z</time>
      </trkpt>
      <trkpt lat="41.642932615" lon="2.480365800">
        <ele>419.75</ele>
        <time>2013-12-24T10:09:35Z</time>
      </trkpt>
      <trkpt lat="41.642872014" lon="2.480615245">
        <ele>420.23</ele>
        <time>2013-12-24T10:09:45Z</time>
      </trkpt>
      <trkpt lat="41.642886515" lon="2.480800234">
        <ele>420.71</ele>
        <time>2013-12-24T10:09:52Z</time>
      </trkpt>
      <trkpt lat="41.642872182" lon="2.481018750">
        <ele>421.19</ele>
        <time>2013-12-24T10:09:59Z</time>
      </trkpt>
      <trkpt lat="41.642732372" lon="2.481193513">
        <ele>421.68</ele>
        <time>2013-12-24T10:10:07Z</time>
      </trkpt>
      <trkpt lat="41.642575881" lon="2.481271297">
        <ele>422.16</ele>
        <time>2013-12-24T10:10:14Z</time>
      </trkpt>
      <trkpt lat="41.642385864" lon="2.481348243">
        <ele>422.16</ele>
        <time>2013-12-24T10:10:22Z</time>
      </trkpt>
      <trkpt lat="41.642192074" lon="2.481321672">
        <ele>422.16</ele>
        <time>2013-12-24T10:10:30Z</time>
      </trkpt>
      <trkpt lat="41.642167850" lon="2.481313542">
        <ele>422.16</ele>
        <time>2013-12-24T10:10:31Z</time>
      </trkpt>
      <trkpt lat="41.642097023" lon="2.481394846">
        <ele>422.16</ele>
        <time>2013-12-24T10:10:36Z</time>
      </trkpt>
      <trkpt lat="41.642179669" lon="2.481643118">
        <ele>422.64</ele>
        <time>2013-12-24T10:10:45Z</time>
      </trkpt>
      <trkpt lat="41.642302464" lon="2.481791143">
        <ele>423.60</ele>
        <time>2013-12-24T10:10:52Z</time>
      </trkpt>
      <trkpt lat="41.642322832" lon="2.481975461">
        <ele>423.60</ele>
        <time>2013-12-24T10:10:58Z</time>
      </trkpt>
      <trkpt lat="41.642182351" lon="2.482144859">
        <ele>423.60</ele>
        <time>2013-12-24T10:11:04Z</time>
      </trkpt>
      <trkpt lat="41.642035584" lon="2.482386928">
        <ele>423.60</ele>
        <time>2013-12-24T10:11:11Z</time>
      </trkpt>
      <trkpt lat="41.642014126" lon="2.482525733">
        <ele>422.16</ele>
        <time>2013-12-24T10:11:14Z</time>
      </trkpt>
      <trkpt lat="41.641911532" lon="2.482989000">
        <ele>421.19</ele>
        <time>2013-12-24T10:11:22Z</time>
      </trkpt>
      <trkpt lat="41.641807596" lon="2.483164098">
        <ele>420.71</ele>
        <time>2013-12-24T10:11:26Z</time>
      </trkpt>
      <trkpt lat="41.641521689" lon="2.483450592">
        <ele>420.71</ele>
        <time>2013-12-24T10:11:37Z</time>
      </trkpt>
      <trkpt lat="41.641434015" lon="2.483525107">
        <ele>422.64</ele>
        <time>2013-12-24T10:11:41Z</time>
      </trkpt>
      <trkpt lat="41.641419179" lon="2.483547067">
        <ele>422.64</ele>
        <time>2013-12-24T10:11:42Z</time>
      </trkpt>
      <trkpt lat="41.641439463" lon="2.483704731">
        <ele>424.08</ele>
        <time>2013-12-24T10:11:48Z</time>
      </trkpt>
      <trkpt lat="41.641543734" lon="2.483947219">
        <ele>426.00</ele>
        <time>2013-12-24T10:11:58Z</time>
      </trkpt>
      <trkpt lat="41.641488497" lon="2.484171352">
        <ele>427.92</ele>
        <time>2013-12-24T10:12:07Z</time>
      </trkpt>
      <trkpt lat="41.641372156" lon="2.484311413">
        <ele>429.37</ele>
        <time>2013-12-24T10:12:16Z</time>
      </trkpt>
      <trkpt lat="41.641225892" lon="2.484403614">
        <ele>431.29</ele>
        <time>2013-12-24T10:12:25Z</time>
      </trkpt>
      <trkpt lat="41.641209464" lon="2.484416271">
        <ele>431.77</ele>
        <time>2013-12-24T10:12:26Z</time>
      </trkpt>
      <trkpt lat="41.641140229" lon="2.484552896">
        <ele>433.69</ele>
        <time>2013-12-24T10:12:33Z</time>
      </trkpt>
      <trkpt lat="41.641105863" lon="2.484707793">
        <ele>435.61</ele>
        <time>2013-12-24T10:12:40Z</time>
      </trkpt>
      <trkpt lat="41.641049034" lon="2.484768646">
        <ele>436.58</ele>
        <time>2013-12-24T10:12:47Z</time>
      </trkpt>
      <trkpt lat="41.641017602" lon="2.484749787">
        <ele>437.06</ele>
        <time>2013-12-24T10:12:50Z</time>
      </trkpt>
      <trkpt lat="41.640974016" lon="2.484602600">
        <ele>438.50</ele>
        <time>2013-12-24T10:12:59Z</time>
      </trkpt>
      <trkpt lat="41.640964293" lon="2.484432699">
        <ele>438.98</ele>
        <time>2013-12-24T10:13:08Z</time>
      </trkpt>
      <trkpt lat="41.640959264" lon="2.484238239">
        <ele>440.90</ele>
        <time>2013-12-24T10:13:17Z</time>
      </trkpt>
      <trkpt lat="41.640924646" lon="2.484055346">
        <ele>442.34</ele>
        <time>2013-12-24T10:13:26Z</time>
      </trkpt>
      <trkpt lat="41.640877037" lon="2.483875470">
        <ele>443.79</ele>
        <time>2013-12-24T10:13:35Z</time>
      </trkpt>
      <trkpt lat="41.640850383" lon="2.483736247">
        <ele>445.23</ele>
        <time>2013-12-24T10:13:42Z</time>
      </trkpt>
      <trkpt lat="41.640802355" lon="2.483552097">
        <ele>447.15</ele>
        <time>2013-12-24T10:13:52Z</time>
      </trkpt>
      <trkpt lat="41.640750387" lon="2.483395020">
        <ele>448.59</ele>
        <time>2013-12-24T10:14:01Z</time>
      </trkpt>
      <trkpt lat="41.640695066" lon="2.483279098">
        <ele>450.03</ele>
        <time>2013-12-24T10:14:08Z</time>
      </trkpt>
      <trkpt lat="41.640622060" lon="2.483161835">
        <ele>452.44</ele>
        <time>2013-12-24T10:14:17Z</time>
      </trkpt>
      <trkpt lat="41.640520220" lon="2.483038873">
        <ele>454.36</ele>
        <time>2013-12-24T10:14:27Z</time>
      </trkpt>
      <trkpt lat="41.640477807" lon="2.482991515">
        <ele>455.80</ele>
        <time>2013-12-24T10:14:31Z</time>
      </trkpt>
      <trkpt lat="41.640372195" lon="2.482845251">
        <ele>457.72</ele>
        <time>2013-12-24T10:14:42Z</time>
      </trkpt>
      <trkpt lat="41.640353001" lon="2.482816082">
        <ele>457.72</ele>
        <time>2013-12-24T10:14:44Z</time>
      </trkpt>
      <trkpt lat="41.640301284" lon="2.482652635">
        <ele>458.69</ele>
        <time>2013-12-24T10:14:53Z</time>
      </trkpt>
      <trkpt lat="41.640264153" lon="2.482566720">
        <ele>459.65</ele>
        <time>2013-12-24T10:14:58Z</time>
      </trkpt>
      <trkpt lat="41.640192068" lon="2.482550794">
        <ele>461.57</ele>
        <time>2013-12-24T10:15:04Z</time>
      </trkpt>
      <trkpt lat="41.640123504" lon="2.482618017">
        <ele>462.53</ele>
        <time>2013-12-24T10:15:11Z</time>
      </trkpt>
      <trkpt lat="41.640114619" lon="2.482647019">
        <ele>463.49</ele>
        <time>2013-12-24T10:15:13Z</time>
      </trkpt>
      <trkpt lat="41.640090647" lon="2.482706949">
        <ele>463.97</ele>
        <time>2013-12-24T10:15:17Z</time>
      </trkpt>
      <trkpt lat="41.639970786" lon="2.482803173">
        <ele>465.42</ele>
        <time>2013-12-24T10:15:27Z</time>
      </trkpt>
      <trkpt lat="41.639865258" lon="2.482788170">
        <ele>466.38</ele>
        <time>2013-12-24T10:15:34Z</time>
      </trkpt>
      <trkpt lat="41.639753192" lon="2.482742908">
        <ele>466.38</ele>
        <time>2013-12-24T10:15:42Z</time>
      </trkpt>
      <trkpt lat="41.639625284" lon="2.482697645">
        <ele>466.86</ele>
        <time>2013-12-24T10:15:51Z</time>
      </trkpt>
      <trkpt lat="41.639494945" lon="2.482648444">
        <ele>468.30</ele>
        <time>2013-12-24T10:16:01Z</time>
      </trkpt>
      <trkpt lat="41.639394530" lon="2.482621621">
        <ele>468.78</ele>
        <time>2013-12-24T10:16:09Z</time>
      </trkpt>
      <trkpt lat="41.639236531" lon="2.482641235">
        <ele>469.26</ele>
        <time>2013-12-24T10:16:20Z</time>
      </trkpt>
      <trkpt lat="41.639081215" lon="2.482702842">
        <ele>469.74</ele>
        <time>2013-12-24T10:16:30Z</time>
      </trkpt>
      <trkpt lat="41.639039556" lon="2.482708374">
        <ele>470.22</ele>
        <time>2013-12-24T10:16:33Z</time>
      </trkpt>
      <trkpt lat="41.638986834" lon="2.482690102">
        <ele>470.70</ele>
        <time>2013-12-24T10:16:37Z</time>
      </trkpt>
      <trkpt lat="41.638932352" lon="2.482636709">
        <ele>471.18</ele>
        <time>2013-12-24T10:16:42Z</time>
      </trkpt>
      <trkpt lat="41.638870074" lon="2.482500000">
        <ele>472.63</ele>
        <time>2013-12-24T10:16:50Z</time>
      </trkpt>
      <trkpt lat="41.638827830" lon="2.482368572">
        <ele>473.59</ele>
        <time>2013-12-24T10:16:57Z</time>
      </trkpt>
      <trkpt lat="41.638741999" lon="2.482231192">
        <ele>475.03</ele>
        <time>2013-12-24T10:17:06Z</time>
      </trkpt>
      <trkpt lat="41.638665472" lon="2.482208310">
        <ele>476.47</ele>
        <time>2013-12-24T10:17:12Z</time>
      </trkpt>
      <trkpt lat="41.638605709" lon="2.482240245">
        <ele>477.43</ele>
        <time>2013-12-24T10:17:17Z</time>
      </trkpt>
      <trkpt lat="41.638483082" lon="2.482351892">
        <ele>479.84</ele>
        <time>2013-12-24T10:17:28Z</time>
      </trkpt>
      <trkpt lat="41.638396497" lon="2.482487762">
        <ele>480.80</ele>
        <time>2013-12-24T10:17:37Z</time>
      </trkpt>
      <trkpt lat="41.638301195" lon="2.482601086">
        <ele>482.24</ele>
        <time>2013-12-24T10:17:46Z</time>
      </trkpt>
      <trkpt lat="41.638223327" lon="2.482681971">
        <ele>483.68</ele>
        <time>2013-12-24T10:17:53Z</time>
      </trkpt>
      <trkpt lat="41.638128276" lon="2.482785069">
        <ele>484.16</ele>
        <time>2013-12-24T10:18:01Z</time>
      </trkpt>
      <trkpt lat="41.638046636" lon="2.482925382">
        <ele>486.08</ele>
        <time>2013-12-24T10:18:11Z</time>
      </trkpt>
      <trkpt lat="41.638016042" lon="2.483040968">
        <ele>488.01</ele>
        <time>2013-12-24T10:18:18Z</time>
      </trkpt>
      <trkpt lat="41.638018976" lon="2.483198213">
        <ele>488.97</ele>
        <time>2013-12-24T10:18:27Z</time>
      </trkpt>
      <trkpt lat="41.638006906" lon="2.483353445">
        <ele>491.85</ele>
        <time>2013-12-24T10:18:36Z</time>
      </trkpt>
      <trkpt lat="41.638026101" lon="2.483532567">
        <ele>493.77</ele>
        <time>2013-12-24T10:18:46Z</time>
      </trkpt>
      <trkpt lat="41.638028028" lon="2.483718394">
        <ele>494.74</ele>
        <time>2013-12-24T10:18:55Z</time>
      </trkpt>
      <trkpt lat="41.638002715" lon="2.483880751">
        <ele>496.18</ele>
        <time>2013-12-24T10:19:03Z</time>
      </trkpt>
      <trkpt lat="41.637943706" lon="2.484049730">
        <ele>496.66</ele>
        <time>2013-12-24T10:19:11Z</time>
      </trkpt>
      <trkpt lat="41.637894337" lon="2.484256512">
        <ele>498.10</ele>
        <time>2013-12-24T10:19:21Z</time>
      </trkpt>
      <trkpt lat="41.637873466" lon="2.484473184">
        <ele>499.54</ele>
        <time>2013-12-24T10:19:31Z</time>
      </trkpt>
      <trkpt lat="41.637839519" lon="2.484684827">
        <ele>500.50</ele>
        <time>2013-12-24T10:19:41Z</time>
      </trkpt>
      <trkpt lat="41.637769195" lon="2.484817345">
        <ele>502.43</ele>
        <time>2013-12-24T10:19:49Z</time>
      </trkpt>
      <trkpt lat="41.637731728" lon="2.484981127">
        <ele>503.39</ele>
        <time>2013-12-24T10:19:57Z</time>
      </trkpt>
      <trkpt lat="41.637744804" lon="2.485158907">
        <ele>504.83</ele>
        <time>2013-12-24T10:20:05Z</time>
      </trkpt>
      <trkpt lat="41.637782103" lon="2.485366946">
        <ele>504.83</ele>
        <time>2013-12-24T10:20:13Z</time>
      </trkpt>
      <trkpt lat="41.637793419" lon="2.485517904">
        <ele>504.83</ele>
        <time>2013-12-24T10:20:18Z</time>
      </trkpt>
      <trkpt lat="41.637777158" lon="2.485697864">
        <ele>503.39</ele>
        <time>2013-12-24T10:20:23Z</time>
      </trkpt>
      <trkpt lat="41.637740194" lon="2.486010090">
        <ele>502.91</ele>
        <time>2013-12-24T10:20:31Z</time>
      </trkpt>
      <trkpt lat="41.637734829" lon="2.486344947">
        <ele>502.43</ele>
        <time>2013-12-24T10:20:38Z</time>
      </trkpt>
      <trkpt lat="41.637755617" lon="2.486687850">
        <ele>502.43</ele>
        <time>2013-12-24T10:20:46Z</time>
      </trkpt>
      <trkpt lat="41.637752431" lon="2.487017343">
        <ele>502.43</ele>
        <time>2013-12-24T10:20:54Z</time>
      </trkpt>
      <trkpt lat="41.637624691" lon="2.487145335">
        <ele>502.43</ele>
        <time>2013-12-24T10:21:00Z</time>
      </trkpt>
      <trkpt lat="41.637434506" lon="2.487145083">
        <ele>503.87</ele>
        <time>2013-12-24T10:21:08Z</time>
      </trkpt>
      <trkpt lat="41.637298132" lon="2.487123709">
        <ele>505.31</ele>
        <time>2013-12-24T10:21:14Z</time>
      </trkpt>
      <trkpt lat="41.637136948" lon="2.487159416">
        <ele>505.31</ele>
        <time>2013-12-24T10:21:21Z</time>
      </trkpt>
      <trkpt lat="41.636862860" lon="2.487216078">
        <ele>505.31</ele>
        <time>2013-12-24T10:21:29Z</time>
      </trkpt>
      <trkpt lat="41.636668148" lon="2.487212725">
        <ele>505.31</ele>
        <time>2013-12-24T10:21:35Z</time>
      </trkpt>
      <trkpt lat="41.636485674" lon="2.487168050">
        <ele>505.31</ele>
        <time>2013-12-24T10:21:42Z</time>
      </trkpt>
      <trkpt lat="41.636285682" lon="2.487110801">
        <ele>505.79</ele>
        <time>2013-12-24T10:21:50Z</time>
      </trkpt>
      <trkpt lat="41.636037913" lon="2.487074005">
        <ele>505.79</ele>
        <time>2013-12-24T10:21:59Z</time>
      </trkpt>
      <trkpt lat="41.635814284" lon="2.486990102">
        <ele>506.27</ele>
        <time>2013-12-24T10:22:07Z</time>
      </trkpt>
      <trkpt lat="41.635660392" lon="2.486870492">
        <ele>506.75</ele>
        <time>2013-12-24T10:22:14Z</time>
      </trkpt>
      <trkpt lat="41.635564000" lon="2.486907037">
        <ele>506.75</ele>
        <time>2013-12-24T10:22:18Z</time>
      </trkpt>
      <trkpt lat="41.635290080" lon="2.487110047">
        <ele>507.71</ele>
        <time>2013-12-24T10:22:29Z</time>
      </trkpt>
      <trkpt lat="41.635127638" lon="2.487101665">
        <ele>509.16</ele>
        <time>2013-12-24T10:22:36Z</time>
      </trkpt>
      <trkpt lat="41.634899567" lon="2.487119854">
        <ele>509.64</ele>
        <time>2013-12-24T10:22:45Z</time>
      </trkpt>
      <trkpt lat="41.634746932" lon="2.487110885">
        <ele>510.60</ele>
        <time>2013-12-24T10:22:52Z</time>
      </trkpt>
      <trkpt lat="41.634546186" lon="2.487101916">
        <ele>511.08</ele>
        <time>2013-12-24T10:23:00Z</time>
      </trkpt>
      <trkpt lat="41.634524980" lon="2.487293610">
        <ele>511.08</ele>
        <time>2013-12-24T10:23:06Z</time>
      </trkpt>
      <trkpt lat="41.634532439" lon="2.487473570">
        <ele>511.56</ele>
        <time>2013-12-24T10:23:12Z</time>
      </trkpt>
      <trkpt lat="41.634452728" lon="2.487574823">
        <ele>512.04</ele>
        <time>2013-12-24T10:23:19Z</time>
      </trkpt>
      <trkpt lat="41.634414087" lon="2.487723183">
        <ele>514.44</ele>
        <time>2013-12-24T10:23:27Z</time>
      </trkpt>
      <trkpt lat="41.634399000" lon="2.487780431">
        <ele>516.37</ele>
        <time>2013-12-24T10:23:30Z</time>
      </trkpt>
      <trkpt lat="41.634353570" lon="2.487913033">
        <ele>518.29</ele>
        <time>2013-12-24T10:23:38Z</time>
      </trkpt>
      <trkpt lat="41.634282659" lon="2.488041360">
        <ele>519.73</ele>
        <time>2013-12-24T10:23:46Z</time>
      </trkpt>
      <trkpt lat="41.634183585" lon="2.488152839">
        <ele>521.65</ele>
        <time>2013-12-24T10:23:56Z</time>
      </trkpt>
      <trkpt lat="41.634070764" lon="2.488208914">
        <ele>522.13</ele>
        <time>2013-12-24T10:24:03Z</time>
      </trkpt>
      <trkpt lat="41.633966996" lon="2.488327099">
        <ele>524.06</ele>
        <time>2013-12-24T10:24:12Z</time>
      </trkpt>
      <trkpt lat="41.633887117" lon="2.488494653">
        <ele>525.02</ele>
        <time>2013-12-24T10:24:21Z</time>
      </trkpt>
      <trkpt lat="41.633848476" lon="2.488656843">
        <ele>526.94</ele>
        <time>2013-12-24T10:24:30Z</time>
      </trkpt>
      <trkpt lat="41.633830371" lon="2.488752984">
        <ele>527.42</ele>
        <time>2013-12-24T10:24:35Z</time>
      </trkpt>
      <trkpt lat="41.633721323" lon="2.488838898">
        <ele>528.38</ele>
        <time>2013-12-24T10:24:44Z</time>
      </trkpt>
      <trkpt lat="41.633653513" lon="2.488883406">
        <ele>529.34</ele>
        <time>2013-12-24T10:24:50Z</time>
      </trkpt>
      <trkpt lat="41.633642449" lon="2.488898326">
        <ele>529.34</ele>
        <time>2013-12-24T10:24:51Z</time>
      </trkpt>
      <trkpt lat="41.633615795" lon="2.489113657">
        <ele>529.34</ele>
        <time>2013-12-24T10:25:00Z</time>
      </trkpt>
      <trkpt lat="41.633609508" lon="2.489335274">
        <ele>529.82</ele>
        <time>2013-12-24T10:25:07Z</time>
      </trkpt>
      <trkpt lat="41.633634235" lon="2.489555802">
        <ele>528.38</ele>
        <time>2013-12-24T10:25:13Z</time>
      </trkpt>
      <trkpt lat="41.633489647" lon="2.489677843">
        <ele>525.50</ele>
        <time>2013-12-24T10:25:18Z</time>
      </trkpt>
      <trkpt lat="41.633360230" lon="2.489650685">
        <ele>524.06</ele>
        <time>2013-12-24T10:25:22Z</time>
      </trkpt>
      <trkpt lat="41.633159484" lon="2.489659654">
        <ele>519.25</ele>
        <time>2013-12-24T10:25:28Z</time>
      </trkpt>
      <trkpt lat="41.633121430" lon="2.489649093">
        <ele>519.25</ele>
        <time>2013-12-24T10:25:29Z</time>
      </trkpt>
      <trkpt lat="41.633049429" lon="2.489602825">
        <ele>518.29</ele>
        <time>2013-12-24T10:25:31Z</time>
      </trkpt>
      <trkpt lat="41.632884641" lon="2.489536356">
        <ele>515.40</ele>
        <time>2013-12-24T10:25:36Z</time>
      </trkpt>
      <trkpt lat="41.632793195" lon="2.489504589">
        <ele>513.00</ele>
        <time>2013-12-24T10:25:39Z</time>
      </trkpt>
      <trkpt lat="41.632680626" lon="2.489602741">
        <ele>510.12</ele>
        <time>2013-12-24T10:25:44Z</time>
      </trkpt>
      <trkpt lat="41.632610637" lon="2.489822850">
        <ele>506.27</ele>
        <time>2013-12-24T10:25:49Z</time>
      </trkpt>
      <trkpt lat="41.632607452" lon="2.489863753">
        <ele>505.79</ele>
        <time>2013-12-24T10:25:50Z</time>
      </trkpt>
      <trkpt lat="41.632609547" lon="2.489904909">
        <ele>506.27</ele>
        <time>2013-12-24T10:25:51Z</time>
      </trkpt>
      <trkpt lat="41.632643661" lon="2.490099620">
        <ele>502.43</ele>
        <time>2013-12-24T10:25:55Z</time>
      </trkpt>
      <trkpt lat="41.632577780" lon="2.490291314">
        <ele>499.06</ele>
        <time>2013-12-24T10:26:01Z</time>
      </trkpt>
      <trkpt lat="41.632566716" lon="2.490309671">
        <ele>498.10</ele>
        <time>2013-12-24T10:26:03Z</time>
      </trkpt>
      <trkpt lat="41.632465714" lon="2.490240520">
        <ele>498.10</ele>
        <time>2013-12-24T10:26:10Z</time>
      </trkpt>
      <trkpt lat="41.632377201" lon="2.490034577">
        <ele>497.62</ele>
        <time>2013-12-24T10:26:18Z</time>
      </trkpt>
      <trkpt lat="41.632301596" lon="2.489776330">
        <ele>497.14</ele>
        <time>2013-12-24T10:26:25Z</time>
      </trkpt>
      <trkpt lat="41.632193050" lon="2.489801979">
        <ele>497.14</ele>
        <time>2013-12-24T10:26:30Z</time>
      </trkpt>
      <trkpt lat="41.632091713" lon="2.489956457">
        <ele>499.06</ele>
        <time>2013-12-24T10:26:37Z</time>
      </trkpt>
      <trkpt lat="41.631949137" lon="2.490040444">
        <ele>495.70</ele>
        <time>2013-12-24T10:26:42Z</time>
      </trkpt>
      <trkpt lat="41.631844195" lon="2.490067518">
        <ele>494.26</ele>
        <time>2013-12-24T10:26:45Z</time>
      </trkpt>
      <trkpt lat="41.631750486" lon="2.490101632">
        <ele>492.33</ele>
        <time>2013-12-24T10:26:48Z</time>
      </trkpt>
      <trkpt lat="41.631618722" lon="2.490107248">
        <ele>491.37</ele>
        <time>2013-12-24T10:26:51Z</time>
      </trkpt>
      <trkpt lat="41.631377743" lon="2.490158461">
        <ele>488.97</ele>
        <time>2013-12-24T10:26:57Z</time>
      </trkpt>
      <trkpt lat="41.631315633" lon="2.490153516">
        <ele>488.01</ele>
        <time>2013-12-24T10:26:59Z</time>
      </trkpt>
      <trkpt lat="41.631245141" lon="2.490122335">
        <ele>487.05</ele>
        <time>2013-12-24T10:27:01Z</time>
      </trkpt>
      <trkpt lat="41.631109773" lon="2.490005994">
        <ele>484.64</ele>
        <time>2013-12-24T10:27:06Z</time>
      </trkpt>
      <trkpt lat="41.630959234" lon="2.489973053">
        <ele>484.16</ele>
        <time>2013-12-24T10:27:11Z</time>
      </trkpt>
      <trkpt lat="41.630812048" lon="2.490084030">
        <ele>484.16</ele>
        <time>2013-12-24T10:27:18Z</time>
      </trkpt>
      <trkpt lat="41.630742981" lon="2.490337247">
        <ele>484.16</ele>
        <time>2013-12-24T10:27:25Z</time>
      </trkpt>
      <trkpt lat="41.630647427" lon="2.490387539">
        <ele>484.16</ele>
        <time>2013-12-24T10:27:29Z</time>
      </trkpt>
      <trkpt lat="41.630536451" lon="2.490433052">
        <ele>483.20</ele>
        <time>2013-12-24T10:27:34Z</time>
      </trkpt>
      <trkpt lat="41.630476856" lon="2.490497258">
        <ele>483.20</ele>
        <time>2013-12-24T10:27:40Z</time>
      </trkpt>
      <trkpt lat="41.630469899" lon="2.490598679">
        <ele>482.72</ele>
        <time>2013-12-24T10:27:43Z</time>
      </trkpt>
      <trkpt lat="41.630437461" lon="2.490856841">
        <ele>480.32</ele>
        <time>2013-12-24T10:27:51Z</time>
      </trkpt>
      <trkpt lat="41.630291699" lon="2.491057336">
        <ele>478.39</ele>
        <time>2013-12-24T10:27:57Z</time>
      </trkpt>
      <trkpt lat="41.630106040" lon="2.491191363">
        <ele>477.91</ele>
        <time>2013-12-24T10:28:03Z</time>
      </trkpt>
      <trkpt lat="41.629981569" lon="2.491231932">
        <ele>477.91</ele>
        <time>2013-12-24T10:28:09Z</time>
      </trkpt>
      <trkpt lat="41.629872185" lon="2.491167056">
        <ele>478.87</ele>
        <time>2013-12-24T10:28:16Z</time>
      </trkpt>
      <trkpt lat="41.629829773" lon="2.491080387">
        <ele>479.35</ele>
        <time>2013-12-24T10:28:22Z</time>
      </trkpt>
      <trkpt lat="41.629714941" lon="2.490953233">
        <ele>479.84</ele>
        <time>2013-12-24T10:28:30Z</time>
      </trkpt>
      <trkpt lat="41.629580663" lon="2.490844855">
        <ele>480.80</ele>
        <time>2013-12-24T10:28:38Z</time>
      </trkpt>
      <trkpt lat="41.629455185" lon="2.490734214">
        <ele>481.28</ele>
        <time>2013-12-24T10:28:46Z</time>
      </trkpt>
      <trkpt lat="41.629318225" lon="2.490753576">
        <ele>481.76</ele>
        <time>2013-12-24T10:28:52Z</time>
      </trkpt>
      <trkpt lat="41.629208003" lon="2.490712589">
        <ele>481.76</ele>
        <time>2013-12-24T10:28:58Z</time>
      </trkpt>
      <trkpt lat="41.629178750" lon="2.490684426">
        <ele>481.76</ele>
        <time>2013-12-24T10:29:00Z</time>
      </trkpt>
      <trkpt lat="41.629155113" lon="2.490604965">
        <ele>480.32</ele>
        <time>2013-12-24T10:29:06Z</time>
      </trkpt>
      <trkpt lat="41.629145893" lon="2.490612090">
        <ele>480.32</ele>
        <time>2013-12-24T10:29:23Z</time>
      </trkpt>
      <trkpt lat="41.629146145" lon="2.490615191">
        <ele>479.84</ele>
        <time>2013-12-24T10:29:38Z</time>
      </trkpt>
      <trkpt lat="41.629118903" lon="2.490599852">
        <ele>479.84</ele>
        <time>2013-12-24T10:29:52Z</time>
      </trkpt>
      <trkpt lat="41.629116976" lon="2.490578981">
        <ele>479.84</ele>
        <time>2013-12-24T10:30:06Z</time>
      </trkpt>
      <trkpt lat="41.629130638" lon="2.490390724">
        <ele>478.39</ele>
        <time>2013-12-24T10:30:13Z</time>
      </trkpt>
      <trkpt lat="41.629143211" lon="2.490148906">
        <ele>475.51</ele>
        <time>2013-12-24T10:30:18Z</time>
      </trkpt>
      <trkpt lat="41.629137260" lon="2.490109259">
        <ele>475.51</ele>
        <time>2013-12-24T10:30:19Z</time>
      </trkpt>
      <trkpt lat="41.629076323" lon="2.489963163">
        <ele>472.63</ele>
        <time>2013-12-24T10:30:24Z</time>
      </trkpt>
      <trkpt lat="41.629060649" lon="2.489932904">
        <ele>472.14</ele>
        <time>2013-12-24T10:30:25Z</time>
      </trkpt>
      <trkpt lat="41.628881444" lon="2.489789155">
        <ele>467.82</ele>
        <time>2013-12-24T10:30:32Z</time>
      </trkpt>
      <trkpt lat="41.628851940" lon="2.489768284">
        <ele>467.82</ele>
        <time>2013-12-24T10:30:33Z</time>
      </trkpt>
      <trkpt lat="41.628754626" lon="2.489645992">
        <ele>464.45</ele>
        <time>2013-12-24T10:30:39Z</time>
      </trkpt>
      <trkpt lat="41.628699557" lon="2.489590168">
        <ele>463.97</ele>
        <time>2013-12-24T10:30:43Z</time>
      </trkpt>
      <trkpt lat="41.628667035" lon="2.489469133">
        <ele>463.97</ele>
        <time>2013-12-24T10:30:49Z</time>
      </trkpt>
      <trkpt lat="41.628652953" lon="2.489350362">
        <ele>465.42</ele>
        <time>2013-12-24T10:30:55Z</time>
      </trkpt>
      <trkpt lat="41.628652283" lon="2.489289509">
        <ele>465.42</ele>
        <time>2013-12-24T10:30:58Z</time>
      </trkpt>
      <trkpt lat="41.628715482" lon="2.489039058">
        <ele>465.42</ele>
        <time>2013-12-24T10:31:07Z</time>
      </trkpt>
      <trkpt lat="41.628713387" lon="2.488992706">
        <ele>463.49</ele>
        <time>2013-12-24T10:31:08Z</time>
      </trkpt>
      <trkpt lat="41.628631580" lon="2.488870833">
        <ele>462.53</ele>
        <time>2013-12-24T10:31:12Z</time>
      </trkpt>
      <trkpt lat="41.628546336" lon="2.488810567">
        <ele>461.57</ele>
        <time>2013-12-24T10:31:15Z</time>
      </trkpt>
      <trkpt lat="41.628399569" lon="2.488649467">
        <ele>458.69</ele>
        <time>2013-12-24T10:31:21Z</time>
      </trkpt>
      <trkpt lat="41.628419517" lon="2.488424413">
        <ele>457.24</ele>
        <time>2013-12-24T10:31:26Z</time>
      </trkpt>
      <trkpt lat="41.628423792" lon="2.488376636">
        <ele>457.24</ele>
        <time>2013-12-24T10:31:27Z</time>
      </trkpt>
      <trkpt lat="41.628307954" lon="2.488212435">
        <ele>455.80</ele>
        <time>2013-12-24T10:31:32Z</time>
      </trkpt>
      <trkpt lat="41.628137466" lon="2.488133896">
        <ele>455.80</ele>
        <time>2013-12-24T10:31:38Z</time>
      </trkpt>
      <trkpt lat="41.628024059" lon="2.487920996">
        <ele>455.32</ele>
        <time>2013-12-24T10:31:43Z</time>
      </trkpt>
      <trkpt lat="41.627966979" lon="2.487800380">
        <ele>454.84</ele>
        <time>2013-12-24T10:31:46Z</time>
      </trkpt>
      <trkpt lat="41.627853571" lon="2.487809684">
        <ele>454.84</ele>
        <time>2013-12-24T10:31:51Z</time>
      </trkpt>
      <trkpt lat="41.627844519" lon="2.487832818">
        <ele>454.84</ele>
        <time>2013-12-24T10:31:52Z</time>
      </trkpt>
      <trkpt lat="41.627724071" lon="2.488039768">
        <ele>454.84</ele>
        <time>2013-12-24T10:32:01Z</time>
      </trkpt>
      <trkpt lat="41.627669924" lon="2.488300864">
        <ele>453.40</ele>
        <time>2013-12-24T10:32:08Z</time>
      </trkpt>
      <trkpt lat="41.627575376" lon="2.488606300">
        <ele>450.52</ele>
        <time>2013-12-24T10:32:14Z</time>
      </trkpt>
      <trkpt lat="41.627457694" lon="2.488872510">
        <ele>449.55</ele>
        <time>2013-12-24T10:32:19Z</time>
      </trkpt>
      <trkpt lat="41.627321069" lon="2.489018606">
        <ele>449.07</ele>
        <time>2013-12-24T10:32:24Z</time>
      </trkpt>
      <trkpt lat="41.627210679" lon="2.489049954">
        <ele>449.07</ele>
        <time>2013-12-24T10:32:28Z</time>
      </trkpt>
      <trkpt lat="41.627152174" lon="2.489291018">
        <ele>449.07</ele>
        <time>2013-12-24T10:32:34Z</time>
      </trkpt>
      <trkpt lat="41.627163657" lon="2.489332341">
        <ele>449.07</ele>
        <time>2013-12-24T10:32:35Z</time>
      </trkpt>
      <trkpt lat="41.627232975" lon="2.489587067">
        <ele>449.07</ele>
        <time>2013-12-24T10:32:43Z</time>
      </trkpt>
      <trkpt lat="41.627232556" lon="2.489822431">
        <ele>450.52</ele>
        <time>2013-12-24T10:32:50Z</time>
      </trkpt>
      <trkpt lat="41.627208416" lon="2.489945226">
        <ele>451.00</ele>
        <time>2013-12-24T10:32:54Z</time>
      </trkpt>
      <trkpt lat="41.627119233" lon="2.489926282">
        <ele>451.48</ele>
        <time>2013-12-24T10:33:00Z</time>
      </trkpt>
      <trkpt lat="41.627042287" lon="2.489785550">
        <ele>451.96</ele>
        <time>2013-12-24T10:33:07Z</time>
      </trkpt>
      <trkpt lat="41.627001719" lon="2.489756549">
        <ele>452.44</ele>
        <time>2013-12-24T10:33:09Z</time>
      </trkpt>
      <trkpt lat="41.626913792" lon="2.489792172">
        <ele>452.44</ele>
        <time>2013-12-24T10:33:13Z</time>
      </trkpt>
      <trkpt lat="41.626842630" lon="2.490035415">
        <ele>452.92</ele>
        <time>2013-12-24T10:33:22Z</time>
      </trkpt>
      <trkpt lat="41.626787393" lon="2.490329201">
        <ele>450.03</ele>
        <time>2013-12-24T10:33:28Z</time>
      </trkpt>
      <trkpt lat="41.626807510" lon="2.490530534">
        <ele>450.03</ele>
        <time>2013-12-24T10:33:33Z</time>
      </trkpt>
      <trkpt lat="41.626767696" lon="2.490589878">
        <ele>450.03</ele>
        <time>2013-12-24T10:33:36Z</time>
      </trkpt>
      <trkpt lat="41.626707681" lon="2.490618041">
        <ele>451.48</ele>
        <time>2013-12-24T10:33:40Z</time>
      </trkpt>
      <trkpt lat="41.626564602" lon="2.490619633">
        <ele>452.44</ele>
        <time>2013-12-24T10:33:47Z</time>
      </trkpt>
      <trkpt lat="41.626447507" lon="2.490656095">
        <ele>453.88</ele>
        <time>2013-12-24T10:33:53Z</time>
      </trkpt>
      <trkpt lat="41.626323120" lon="2.490709236">
        <ele>455.32</ele>
        <time>2013-12-24T10:34:00Z</time>
      </trkpt>
      <trkpt lat="41.626213568" lon="2.490819877">
        <ele>456.28</ele>
        <time>2013-12-24T10:34:08Z</time>
      </trkpt>
      <trkpt lat="41.626281545" lon="2.490966225">
        <ele>456.28</ele>
        <time>2013-12-24T10:34:14Z</time>
      </trkpt>
      <trkpt lat="41.626406017" lon="2.491050547">
        <ele>454.36</ele>
        <time>2013-12-24T10:34:18Z</time>
      </trkpt>
      <trkpt lat="41.626527890" lon="2.491267052">
        <ele>451.00</ele>
        <time>2013-12-24T10:34:23Z</time>
      </trkpt>
      <trkpt lat="41.626608523" lon="2.491525466">
        <ele>449.07</ele>
        <time>2013-12-24T10:34:28Z</time>
      </trkpt>
      <trkpt lat="41.626490674" lon="2.491680363">
        <ele>447.63</ele>
        <time>2013-12-24T10:34:32Z</time>
      </trkpt>
      <trkpt lat="41.626340135" lon="2.491789747">
        <ele>446.67</ele>
        <time>2013-12-24T10:34:36Z</time>
      </trkpt>
      <trkpt lat="41.626281881" lon="2.491873901">
        <ele>446.67</ele>
        <time>2013-12-24T10:34:38Z</time>
      </trkpt>
      <trkpt lat="41.626199319" lon="2.492197443">
        <ele>445.23</ele>
        <time>2013-12-24T10:34:44Z</time>
      </trkpt>
      <trkpt lat="41.626063113" lon="2.492418725">
        <ele>444.27</ele>
        <time>2013-12-24T10:34:49Z</time>
      </trkpt>
      <trkpt lat="41.625988095" lon="2.492455941">
        <ele>443.79</ele>
        <time>2013-12-24T10:34:51Z</time>
      </trkpt>
      <trkpt lat="41.625813165" lon="2.492635062">
        <ele>442.82</ele>
        <time>2013-12-24T10:34:57Z</time>
      </trkpt>
      <trkpt lat="41.625823223" lon="2.492712427">
        <ele>442.82</ele>
        <time>2013-12-24T10:34:59Z</time>
      </trkpt>
      <trkpt lat="41.625842585" lon="2.492968327">
        <ele>442.82</ele>
        <time>2013-12-24T10:35:06Z</time>
      </trkpt>
      <trkpt lat="41.625753569" lon="2.493214335">
        <ele>443.31</ele>
        <time>2013-12-24T10:35:14Z</time>
      </trkpt>
      <trkpt lat="41.625766310" lon="2.493269824">
        <ele>443.31</ele>
        <time>2013-12-24T10:35:16Z</time>
      </trkpt>
      <trkpt lat="41.625910227" lon="2.493383315">
        <ele>442.82</ele>
        <time>2013-12-24T10:35:23Z</time>
      </trkpt>
      <trkpt lat="41.626131090" lon="2.493458333">
        <ele>441.38</ele>
        <time>2013-12-24T10:35:29Z</time>
      </trkpt>
      <trkpt lat="41.626420769" lon="2.493330928">
        <ele>439.46</ele>
        <time>2013-12-24T10:35:36Z</time>
      </trkpt>
      <trkpt lat="41.626510288" lon="2.493279714">
        <ele>438.50</ele>
        <time>2013-12-24T10:35:38Z</time>
      </trkpt>
      <trkpt lat="41.626796613" lon="2.493210564">
        <ele>436.58</ele>
        <time>2013-12-24T10:35:45Z</time>
      </trkpt>
      <trkpt lat="41.626988978" lon="2.493373424">
        <ele>436.10</ele>
        <time>2013-12-24T10:35:51Z</time>
      </trkpt>
      <trkpt lat="41.627014459" lon="2.493648769">
        <ele>434.65</ele>
        <time>2013-12-24T10:35:56Z</time>
      </trkpt>
      <trkpt lat="41.626956372" lon="2.493875835">
        <ele>434.17</ele>
        <time>2013-12-24T10:36:00Z</time>
      </trkpt>
      <trkpt lat="41.626877918" lon="2.494022016">
        <ele>433.21</ele>
        <time>2013-12-24T10:36:03Z</time>
      </trkpt>
      <trkpt lat="41.626730899" lon="2.494281268">
        <ele>432.25</ele>
        <time>2013-12-24T10:36:09Z</time>
      </trkpt>
      <trkpt lat="41.626739365" lon="2.494341115">
        <ele>432.25</ele>
        <time>2013-12-24T10:36:10Z</time>
      </trkpt>
      <trkpt lat="41.626728469" lon="2.494661555">
        <ele>431.77</ele>
        <time>2013-12-24T10:36:16Z</time>
      </trkpt>
      <trkpt lat="41.626591676" lon="2.494892812">
        <ele>431.77</ele>
        <time>2013-12-24T10:36:23Z</time>
      </trkpt>
      <trkpt lat="41.626466618" lon="2.495131109">
        <ele>431.77</ele>
        <time>2013-12-24T10:36:31Z</time>
      </trkpt>
      <trkpt lat="41.626323204" lon="2.495361947">
        <ele>431.77</ele>
        <time>2013-12-24T10:36:39Z</time>
      </trkpt>
      <trkpt lat="41.626219603" lon="2.495662522">
        <ele>431.29</ele>
        <time>2013-12-24T10:36:47Z</time>
      </trkpt>
      <trkpt lat="41.626225890" lon="2.495755645">
        <ele>431.29</ele>
        <time>2013-12-24T10:36:49Z</time>
      </trkpt>
      <trkpt lat="41.626357821" lon="2.495854886">
        <ele>430.81</ele>
        <time>2013-12-24T10:36:54Z</time>
      </trkpt>
      <trkpt lat="41.626381122" lon="2.495854467">
        <ele>430.81</ele>
        <time>2013-12-24T10:36:55Z</time>
      </trkpt>
      <trkpt lat="41.626645320" lon="2.495930072">
        <ele>430.81</ele>
        <time>2013-12-24T10:37:05Z</time>
      </trkpt>
      <trkpt lat="41.626770294" lon="2.496112462">
        <ele>430.33</ele>
        <time>2013-12-24T10:37:10Z</time>
      </trkpt>
      <trkpt lat="41.626768366" lon="2.496343216">
        <ele>429.85</ele>
        <time>2013-12-24T10:37:15Z</time>
      </trkpt>
      <trkpt lat="41.626656636" lon="2.496615041">
        <ele>429.85</ele>
        <time>2013-12-24T10:37:22Z</time>
      </trkpt>
      <trkpt lat="41.626551443" lon="2.496826433">
        <ele>429.85</ele>
        <time>2013-12-24T10:37:29Z</time>
      </trkpt>
      <trkpt lat="41.626519927" lon="2.496894326">
        <ele>429.85</ele>
        <time>2013-12-24T10:37:31Z</time>
      </trkpt>
      <trkpt lat="41.626517161" lon="2.497012511">
        <ele>428.40</ele>
        <time>2013-12-24T10:37:34Z</time>
      </trkpt>
      <trkpt lat="41.626567871" lon="2.497179059">
        <ele>427.92</ele>
        <time>2013-12-24T10:37:38Z</time>
      </trkpt>
      <trkpt lat="41.626556388" lon="2.497416519">
        <ele>426.96</ele>
        <time>2013-12-24T10:37:43Z</time>
      </trkpt>
      <trkpt lat="41.626540882" lon="2.497591952">
        <ele>426.96</ele>
        <time>2013-12-24T10:37:47Z</time>
      </trkpt>
      <trkpt lat="41.626620007" lon="2.497726817">
        <ele>426.96</ele>
        <time>2013-12-24T10:37:52Z</time>
      </trkpt>
      <trkpt lat="41.626712459" lon="2.497870902">
        <ele>426.96</ele>
        <time>2013-12-24T10:37:57Z</time>
      </trkpt>
      <trkpt lat="41.626894346" lon="2.498076761">
        <ele>426.96</ele>
        <time>2013-12-24T10:38:05Z</time>
      </trkpt>
      <trkpt lat="41.627139014" lon="2.498178015">
        <ele>426.96</ele>
        <time>2013-12-24T10:38:14Z</time>
      </trkpt>
      <trkpt lat="41.627257618" lon="2.498260660">
        <ele>426.96</ele>
        <time>2013-12-24T10:38:19Z</time>
      </trkpt>
      <trkpt lat="41.627232975" lon="2.498390077">
        <ele>428.40</ele>
        <time>2013-12-24T10:38:25Z</time>
      </trkpt>
      <trkpt lat="41.627171620" lon="2.498397537">
        <ele>428.40</ele>
        <time>2013-12-24T10:38:28Z</time>
      </trkpt>
      <trkpt lat="41.626942878" lon="2.498359315">
        <ele>428.40</ele>
        <time>2013-12-24T10:38:37Z</time>
      </trkpt>
      <trkpt lat="41.626756213" lon="2.498466352">
        <ele>428.40</ele>
        <time>2013-12-24T10:38:43Z</time>
      </trkpt>
      <trkpt lat="41.626668370" lon="2.498572718">
        <ele>426.96</ele>
        <time>2013-12-24T10:38:46Z</time>
      </trkpt>
      <trkpt lat="41.626583629" lon="2.498678330">
        <ele>426.48</ele>
        <time>2013-12-24T10:38:49Z</time>
      </trkpt>
      <trkpt lat="41.626633585" lon="2.498870360">
        <ele>426.48</ele>
        <time>2013-12-24T10:38:54Z</time>
      </trkpt>
      <trkpt lat="41.626758727" lon="2.499138245">
        <ele>427.44</ele>
        <time>2013-12-24T10:39:02Z</time>
      </trkpt>
      <trkpt lat="41.626754536" lon="2.499372771">
        <ele>427.44</ele>
        <time>2013-12-24T10:39:09Z</time>
      </trkpt>
      <trkpt lat="41.626711956" lon="2.499665551">
        <ele>427.92</ele>
        <time>2013-12-24T10:39:17Z</time>
      </trkpt>
      <trkpt lat="41.626698042" lon="2.499787675">
        <ele>428.89</ele>
        <time>2013-12-24T10:39:21Z</time>
      </trkpt>
      <trkpt lat="41.626800804" lon="2.499947183">
        <ele>428.89</ele>
        <time>2013-12-24T10:39:28Z</time>
      </trkpt>
      <trkpt lat="41.626976489" lon="2.499966713">
        <ele>428.89</ele>
        <time>2013-12-24T10:39:34Z</time>
      </trkpt>
      <trkpt lat="41.627150497" lon="2.499991691">
        <ele>428.89</ele>
        <time>2013-12-24T10:39:40Z</time>
      </trkpt>
      <trkpt lat="41.627318219" lon="2.500117336">
        <ele>429.37</ele>
        <time>2013-12-24T10:39:47Z</time>
      </trkpt>
      <trkpt lat="41.627387789" lon="2.500202747">
        <ele>429.37</ele>
        <time>2013-12-24T10:39:54Z</time>
      </trkpt>
      <trkpt lat="41.627387454" lon="2.500176093">
        <ele>429.37</ele>
        <time>2013-12-24T10:40:06Z</time>
      </trkpt>
      <trkpt lat="41.627392902" lon="2.500183720">
        <ele>429.85</ele>
        <time>2013-12-24T10:40:25Z</time>
      </trkpt>
      <trkpt lat="41.627409331" lon="2.500223450">
        <ele>429.85</ele>
        <time>2013-12-24T10:40:30Z</time>
      </trkpt>
      <trkpt lat="41.627437410" lon="2.500313556">
        <ele>429.85</ele>
        <time>2013-12-24T10:40:36Z</time>
      </trkpt>
      <trkpt lat="41.627408911" lon="2.500509190">
        <ele>431.29</ele>
        <time>2013-12-24T10:40:46Z</time>
      </trkpt>
      <trkpt lat="41.627387621" lon="2.500685377">
        <ele>431.77</ele>
        <time>2013-12-24T10:40:53Z</time>
      </trkpt>
      <trkpt lat="41.627496418" lon="2.500910934">
        <ele>433.21</ele>
        <time>2013-12-24T10:41:02Z</time>
      </trkpt>
      <trkpt lat="41.627613095" lon="2.501018893">
        <ele>433.69</ele>
        <time>2013-12-24T10:41:08Z</time>
      </trkpt>
      <trkpt lat="41.627750474" lon="2.501075387">
        <ele>434.17</ele>
        <time>2013-12-24T10:41:14Z</time>
      </trkpt>
      <trkpt lat="41.627792467" lon="2.501151746">
        <ele>435.13</ele>
        <time>2013-12-24T10:41:17Z</time>
      </trkpt>
      <trkpt lat="41.627749552" lon="2.501422063">
        <ele>436.58</ele>
        <time>2013-12-24T10:41:27Z</time>
      </trkpt>
      <trkpt lat="41.627726837" lon="2.501643261">
        <ele>437.06</ele>
        <time>2013-12-24T10:41:34Z</time>
      </trkpt>
      <trkpt lat="41.627717365" lon="2.501867896">
        <ele>437.54</ele>
        <time>2013-12-24T10:41:41Z</time>
      </trkpt>
      <trkpt lat="41.627678473" lon="2.502054645">
        <ele>438.02</ele>
        <time>2013-12-24T10:41:47Z</time>
      </trkpt>
      <trkpt lat="41.627616028" lon="2.502333427">
        <ele>438.02</ele>
        <time>2013-12-24T10:41:55Z</time>
      </trkpt>
      <trkpt lat="41.627557690" lon="2.502560409">
        <ele>436.58</ele>
        <time>2013-12-24T10:42:01Z</time>
      </trkpt>
      <trkpt lat="41.627459454" lon="2.502670128">
        <ele>434.65</ele>
        <time>2013-12-24T10:42:07Z</time>
      </trkpt>
      <trkpt lat="41.627481834" lon="2.502766185">
        <ele>433.21</ele>
        <time>2013-12-24T10:42:11Z</time>
      </trkpt>
      <trkpt lat="41.627541932" lon="2.503035747">
        <ele>430.81</ele>
        <time>2013-12-24T10:42:19Z</time>
      </trkpt>
      <trkpt lat="41.627613765" lon="2.503335651">
        <ele>428.89</ele>
        <time>2013-12-24T10:42:27Z</time>
      </trkpt>
      <trkpt lat="41.627637486" lon="2.503517622">
        <ele>427.44</ele>
        <time>2013-12-24T10:42:33Z</time>
      </trkpt>
      <trkpt lat="41.627642431" lon="2.503580067">
        <ele>426.96</ele>
        <time>2013-12-24T10:42:35Z</time>
      </trkpt>
      <trkpt lat="41.627726250" lon="2.503641507">
        <ele>425.52</ele>
        <time>2013-12-24T10:42:40Z</time>
      </trkpt>
      <trkpt lat="41.627783331" lon="2.503551904">
        <ele>424.08</ele>
        <time>2013-12-24T10:42:45Z</time>
      </trkpt>
      <trkpt lat="41.627870670" lon="2.503273038">
        <ele>421.19</ele>
        <time>2013-12-24T10:42:53Z</time>
      </trkpt>
      <trkpt lat="41.627905707" lon="2.503056953">
        <ele>418.79</ele>
        <time>2013-12-24T10:42:59Z</time>
      </trkpt>
      <trkpt lat="41.627952897" lon="2.502845561">
        <ele>416.87</ele>
        <time>2013-12-24T10:43:04Z</time>
      </trkpt>
      <trkpt lat="41.628047529" lon="2.502619501">
        <ele>414.95</ele>
        <time>2013-12-24T10:43:09Z</time>
      </trkpt>
      <trkpt lat="41.628211982" lon="2.502481368">
        <ele>413.02</ele>
        <time>2013-12-24T10:43:14Z</time>
      </trkpt>
      <trkpt lat="41.628364532" lon="2.502440715">
        <ele>412.06</ele>
        <time>2013-12-24T10:43:19Z</time>
      </trkpt>
      <trkpt lat="41.628409124" lon="2.502517494">
        <ele>411.10</ele>
        <time>2013-12-24T10:43:24Z</time>
      </trkpt>
      <trkpt lat="41.628308373" lon="2.502589913">
        <ele>409.18</ele>
        <time>2013-12-24T10:43:28Z</time>
      </trkpt>
      <trkpt lat="41.628275516" lon="2.502647581">
        <ele>407.74</ele>
        <time>2013-12-24T10:43:30Z</time>
      </trkpt>
      <trkpt lat="41.628218436" lon="2.502890321">
        <ele>405.33</ele>
        <time>2013-12-24T10:43:38Z</time>
      </trkpt>
      <trkpt lat="41.628232517" lon="2.503087379">
        <ele>402.93</ele>
        <time>2013-12-24T10:43:45Z</time>
      </trkpt>
      <trkpt lat="41.628226315" lon="2.503347470">
        <ele>400.53</ele>
        <time>2013-12-24T10:43:51Z</time>
      </trkpt>
      <trkpt lat="41.628217933" lon="2.503635975">
        <ele>398.12</ele>
        <time>2013-12-24T10:43:57Z</time>
      </trkpt>
      <trkpt lat="41.628204773" lon="2.503749801">
        <ele>396.20</ele>
        <time>2013-12-24T10:44:02Z</time>
      </trkpt>
      <trkpt lat="41.628193709" lon="2.503833201">
        <ele>395.72</ele>
        <time>2013-12-24T10:44:06Z</time>
      </trkpt>
      <trkpt lat="41.628189602" lon="2.504050879">
        <ele>394.28</ele>
        <time>2013-12-24T10:44:14Z</time>
      </trkpt>
      <trkpt lat="41.628152386" lon="2.504239304">
        <ele>393.32</ele>
        <time>2013-12-24T10:44:21Z</time>
      </trkpt>
      <trkpt lat="41.628128163" lon="2.504463604">
        <ele>391.39</ele>
        <time>2013-12-24T10:44:27Z</time>
      </trkpt>
      <trkpt lat="41.628129755" lon="2.504753785">
        <ele>388.99</ele>
        <time>2013-12-24T10:44:34Z</time>
      </trkpt>
      <trkpt lat="41.628036213" lon="2.504957717">
        <ele>387.07</ele>
        <time>2013-12-24T10:44:40Z</time>
      </trkpt>
      <trkpt lat="41.627911323" lon="2.504995184">
        <ele>385.15</ele>
        <time>2013-12-24T10:44:44Z</time>
      </trkpt>
      <trkpt lat="41.627884082" lon="2.504988143">
        <ele>384.66</ele>
        <time>2013-12-24T10:44:45Z</time>
      </trkpt>
      <trkpt lat="41.627729855" lon="2.505021336">
        <ele>384.18</ele>
        <time>2013-12-24T10:44:50Z</time>
      </trkpt>
      <trkpt lat="41.627512679" lon="2.505192494">
        <ele>384.66</ele>
        <time>2013-12-24T10:44:59Z</time>
      </trkpt>
      <trkpt lat="41.627316459" lon="2.505195176">
        <ele>384.18</ele>
        <time>2013-12-24T10:45:05Z</time>
      </trkpt>
      <trkpt lat="41.627092914" lon="2.504989065">
        <ele>380.82</ele>
        <time>2013-12-24T10:45:11Z</time>
      </trkpt>
      <trkpt lat="41.627027200" lon="2.504906001">
        <ele>379.38</ele>
        <time>2013-12-24T10:45:13Z</time>
      </trkpt>
      <trkpt lat="41.626836008" lon="2.504717659">
        <ele>377.94</ele>
        <time>2013-12-24T10:45:19Z</time>
      </trkpt>
      <trkpt lat="41.626681949" lon="2.504748086">
        <ele>377.94</ele>
        <time>2013-12-24T10:45:25Z</time>
      </trkpt>
      <trkpt lat="41.626565524" lon="2.504816147">
        <ele>377.94</ele>
        <time>2013-12-24T10:45:31Z</time>
      </trkpt>
      <trkpt lat="41.626504756" lon="2.504956041">
        <ele>378.90</ele>
        <time>2013-12-24T10:45:37Z</time>
      </trkpt>
      <trkpt lat="41.626438287" lon="2.505108172">
        <ele>380.82</ele>
        <time>2013-12-24T10:45:44Z</time>
      </trkpt>
      <trkpt lat="41.626367711" lon="2.505243205">
        <ele>381.78</ele>
        <time>2013-12-24T10:45:50Z</time>
      </trkpt>
      <trkpt lat="41.626255562" lon="2.505304141">
        <ele>383.70</ele>
        <time>2013-12-24T10:45:57Z</time>
      </trkpt>
      <trkpt lat="41.626187836" lon="2.505317301">
        <ele>384.18</ele>
        <time>2013-12-24T10:46:01Z</time>
      </trkpt>
      <trkpt lat="41.626052719" lon="2.505399192">
        <ele>385.63</ele>
        <time>2013-12-24T10:46:08Z</time>
      </trkpt>
      <trkpt lat="41.625999578" lon="2.505521484">
        <ele>386.11</ele>
        <time>2013-12-24T10:46:14Z</time>
      </trkpt>
      <trkpt lat="41.626045176" lon="2.505645033">
        <ele>387.55</ele>
        <time>2013-12-24T10:46:21Z</time>
      </trkpt>
      <trkpt lat="41.626103262" lon="2.505786017">
        <ele>389.47</ele>
        <time>2013-12-24T10:46:28Z</time>
      </trkpt>
      <trkpt lat="41.626129665" lon="2.505957762">
        <ele>390.91</ele>
        <time>2013-12-24T10:46:35Z</time>
      </trkpt>
      <trkpt lat="41.626086834" lon="2.506152557">
        <ele>392.36</ele>
        <time>2013-12-24T10:46:43Z</time>
      </trkpt>
      <trkpt lat="41.625996896" lon="2.506297648">
        <ele>393.80</ele>
        <time>2013-12-24T10:46:50Z</time>
      </trkpt>
      <trkpt lat="41.625942833" lon="2.506541059">
        <ele>394.28</ele>
        <time>2013-12-24T10:46:58Z</time>
      </trkpt>
      <trkpt lat="41.625950376" lon="2.506596966">
        <ele>394.76</ele>
        <time>2013-12-24T10:47:00Z</time>
      </trkpt>
      <trkpt lat="41.625957669" lon="2.506769046">
        <ele>396.20</ele>
        <time>2013-12-24T10:47:06Z</time>
      </trkpt>
      <trkpt lat="41.625940821" lon="2.506871054">
        <ele>397.64</ele>
        <time>2013-12-24T10:47:11Z</time>
      </trkpt>
      <trkpt lat="41.625822133" lon="2.507088062">
        <ele>399.08</ele>
        <time>2013-12-24T10:47:21Z</time>
      </trkpt>
      <trkpt lat="41.625731357" lon="2.507312864">
        <ele>401.01</ele>
        <time>2013-12-24T10:47:31Z</time>
      </trkpt>
      <trkpt lat="41.625660446" lon="2.507544121">
        <ele>401.97</ele>
        <time>2013-12-24T10:47:38Z</time>
      </trkpt>
      <trkpt lat="41.625531365" lon="2.507789375">
        <ele>404.85</ele>
        <time>2013-12-24T10:47:48Z</time>
      </trkpt>
      <trkpt lat="41.625470680" lon="2.507849222">
        <ele>406.29</ele>
        <time>2013-12-24T10:47:53Z</time>
      </trkpt>
      <trkpt lat="41.625440589" lon="2.507736569">
        <ele>406.29</ele>
        <time>2013-12-24T10:47:59Z</time>
      </trkpt>
      <trkpt lat="41.625414018" lon="2.507460302">
        <ele>406.29</ele>
        <time>2013-12-24T10:48:09Z</time>
      </trkpt>
      <trkpt lat="41.625371187" lon="2.507236589">
        <ele>407.26</ele>
        <time>2013-12-24T10:48:18Z</time>
      </trkpt>
      <trkpt lat="41.625309831" lon="2.506987898">
        <ele>408.70</ele>
        <time>2013-12-24T10:48:28Z</time>
      </trkpt>
      <trkpt lat="41.625271191" lon="2.506776674">
        <ele>409.66</ele>
        <time>2013-12-24T10:48:36Z</time>
      </trkpt>
      <trkpt lat="41.625198604" lon="2.506556817">
        <ele>411.10</ele>
        <time>2013-12-24T10:48:45Z</time>
      </trkpt>
      <trkpt lat="41.625074048" lon="2.506342156">
        <ele>413.50</ele>
        <time>2013-12-24T10:48:56Z</time>
      </trkpt>
      <trkpt lat="41.624980004" lon="2.506164879">
        <ele>415.43</ele>
        <time>2013-12-24T10:49:05Z</time>
      </trkpt>
      <trkpt lat="41.624849162" lon="2.506164795">
        <ele>417.35</ele>
        <time>2013-12-24T10:49:13Z</time>
      </trkpt>
      <trkpt lat="41.624700551" lon="2.506249955">
        <ele>419.27</ele>
        <time>2013-12-24T10:49:22Z</time>
      </trkpt>
      <trkpt lat="41.624609607" lon="2.506281471">
        <ele>420.71</ele>
        <time>2013-12-24T10:49:28Z</time>
      </trkpt>
      <trkpt lat="41.624597034" lon="2.506283650">
        <ele>421.68</ele>
        <time>2013-12-24T10:49:29Z</time>
      </trkpt>
      <trkpt lat="41.624573397" lon="2.506279376">
        <ele>422.16</ele>
        <time>2013-12-24T10:49:31Z</time>
      </trkpt>
      <trkpt lat="41.624525788" lon="2.506281722">
        <ele>422.64</ele>
        <time>2013-12-24T10:49:34Z</time>
      </trkpt>
      <trkpt lat="41.624396204" lon="2.506301839">
        <ele>424.56</ele>
        <time>2013-12-24T10:49:43Z</time>
      </trkpt>
      <trkpt lat="41.624268212" lon="2.506314831">
        <ele>426.48</ele>
        <time>2013-12-24T10:49:52Z</time>
      </trkpt>
      <trkpt lat="41.624104011" lon="2.506302426">
        <ele>427.92</ele>
        <time>2013-12-24T10:50:02Z</time>
      </trkpt>
      <trkpt lat="41.623994878" lon="2.506238556">
        <ele>428.89</ele>
        <time>2013-12-24T10:50:09Z</time>
      </trkpt>
      <trkpt lat="41.623923465" lon="2.506186672">
        <ele>429.85</ele>
        <time>2013-12-24T10:50:15Z</time>
      </trkpt>
      <trkpt lat="41.623824977" lon="2.506132022">
        <ele>430.33</ele>
        <time>2013-12-24T10:50:22Z</time>
      </trkpt>
      <trkpt lat="41.623783571" lon="2.506097907">
        <ele>430.81</ele>
        <time>2013-12-24T10:50:25Z</time>
      </trkpt>
      <trkpt lat="41.623661782" lon="2.505982237">
        <ele>433.69</ele>
        <time>2013-12-24T10:50:36Z</time>
      </trkpt>
      <trkpt lat="41.623601013" lon="2.505843852">
        <ele>434.17</ele>
        <time>2013-12-24T10:50:43Z</time>
      </trkpt>
      <trkpt lat="41.623597576" lon="2.505806301">
        <ele>434.17</ele>
        <time>2013-12-24T10:50:45Z</time>
      </trkpt>
      <trkpt lat="41.623686005" lon="2.505624078">
        <ele>435.61</ele>
        <time>2013-12-24T10:50:55Z</time>
      </trkpt>
      <trkpt lat="41.623770411" lon="2.505461302">
        <ele>436.10</ele>
        <time>2013-12-24T10:51:04Z</time>
      </trkpt>
      <trkpt lat="41.623867222" lon="2.505310595">
        <ele>438.02</ele>
        <time>2013-12-24T10:51:13Z</time>
      </trkpt>
      <trkpt lat="41.623961435" lon="2.505163660">
        <ele>439.94</ele>
        <time>2013-12-24T10:51:22Z</time>
      </trkpt>
      <trkpt lat="41.623997896" lon="2.505136252">
        <ele>441.38</ele>
        <time>2013-12-24T10:51:25Z</time>
      </trkpt>
      <trkpt lat="41.624044499" lon="2.505086882">
        <ele>441.86</ele>
        <time>2013-12-24T10:51:29Z</time>
      </trkpt>
      <trkpt lat="41.624178023" lon="2.504947323">
        <ele>442.34</ele>
        <time>2013-12-24T10:51:38Z</time>
      </trkpt>
      <trkpt lat="41.624261926" lon="2.504767029">
        <ele>442.82</ele>
        <time>2013-12-24T10:51:46Z</time>
      </trkpt>
      <trkpt lat="41.624299309" lon="2.504640965">
        <ele>443.31</ele>
        <time>2013-12-24T10:51:52Z</time>
      </trkpt>
      <trkpt lat="41.624326802" lon="2.504442146">
        <ele>444.27</ele>
        <time>2013-12-24T10:52:01Z</time>
      </trkpt>
      <trkpt lat="41.624260250" lon="2.504313233">
        <ele>444.75</ele>
        <time>2013-12-24T10:52:08Z</time>
      </trkpt>
      <trkpt lat="41.624155560" lon="2.504305354">
        <ele>446.19</ele>
        <time>2013-12-24T10:52:15Z</time>
      </trkpt>
      <trkpt lat="41.623983898" lon="2.504281046">
        <ele>446.19</ele>
        <time>2013-12-24T10:52:22Z</time>
      </trkpt>
      <trkpt lat="41.623878705" lon="2.504211811">
        <ele>444.75</ele>
        <time>2013-12-24T10:52:25Z</time>
      </trkpt>
      <trkpt lat="41.623723808" lon="2.504062195">
        <ele>443.31</ele>
        <time>2013-12-24T10:52:30Z</time>
      </trkpt>
      <trkpt lat="41.623587266" lon="2.504199322">
        <ele>441.38</ele>
        <time>2013-12-24T10:52:35Z</time>
      </trkpt>
      <trkpt lat="41.623407307" lon="2.504335277">
        <ele>438.98</ele>
        <time>2013-12-24T10:52:40Z</time>
      </trkpt>
      <trkpt lat="41.623225755" lon="2.504304767">
        <ele>436.10</ele>
        <time>2013-12-24T10:52:44Z</time>
      </trkpt>
      <trkpt lat="41.622933562" lon="2.504268054">
        <ele>433.69</ele>
        <time>2013-12-24T10:52:50Z</time>
      </trkpt>
      <trkpt lat="41.622798529" lon="2.504069738">
        <ele>430.81</ele>
        <time>2013-12-24T10:52:54Z</time>
      </trkpt>
      <trkpt lat="41.622783693" lon="2.503826076">
        <ele>428.89</ele>
        <time>2013-12-24T10:52:57Z</time>
      </trkpt>
      <trkpt lat="41.622819400" lon="2.503494823">
        <ele>428.40</ele>
        <time>2013-12-24T10:53:03Z</time>
      </trkpt>
      <trkpt lat="41.622817975" lon="2.503335735">
        <ele>428.40</ele>
        <time>2013-12-24T10:53:06Z</time>
      </trkpt>
      <trkpt lat="41.622626030" lon="2.503089642">
        <ele>426.96</ele>
        <time>2013-12-24T10:53:12Z</time>
      </trkpt>
      <trkpt lat="41.622448333" lon="2.503141191">
        <ele>426.00</ele>
        <time>2013-12-24T10:53:16Z</time>
      </trkpt>
      <trkpt lat="41.622285808" lon="2.503112441">
        <ele>424.08</ele>
        <time>2013-12-24T10:53:19Z</time>
      </trkpt>
      <trkpt lat="41.622235852" lon="2.503087295">
        <ele>424.08</ele>
        <time>2013-12-24T10:53:20Z</time>
      </trkpt>
      <trkpt lat="41.622007697" lon="2.502996519">
        <ele>420.71</ele>
        <time>2013-12-24T10:53:24Z</time>
      </trkpt>
      <trkpt lat="41.621788762" lon="2.502743386">
        <ele>416.87</ele>
        <time>2013-12-24T10:53:29Z</time>
      </trkpt>
      <trkpt lat="41.621719192" lon="2.502403164">
        <ele>414.47</ele>
        <time>2013-12-24T10:53:33Z</time>
      </trkpt>
      <trkpt lat="41.621727071" lon="2.502113151">
        <ele>412.06</ele>
        <time>2013-12-24T10:53:36Z</time>
      </trkpt>
      <trkpt lat="41.621762191" lon="2.501927827">
        <ele>409.66</ele>
        <time>2013-12-24T10:53:38Z</time>
      </trkpt>
      <trkpt lat="41.621727322" lon="2.501678130">
        <ele>407.74</ele>
        <time>2013-12-24T10:53:42Z</time>
      </trkpt>
      <trkpt lat="41.621688011" lon="2.501644770">
        <ele>407.26</ele>
        <time>2013-12-24T10:53:43Z</time>
      </trkpt>
      <trkpt lat="41.621607293" lon="2.501598921">
        <ele>407.26</ele>
        <time>2013-12-24T10:53:45Z</time>
      </trkpt>
      <trkpt lat="41.621395315" lon="2.501442598">
        <ele>406.77</ele>
        <time>2013-12-24T10:53:52Z</time>
      </trkpt>
      <trkpt lat="41.621288278" lon="2.501248893">
        <ele>408.70</ele>
        <time>2013-12-24T10:53:59Z</time>
      </trkpt>
      <trkpt lat="41.621201274" lon="2.501059713">
        <ele>409.18</ele>
        <time>2013-12-24T10:54:06Z</time>
      </trkpt>
      <trkpt lat="41.621105804" lon="2.500941863">
        <ele>407.74</ele>
        <time>2013-12-24T10:54:11Z</time>
      </trkpt>
      <trkpt lat="41.620964904" lon="2.500932643">
        <ele>404.37</ele>
        <time>2013-12-24T10:54:17Z</time>
      </trkpt>
      <trkpt lat="41.620920564" lon="2.500956280">
        <ele>403.89</ele>
        <time>2013-12-24T10:54:19Z</time>
      </trkpt>
      <trkpt lat="41.620751166" lon="2.501095923">
        <ele>401.49</ele>
        <time>2013-12-24T10:54:26Z</time>
      </trkpt>
      <trkpt lat="41.620595430" lon="2.501324916">
        <ele>399.57</ele>
        <time>2013-12-24T10:54:32Z</time>
      </trkpt>
      <trkpt lat="41.620563830" lon="2.501361210">
        <ele>399.57</ele>
        <time>2013-12-24T10:54:33Z</time>
      </trkpt>
      <trkpt lat="41.620490153" lon="2.501425080">
        <ele>399.08</ele>
        <time>2013-12-24T10:54:35Z</time>
      </trkpt>
      <trkpt lat="41.620341374" lon="2.501513509">
        <ele>398.60</ele>
        <time>2013-12-24T10:54:39Z</time>
      </trkpt>
      <trkpt lat="41.620123529" lon="2.501466235">
        <ele>396.20</ele>
        <time>2013-12-24T10:54:44Z</time>
      </trkpt>
      <trkpt lat="41.620002327" lon="2.501303459">
        <ele>394.76</ele>
        <time>2013-12-24T10:54:47Z</time>
      </trkpt>
      <trkpt lat="41.619934936" lon="2.501177227">
        <ele>393.80</ele>
        <time>2013-12-24T10:54:49Z</time>
      </trkpt>
      <trkpt lat="41.619784062" lon="2.501007410">
        <ele>391.39</ele>
        <time>2013-12-24T10:54:53Z</time>
      </trkpt>
      <trkpt lat="41.619632014" lon="2.500749415">
        <ele>387.55</ele>
        <time>2013-12-24T10:54:59Z</time>
      </trkpt>
      <trkpt lat="41.619501256" lon="2.500676241">
        <ele>384.18</ele>
        <time>2013-12-24T10:55:03Z</time>
      </trkpt>
      <trkpt lat="41.619365637" lon="2.500757964">
        <ele>381.78</ele>
        <time>2013-12-24T10:55:09Z</time>
      </trkpt>
      <trkpt lat="41.619369158" lon="2.500788642">
        <ele>381.30</ele>
        <time>2013-12-24T10:55:10Z</time>
      </trkpt>
      <trkpt lat="41.619465298" lon="2.501050074">
        <ele>376.97</ele>
        <time>2013-12-24T10:55:17Z</time>
      </trkpt>
      <trkpt lat="41.619537299" lon="2.501224082">
        <ele>373.13</ele>
        <time>2013-12-24T10:55:21Z</time>
      </trkpt>
      <trkpt lat="41.619601755" lon="2.501367748">
        <ele>370.24</ele>
        <time>2013-12-24T10:55:25Z</time>
      </trkpt>
      <trkpt lat="41.619583315" lon="2.501552988">
        <ele>366.40</ele>
        <time>2013-12-24T10:55:30Z</time>
      </trkpt>
      <trkpt lat="41.619571497" lon="2.501602525">
        <ele>365.92</ele>
        <time>2013-12-24T10:55:31Z</time>
      </trkpt>
      <trkpt lat="41.619540903" lon="2.501886839">
        <ele>361.59</ele>
        <time>2013-12-24T10:55:36Z</time>
      </trkpt>
      <trkpt lat="41.619560265" lon="2.501994547">
        <ele>359.67</ele>
        <time>2013-12-24T10:55:38Z</time>
      </trkpt>
      <trkpt lat="41.619579292" lon="2.502223876">
        <ele>355.34</ele>
        <time>2013-12-24T10:55:43Z</time>
      </trkpt>
      <trkpt lat="41.619596056" lon="2.502431328">
        <ele>351.98</ele>
        <time>2013-12-24T10:55:47Z</time>
      </trkpt>
      <trkpt lat="41.619572586" lon="2.502702315">
        <ele>348.13</ele>
        <time>2013-12-24T10:55:52Z</time>
      </trkpt>
      <trkpt lat="41.619543836" lon="2.502890237">
        <ele>344.77</ele>
        <time>2013-12-24T10:55:55Z</time>
      </trkpt>
      <trkpt lat="41.619531180" lon="2.503144041">
        <ele>341.41</ele>
        <time>2013-12-24T10:56:00Z</time>
      </trkpt>
      <trkpt lat="41.619507040" lon="2.503239427">
        <ele>340.44</ele>
        <time>2013-12-24T10:56:03Z</time>
      </trkpt>
      <trkpt lat="41.619463957" lon="2.503226938">
        <ele>339.96</ele>
        <time>2013-12-24T10:56:07Z</time>
      </trkpt>
      <trkpt lat="41.619450378" lon="2.502920579">
        <ele>338.04</ele>
        <time>2013-12-24T10:56:14Z</time>
      </trkpt>
      <trkpt lat="41.619453396" lon="2.502824104">
        <ele>337.08</ele>
        <time>2013-12-24T10:56:16Z</time>
      </trkpt>
      <trkpt lat="41.619396483" lon="2.502743134">
        <ele>336.12</ele>
        <time>2013-12-24T10:56:20Z</time>
      </trkpt>
      <trkpt lat="41.619353064" lon="2.502875904">
        <ele>333.23</ele>
        <time>2013-12-24T10:56:23Z</time>
      </trkpt>
      <trkpt lat="41.619264300" lon="2.503267925">
        <ele>328.43</ele>
        <time>2013-12-24T10:56:29Z</time>
      </trkpt>
      <trkpt lat="41.619243261" lon="2.503325760">
        <ele>328.43</ele>
        <time>2013-12-24T10:56:30Z</time>
      </trkpt>
      <trkpt lat="41.619180229" lon="2.503496332">
        <ele>327.47</ele>
        <time>2013-12-24T10:56:33Z</time>
      </trkpt>
      <trkpt lat="41.619105631" lon="2.503713004">
        <ele>325.06</ele>
        <time>2013-12-24T10:56:36Z</time>
      </trkpt>
      <trkpt lat="41.619010077" lon="2.504016848">
        <ele>320.74</ele>
        <time>2013-12-24T10:56:41Z</time>
      </trkpt>
      <trkpt lat="41.618979651" lon="2.504082563">
        <ele>319.78</ele>
        <time>2013-12-24T10:56:43Z</time>
      </trkpt>
      <trkpt lat="41.618908237" lon="2.504038055">
        <ele>317.85</ele>
        <time>2013-12-24T10:56:48Z</time>
      </trkpt>
      <trkpt lat="41.618896334" lon="2.503910231">
        <ele>316.41</ele>
        <time>2013-12-24T10:56:51Z</time>
      </trkpt>
      <trkpt lat="41.618890048" lon="2.503588952">
        <ele>312.57</ele>
        <time>2013-12-24T10:56:56Z</time>
      </trkpt>
      <trkpt lat="41.618920558" lon="2.503393486">
        <ele>310.16</ele>
        <time>2013-12-24T10:56:59Z</time>
      </trkpt>
      <trkpt lat="41.618944027" lon="2.503285611">
        <ele>309.20</ele>
        <time>2013-12-24T10:57:01Z</time>
      </trkpt>
      <trkpt lat="41.618889629" lon="2.503136581">
        <ele>306.32</ele>
        <time>2013-12-24T10:57:05Z</time>
      </trkpt>
      <trkpt lat="41.618803211" lon="2.503155608">
        <ele>303.91</ele>
        <time>2013-12-24T10:57:08Z</time>
      </trkpt>
      <trkpt lat="41.618579750" lon="2.503253760">
        <ele>301.51</ele>
        <time>2013-12-24T10:57:13Z</time>
      </trkpt>
      <trkpt lat="41.618385374" lon="2.503489543">
        <ele>299.11</ele>
        <time>2013-12-24T10:57:18Z</time>
      </trkpt>
      <trkpt lat="41.618266602" lon="2.503684422">
        <ele>296.70</ele>
        <time>2013-12-24T10:57:21Z</time>
      </trkpt>
      <trkpt lat="41.618169540" lon="2.504032858">
        <ele>291.42</ele>
        <time>2013-12-24T10:57:26Z</time>
      </trkpt>
      <trkpt lat="41.618019755" lon="2.504401913">
        <ele>286.13</ele>
        <time>2013-12-24T10:57:31Z</time>
      </trkpt>
      <trkpt lat="41.617942558" lon="2.504563935">
        <ele>283.73</ele>
        <time>2013-12-24T10:57:34Z</time>
      </trkpt>
      <trkpt lat="41.617794952" lon="2.504842466">
        <ele>280.84</ele>
        <time>2013-12-24T10:57:40Z</time>
      </trkpt>
      <trkpt lat="41.617743571" lon="2.504964255">
        <ele>279.88</ele>
        <time>2013-12-24T10:57:42Z</time>
      </trkpt>
      <trkpt lat="41.617680623" lon="2.505154524">
        <ele>277.48</ele>
        <time>2013-12-24T10:57:45Z</time>
      </trkpt>
      <trkpt lat="41.617635109" lon="2.505427858">
        <ele>273.15</ele>
        <time>2013-12-24T10:57:49Z</time>
      </trkpt>
      <trkpt lat="41.617558331" lon="2.505742766">
        <ele>267.86</ele>
        <time>2013-12-24T10:57:53Z</time>
      </trkpt>
      <trkpt lat="41.617524301" lon="2.505889785">
        <ele>265.94</ele>
        <time>2013-12-24T10:57:55Z</time>
      </trkpt>
      <trkpt lat="41.617512315" lon="2.506094471">
        <ele>263.54</ele>
        <time>2013-12-24T10:57:58Z</time>
      </trkpt>
      <trkpt lat="41.617546513" lon="2.506481296">
        <ele>259.69</ele>
        <time>2013-12-24T10:58:03Z</time>
      </trkpt>
      <trkpt lat="41.617498987" lon="2.506927716">
        <ele>253.93</ele>
        <time>2013-12-24T10:58:08Z</time>
      </trkpt>
      <trkpt lat="41.617496221" lon="2.507127540">
        <ele>252.00</ele>
        <time>2013-12-24T10:58:10Z</time>
      </trkpt>
      <trkpt lat="41.617512901" lon="2.507346811">
        <ele>250.56</ele>
        <time>2013-12-24T10:58:13Z</time>
      </trkpt>
      <trkpt lat="41.617454312" lon="2.507635567">
        <ele>246.72</ele>
        <time>2013-12-24T10:58:18Z</time>
      </trkpt>
      <trkpt lat="41.617442158" lon="2.507856514">
        <ele>243.83</ele>
        <time>2013-12-24T10:58:22Z</time>
      </trkpt>
      <trkpt lat="41.617450540" lon="2.508026164">
        <ele>242.39</ele>
        <time>2013-12-24T10:58:25Z</time>
      </trkpt>
      <trkpt lat="41.617330930" lon="2.508419024">
        <ele>239.51</ele>
        <time>2013-12-24T10:58:31Z</time>
      </trkpt>
      <trkpt lat="41.617158347" lon="2.508944653">
        <ele>237.10</ele>
        <time>2013-12-24T10:58:37Z</time>
      </trkpt>
      <trkpt lat="41.616991128" lon="2.509400210">
        <ele>233.26</ele>
        <time>2013-12-24T10:58:42Z</time>
      </trkpt>
      <trkpt lat="41.616962713" lon="2.509477994">
        <ele>233.26</ele>
        <time>2013-12-24T10:58:43Z</time>
      </trkpt>
      <trkpt lat="41.616863807" lon="2.509692403">
        <ele>232.78</ele>
        <time>2013-12-24T10:58:46Z</time>
      </trkpt>
      <trkpt lat="41.616788705" lon="2.510066236">
        <ele>229.89</ele>
        <time>2013-12-24T10:58:51Z</time>
      </trkpt>
      <trkpt lat="41.616750148" lon="2.510387430">
        <ele>227.01</ele>
        <time>2013-12-24T10:58:55Z</time>
      </trkpt>
      <trkpt lat="41.616617546" lon="2.510633188">
        <ele>223.64</ele>
        <time>2013-12-24T10:58:59Z</time>
      </trkpt>
      <trkpt lat="41.616462733" lon="2.510895876">
        <ele>220.28</ele>
        <time>2013-12-24T10:59:03Z</time>
      </trkpt>
      <trkpt lat="41.616384194" lon="2.511187399">
        <ele>219.32</ele>
        <time>2013-12-24T10:59:07Z</time>
      </trkpt>
      <trkpt lat="41.616360557" lon="2.511422008">
        <ele>217.88</ele>
        <time>2013-12-24T10:59:10Z</time>
      </trkpt>
      <trkpt lat="41.616441359" lon="2.511717135">
        <ele>216.91</ele>
        <time>2013-12-24T10:59:15Z</time>
      </trkpt>
      <trkpt lat="41.616665826" lon="2.512148049">
        <ele>214.99</ele>
        <time>2013-12-24T10:59:23Z</time>
      </trkpt>
      <trkpt lat="41.616692732" lon="2.512202783">
        <ele>214.99</ele>
        <time>2013-12-24T10:59:24Z</time>
      </trkpt>
      <trkpt lat="41.616806642" lon="2.512513500">
        <ele>214.03</ele>
        <time>2013-12-24T10:59:29Z</time>
      </trkpt>
      <trkpt lat="41.616891886" lon="2.512947599">
        <ele>213.07</ele>
        <time>2013-12-24T10:59:36Z</time>
      </trkpt>
      <trkpt lat="41.616895826" lon="2.513075087">
        <ele>212.59</ele>
        <time>2013-12-24T10:59:38Z</time>
      </trkpt>
      <trkpt lat="41.616897837" lon="2.513510443">
        <ele>211.15</ele>
        <time>2013-12-24T10:59:45Z</time>
      </trkpt>
      <trkpt lat="41.616889120" lon="2.514190886">
        <ele>209.22</ele>
        <time>2013-12-24T10:59:55Z</time>
      </trkpt>
      <trkpt lat="41.616894149" lon="2.514714252">
        <ele>207.30</ele>
        <time>2013-12-24T11:00:03Z</time>
      </trkpt>
      <trkpt lat="41.616887695" lon="2.515196966">
        <ele>206.34</ele>
        <time>2013-12-24T11:00:10Z</time>
      </trkpt>
      <trkpt lat="41.616877721" lon="2.515478850">
        <ele>204.42</ele>
        <time>2013-12-24T11:00:14Z</time>
      </trkpt>
      <trkpt lat="41.616872105" lon="2.515971203">
        <ele>203.46</ele>
        <time>2013-12-24T11:00:21Z</time>
      </trkpt>
      <trkpt lat="41.616830279" lon="2.516629685">
        <ele>201.53</ele>
        <time>2013-12-24T11:00:30Z</time>
      </trkpt>
      <trkpt lat="41.616784682" lon="2.517174844">
        <ele>199.61</ele>
        <time>2013-12-24T11:00:37Z</time>
      </trkpt>
      <trkpt lat="41.616779569" lon="2.517252963">
        <ele>199.61</ele>
        <time>2013-12-24T11:00:38Z</time>
      </trkpt>
      <trkpt lat="41.616732798" lon="2.518055530">
        <ele>196.25</ele>
        <time>2013-12-24T11:00:48Z</time>
      </trkpt>
      <trkpt lat="41.616718213" lon="2.518381167">
        <ele>195.77</ele>
        <time>2013-12-24T11:00:52Z</time>
      </trkpt>
      <trkpt lat="41.616605225" lon="2.518768495">
        <ele>195.28</ele>
        <time>2013-12-24T11:00:58Z</time>
      </trkpt>
      <trkpt lat="41.616583264" lon="2.518867066">
        <ele>195.28</ele>
        <time>2013-12-24T11:01:00Z</time>
      </trkpt>
      <trkpt lat="41.616461559" lon="2.519473916">
        <ele>194.32</ele>
        <time>2013-12-24T11:01:10Z</time>
      </trkpt>
      <trkpt lat="41.616331556" lon="2.519938944">
        <ele>192.88</ele>
        <time>2013-12-24T11:01:17Z</time>
      </trkpt>
      <trkpt lat="41.616122260" lon="2.520536071">
        <ele>191.44</ele>
        <time>2013-12-24T11:01:25Z</time>
      </trkpt>
      <trkpt lat="41.616037770" lon="2.520824744">
        <ele>190.48</ele>
        <time>2013-12-24T11:01:29Z</time>
      </trkpt>
      <trkpt lat="41.615994687" lon="2.521101598">
        <ele>190.00</ele>
        <time>2013-12-24T11:01:33Z</time>
      </trkpt>
      <trkpt lat="41.615892596" lon="2.521706771">
        <ele>188.56</ele>
        <time>2013-12-24T11:01:42Z</time>
      </trkpt>
      <trkpt lat="41.615840628" lon="2.522161489">
        <ele>187.59</ele>
        <time>2013-12-24T11:01:49Z</time>
      </trkpt>
      <trkpt lat="41.615787570" lon="2.522655435">
        <ele>185.67</ele>
        <time>2013-12-24T11:01:55Z</time>
      </trkpt>
      <trkpt lat="41.615695202" lon="2.523323221">
        <ele>183.75</ele>
        <time>2013-12-24T11:02:03Z</time>
      </trkpt>
      <trkpt lat="41.615679863" lon="2.523487842">
        <ele>182.79</ele>
        <time>2013-12-24T11:02:05Z</time>
      </trkpt>
      <trkpt lat="41.615653795" lon="2.523734354">
        <ele>182.31</ele>
        <time>2013-12-24T11:02:08Z</time>
      </trkpt>
      <trkpt lat="41.615629488" lon="2.524200723">
        <ele>180.38</ele>
        <time>2013-12-24T11:02:13Z</time>
      </trkpt>
      <trkpt lat="41.615547345" lon="2.524973199">
        <ele>177.50</ele>
        <time>2013-12-24T11:02:21Z</time>
      </trkpt>
      <trkpt lat="41.615526055" lon="2.525721200">
        <ele>175.10</ele>
        <time>2013-12-24T11:02:29Z</time>
      </trkpt>
      <trkpt lat="41.615573999" lon="2.526380353">
        <ele>173.17</ele>
        <time>2013-12-24T11:02:36Z</time>
      </trkpt>
      <trkpt lat="41.615610545" lon="2.526837921">
        <ele>171.73</ele>
        <time>2013-12-24T11:02:41Z</time>
      </trkpt>
      <trkpt lat="41.615519182" lon="2.527468491">
        <ele>169.33</ele>
        <time>2013-12-24T11:02:47Z</time>
      </trkpt>
      <trkpt lat="41.615336708" lon="2.528348591">
        <ele>166.93</ele>
        <time>2013-12-24T11:02:55Z</time>
      </trkpt>
      <trkpt lat="41.615199245" lon="2.529122325">
        <ele>165.00</ele>
        <time>2013-12-24T11:03:03Z</time>
      </trkpt>
      <trkpt lat="41.615187761" lon="2.529717188">
        <ele>162.60</ele>
        <time>2013-12-24T11:03:09Z</time>
      </trkpt>
      <trkpt lat="41.615188767" lon="2.530425459">
        <ele>161.16</ele>
        <time>2013-12-24T11:03:16Z</time>
      </trkpt>
      <trkpt lat="41.615193545" lon="2.530530904">
        <ele>160.68</ele>
        <time>2013-12-24T11:03:17Z</time>
      </trkpt>
      <trkpt lat="41.615139398" lon="2.531316120">
        <ele>157.79</ele>
        <time>2013-12-24T11:03:25Z</time>
      </trkpt>
      <trkpt lat="41.615204190" lon="2.531647541">
        <ele>156.35</ele>
        <time>2013-12-24T11:03:29Z</time>
      </trkpt>
      <trkpt lat="41.615221205" lon="2.531845857">
        <ele>155.87</ele>
        <time>2013-12-24T11:03:31Z</time>
      </trkpt>
      <trkpt lat="41.615221289" lon="2.531949373">
        <ele>155.39</ele>
        <time>2013-12-24T11:03:32Z</time>
      </trkpt>
      <trkpt lat="41.615085502" lon="2.532721682">
        <ele>153.47</ele>
        <time>2013-12-24T11:03:40Z</time>
      </trkpt>
      <trkpt lat="41.614925324" lon="2.533321910">
        <ele>151.54</ele>
        <time>2013-12-24T11:03:47Z</time>
      </trkpt>
      <trkpt lat="41.614713010" lon="2.533960275">
        <ele>149.14</ele>
        <time>2013-12-24T11:03:55Z</time>
      </trkpt>
      <trkpt lat="41.614687362" lon="2.534026241">
        <ele>149.14</ele>
        <time>2013-12-24T11:03:56Z</time>
      </trkpt>
      <trkpt lat="41.614469265" lon="2.534647005">
        <ele>146.74</ele>
        <time>2013-12-24T11:04:05Z</time>
      </trkpt>
      <trkpt lat="41.614301710" lon="2.535143465">
        <ele>145.30</ele>
        <time>2013-12-24T11:04:12Z</time>
      </trkpt>
      <trkpt lat="41.614087888" lon="2.535784429">
        <ele>142.89</ele>
        <time>2013-12-24T11:04:21Z</time>
      </trkpt>
      <trkpt lat="41.613928380" lon="2.536212577">
        <ele>141.45</ele>
        <time>2013-12-24T11:04:28Z</time>
      </trkpt>
      <trkpt lat="41.613781362" lon="2.536543159">
        <ele>140.01</ele>
        <time>2013-12-24T11:04:35Z</time>
      </trkpt>
      <trkpt lat="41.613696369" lon="2.536742229">
        <ele>139.53</ele>
        <time>2013-12-24T11:04:42Z</time>
      </trkpt>
      <trkpt lat="41.613594278" lon="2.536905928">
        <ele>139.05</ele>
        <time>2013-12-24T11:04:47Z</time>
      </trkpt>
      <trkpt lat="41.613390849" lon="2.537200887">
        <ele>138.57</ele>
        <time>2013-12-24T11:04:55Z</time>
      </trkpt>
      <trkpt lat="41.613149785" lon="2.537479585">
        <ele>137.13</ele>
        <time>2013-12-24T11:05:02Z</time>
      </trkpt>
      <trkpt lat="41.612871590" lon="2.537794577">
        <ele>135.68</ele>
        <time>2013-12-24T11:05:10Z</time>
      </trkpt>
      <trkpt lat="41.612767068" lon="2.537917959">
        <ele>135.20</ele>
        <time>2013-12-24T11:05:13Z</time>
      </trkpt>
      <trkpt lat="41.612500691" lon="2.538241081">
        <ele>133.76</ele>
        <time>2013-12-24T11:05:21Z</time>
      </trkpt>
      <trkpt lat="41.612398348" lon="2.538349627">
        <ele>133.28</ele>
        <time>2013-12-24T11:05:24Z</time>
      </trkpt>
      <trkpt lat="41.612234733" lon="2.538647268">
        <ele>132.80</ele>
        <time>2013-12-24T11:05:31Z</time>
      </trkpt>
      <trkpt lat="41.612040692" lon="2.538992770">
        <ele>131.36</ele>
        <time>2013-12-24T11:05:40Z</time>
      </trkpt>
      <trkpt lat="41.611995094" lon="2.539057227">
        <ele>130.88</ele>
        <time>2013-12-24T11:05:42Z</time>
      </trkpt>
      <trkpt lat="41.611921585" lon="2.539086899">
        <ele>130.40</ele>
        <time>2013-12-24T11:05:46Z</time>
      </trkpt>
      <trkpt lat="41.611839191" lon="2.538841561">
        <ele>131.84</ele>
        <time>2013-12-24T11:05:54Z</time>
      </trkpt>
      <trkpt lat="41.611827456" lon="2.538779283">
        <ele>132.32</ele>
        <time>2013-12-24T11:05:56Z</time>
      </trkpt>
      <trkpt lat="41.611707511" lon="2.538767800">
        <ele>132.80</ele>
        <time>2013-12-24T11:06:01Z</time>
      </trkpt>
      <trkpt lat="41.611674654" lon="2.538774086">
        <ele>132.80</ele>
        <time>2013-12-24T11:06:02Z</time>
      </trkpt>
      <trkpt lat="41.611395537" lon="2.538826389">
        <ele>131.84</ele>
        <time>2013-12-24T11:06:09Z</time>
      </trkpt>
      <trkpt lat="41.611166962" lon="2.538853379">
        <ele>130.40</ele>
        <time>2013-12-24T11:06:14Z</time>
      </trkpt>
      <trkpt lat="41.610797907" lon="2.539020011">
        <ele>128.47</ele>
        <time>2013-12-24T11:06:22Z</time>
      </trkpt>
      <trkpt lat="41.610546115" lon="2.539154038">
        <ele>127.51</ele>
        <time>2013-12-24T11:06:29Z</time>
      </trkpt>
      <trkpt lat="41.610341932" lon="2.539265685">
        <ele>126.55</ele>
        <time>2013-12-24T11:06:34Z</time>
      </trkpt>
      <trkpt lat="41.609946306" lon="2.539510101">
        <ele>124.63</ele>
        <time>2013-12-24T11:06:43Z</time>
      </trkpt>
      <trkpt lat="41.609787553" lon="2.539615965">
        <ele>124.15</ele>
        <time>2013-12-24T11:06:47Z</time>
      </trkpt>
      <trkpt lat="41.609492929" lon="2.539783435">
        <ele>123.19</ele>
        <time>2013-12-24T11:06:55Z</time>
      </trkpt>
      <trkpt lat="41.609340043" lon="2.539878486">
        <ele>122.22</ele>
        <time>2013-12-24T11:06:59Z</time>
      </trkpt>
      <trkpt lat="41.609200316" lon="2.540068671">
        <ele>121.74</ele>
        <time>2013-12-24T11:07:04Z</time>
      </trkpt>
      <trkpt lat="41.609068050" lon="2.540365139">
        <ele>120.78</ele>
        <time>2013-12-24T11:07:11Z</time>
      </trkpt>
      <trkpt lat="41.608860933" lon="2.540488185">
        <ele>120.30</ele>
        <time>2013-12-24T11:07:18Z</time>
      </trkpt>
      <trkpt lat="41.608843750" lon="2.540479804">
        <ele>119.82</ele>
        <time>2013-12-24T11:07:19Z</time>
      </trkpt>
      <trkpt lat="41.608750795" lon="2.540336976">
        <ele>118.38</ele>
        <time>2013-12-24T11:07:25Z</time>
      </trkpt>
      <trkpt lat="41.608608973" lon="2.540360194">
        <ele>118.38</ele>
        <time>2013-12-24T11:07:29Z</time>
      </trkpt>
      <trkpt lat="41.608272272" lon="2.540431775">
        <ele>117.42</ele>
        <time>2013-12-24T11:07:38Z</time>
      </trkpt>
      <trkpt lat="41.607873629" lon="2.540482821">
        <ele>116.94</ele>
        <time>2013-12-24T11:07:48Z</time>
      </trkpt>
      <trkpt lat="41.607712948" lon="2.540514924">
        <ele>115.98</ele>
        <time>2013-12-24T11:07:54Z</time>
      </trkpt>
      <trkpt lat="41.607569282" lon="2.540737296">
        <ele>115.50</ele>
        <time>2013-12-24T11:08:02Z</time>
      </trkpt>
      <trkpt lat="41.607520164" lon="2.540805441">
        <ele>115.50</ele>
        <time>2013-12-24T11:08:05Z</time>
      </trkpt>
      <trkpt lat="41.607345569" lon="2.540847937">
        <ele>115.01</ele>
        <time>2013-12-24T11:08:11Z</time>
      </trkpt>
      <trkpt lat="41.607037534" lon="2.540779457">
        <ele>114.53</ele>
        <time>2013-12-24T11:08:19Z</time>
      </trkpt>
      <trkpt lat="41.606740563" lon="2.540675270">
        <ele>113.09</ele>
        <time>2013-12-24T11:08:27Z</time>
      </trkpt>
      <trkpt lat="41.606461194" lon="2.540534705">
        <ele>112.61</ele>
        <time>2013-12-24T11:08:35Z</time>
      </trkpt>
      <trkpt lat="41.606202026" lon="2.540398080">
        <ele>111.65</ele>
        <time>2013-12-24T11:08:43Z</time>
      </trkpt>
      <trkpt lat="41.606009577" lon="2.540402271">
        <ele>111.17</ele>
        <time>2013-12-24T11:08:50Z</time>
      </trkpt>
      <trkpt lat="41.605906480" lon="2.540411575">
        <ele>111.17</ele>
        <time>2013-12-24T11:08:56Z</time>
      </trkpt>
      <trkpt lat="41.605875635" lon="2.540437559">
        <ele>111.17</ele>
        <time>2013-12-24T11:09:01Z</time>
      </trkpt>
      <trkpt lat="41.605874377" lon="2.540416017">
        <ele>111.17</ele>
        <time>2013-12-24T11:09:13Z</time>
      </trkpt>
      <trkpt lat="41.605861553" lon="2.540436469">
        <ele>111.17</ele>
        <time>2013-12-24T11:09:26Z</time>
      </trkpt>
      <trkpt lat="41.605860882" lon="2.540444264">
        <ele>111.17</ele>
        <time>2013-12-24T11:09:41Z</time>
      </trkpt>
      <trkpt lat="41.605859122" lon="2.540457843">
        <ele>111.17</ele>
        <time>2013-12-24T11:09:57Z</time>
      </trkpt>
      <trkpt lat="41.605860128" lon="2.540460190">
        <ele>111.17</ele>
        <time>2013-12-24T11:10:11Z</time>
      </trkpt>
      <trkpt lat="41.605849064" lon="2.540428758">
        <ele>111.17</ele>
        <time>2013-12-24T11:10:25Z</time>
      </trkpt>
      <trkpt lat="41.605849232" lon="2.540434625">
        <ele>111.17</ele>
        <time>2013-12-24T11:10:43Z</time>
      </trkpt>
      <trkpt lat="41.605844705" lon="2.540454323">
        <ele>111.17</ele>
        <time>2013-12-24T11:11:00Z</time>
      </trkpt>
      <trkpt lat="41.605848561" lon="2.540453903">
        <ele>111.17</ele>
        <time>2013-12-24T11:11:12Z</time>
      </trkpt>
      <trkpt lat="41.605851411" lon="2.540459435">
        <ele>111.17</ele>
        <time>2013-12-24T11:11:25Z</time>
      </trkpt>
      <trkpt lat="41.605838922" lon="2.540454239">
        <ele>111.17</ele>
        <time>2013-12-24T11:11:39Z</time>
      </trkpt>
      <trkpt lat="41.605833893" lon="2.540448036">
        <ele>111.17</ele>
        <time>2013-12-24T11:11:53Z</time>
      </trkpt>
      <trkpt lat="41.605833474" lon="2.540443677">
        <ele>111.17</ele>
        <time>2013-12-24T11:12:07Z</time>
      </trkpt>
      <trkpt lat="41.605830456" lon="2.540444097">
        <ele>111.17</ele>
        <time>2013-12-24T11:12:21Z</time>
      </trkpt>
      <trkpt lat="41.605838084" lon="2.540453820">
        <ele>111.17</ele>
        <time>2013-12-24T11:12:31Z</time>
      </trkpt>
      <trkpt lat="41.605845963" lon="2.540451221">
        <ele>111.17</ele>
        <time>2013-12-24T11:12:40Z</time>
      </trkpt>
      <trkpt lat="41.605866247" lon="2.540458094">
        <ele>111.17</ele>
        <time>2013-12-24T11:12:42Z</time>
      </trkpt>
      <trkpt lat="41.605949311" lon="2.540489862">
        <ele>111.17</ele>
        <time>2013-12-24T11:12:49Z</time>
      </trkpt>
      <trkpt lat="41.605995999" lon="2.540579632">
        <ele>111.17</ele>
        <time>2013-12-24T11:12:54Z</time>
      </trkpt>
      <trkpt lat="41.606075459" lon="2.540624475">
        <ele>112.61</ele>
        <time>2013-12-24T11:12:57Z</time>
      </trkpt>
      <trkpt lat="41.606103958" lon="2.540635455">
        <ele>112.61</ele>
        <time>2013-12-24T11:12:58Z</time>
      </trkpt>
      <trkpt lat="41.606433283" lon="2.540739559">
        <ele>113.57</ele>
        <time>2013-12-24T11:13:09Z</time>
      </trkpt>
      <trkpt lat="41.606514252" lon="2.540775433">
        <ele>114.05</ele>
        <time>2013-12-24T11:13:12Z</time>
      </trkpt>
      <trkpt lat="41.606600585" lon="2.540976767">
        <ele>115.01</ele>
        <time>2013-12-24T11:13:18Z</time>
      </trkpt>
      <trkpt lat="41.606666970" lon="2.541226966">
        <ele>116.46</ele>
        <time>2013-12-24T11:13:26Z</time>
      </trkpt>
      <trkpt lat="41.606709969" lon="2.541422600">
        <ele>117.42</ele>
        <time>2013-12-24T11:13:32Z</time>
      </trkpt>
      <trkpt lat="41.606779455" lon="2.541696018">
        <ele>118.86</ele>
        <time>2013-12-24T11:13:41Z</time>
      </trkpt>
      <trkpt lat="41.606841062" lon="2.541871702">
        <ele>120.30</ele>
        <time>2013-12-24T11:13:47Z</time>
      </trkpt>
      <trkpt lat="41.606935861" lon="2.542071192">
        <ele>121.74</ele>
        <time>2013-12-24T11:13:54Z</time>
      </trkpt>
      <trkpt lat="41.607023955" lon="2.542251654">
        <ele>123.19</ele>
        <time>2013-12-24T11:14:01Z</time>
      </trkpt>
      <trkpt lat="41.607046167" lon="2.542332539">
        <ele>123.19</ele>
        <time>2013-12-24T11:14:04Z</time>
      </trkpt>
      <trkpt lat="41.607088747" lon="2.542365648">
        <ele>124.15</ele>
        <time>2013-12-24T11:14:11Z</time>
      </trkpt>
      <trkpt lat="41.607092771" lon="2.542367576">
        <ele>124.63</ele>
        <time>2013-12-24T11:14:22Z</time>
      </trkpt>
    </trkseg>
  </trk>
</gpx>
